ftp/pub/palmer/observations_modified/2019/August/AR190814_BASE.txt

Download

Sample DateTime	Unit Id	WS Avg 2min	WD Avg 2min	WGS 10min	WGD 10min	Air Temp	Rel Humidity	Dew Point	Pyranometer	Quantum	Air Pressure	Snow Level	Rainfall	PW Current	Visibility	CBase 1	CBase 2	CBase 3	Vert Vis
2019/08/14  00:00:00  BASE  3.68088  286  4.93332  293  -3.6  100   -3.6  0     0     997.7    NA       0.0000   9999     230   0     0    
2019/08/14  00:01:00  BASE  4.04544  285  5.44488  277  -3.6  100   -3.6  0     0     997.7    NA       0.0000   9999     230   0     0    
2019/08/14  00:02:00  BASE  4.26888  281  5.44488  277  -3.6  100   -3.6  0     0     997.7    NA       0.0000   9999     260   0     0    
2019/08/14  00:03:00  BASE  4.13952  282  5.44488  277  -3.6  100   -3.6  0     0     997.8    NA       0.0000   9999     230   0     0    
2019/08/14  00:04:00  BASE  4.2042   284  5.44488  277  -3.6  100   -3.6  0     0     997.8    NA       0.0000   9999     260   0     0    
2019/08/14  00:05:00  BASE  4.01016  284  5.44488  277  -3.6  100   -3.6  0     0     997.8    NA       0.0000   9999     300   0     0    
2019/08/14  00:06:00  BASE  3.98076  282  5.44488  277  -3.6  100   -3.6  0     0     997.8    NA       0.0000   9999     330   0     0    
2019/08/14  00:07:00  BASE  4.03956  277  5.44488  277  -3.6  100   -3.6  0     0     997.8    NA       0.0000   9999     490   0     0    
2019/08/14  00:08:00  BASE  4.06896  267  5.50368  264  -3.6  100   -3.6  0     0     997.8    NA       0.0000   9999     330   0     0    
2019/08/14  00:09:00  BASE  4.19832  260  5.50368  264  -3.7  100   -3.7  0     0     997.8    NA       0.0000   9999     560   0     0    
2019/08/14  00:10:00  BASE  4.06896  264  5.50368  264  -3.7  100   -3.7  0     0     997.8    NA       0.0000   9999     490   0     0    
2019/08/14  00:11:00  BASE  4.01604  266  5.50368  264  -3.7  100   -3.7  0     0     997.7    NA       0.0000   9999     430   1410  0    
2019/08/14  00:12:00  BASE  4.24536  265  5.50368  264  -3.8  100   -3.8  0     0     997.7    NA       0.0000   9999     390   0     0    
2019/08/14  00:13:00  BASE  4.1454   266  5.50368  264  -3.8  100   -3.8  0     0     997.7    NA       0.0000   9999     330   1280  0    
2019/08/14  00:14:00  BASE  3.72204  268  5.50368  264  -3.8  100   -3.8  0     0     997.7    NA       0.0000   9999     430   1280  0    
2019/08/14  00:15:00  BASE  3.72204  270  5.50368  264  -3.8  100   -3.8  0     0     997.6    NA       0.0000   9999     590   0     0    
2019/08/14  00:16:00  BASE  3.89844  273  5.50368  264  -3.8  100   -3.8  0     0     997.6    NA       0.0000   9999     490   0     0    
2019/08/14  00:17:00  BASE  3.78672  277  5.50368  264  -3.8  100   -3.8  0     0     997.6    NA       0.0000   9999     430   0     0    
2019/08/14  00:18:00  BASE  3.87492  280  5.2626   275  -3.8  100   -3.8  0     0     997.5    NA       0.0000   9999     460   0     0    
2019/08/14  00:19:00  BASE  4.35708  275  5.2626   275  -3.8  100   -3.8  0     0     997.6    NA       0.0000   9999     490   0     0    
2019/08/14  00:20:00  BASE  4.33356  272  5.2626   275  -3.8  100   -3.8  0     0     997.6    NA       0.0000   9999     390   0     0    
2019/08/14  00:21:00  BASE  3.96312  274  5.08032  262  -3.8  100   -3.8  0     0     997.6    NA       0.0000   9999     490   0     0    
2019/08/14  00:22:00  BASE  3.89844  271  5.08032  262  -3.8  100   -3.8  0     0     997.6    NA       0.0000   9999     490   0     0    
2019/08/14  00:23:00  BASE  3.83376  270  5.02152  270  -3.8  100   -3.8  0     0     997.7    NA       0.0000   9999     460   0     0    
2019/08/14  00:24:00  BASE  3.36924  272  5.02152  270  -3.8  100   -3.8  0     0     997.7    NA       0.0000   9999     390   0     0    
2019/08/14  00:25:00  BASE  2.84592  271  5.02152  270  -3.8  100   -3.8  0     0     997.7    NA       0.0000   9999     460   0     0    
2019/08/14  00:26:00  BASE  2.9106   275  5.02152  270  -3.8  100   -3.8  0     0     997.7    NA       0.0000   9999     390   0     0    
2019/08/14  00:27:00  BASE  3.59268  279  5.02152  270  -3.7  100   -3.7  0     0     997.7    NA       0.0000   9999     330   0     0    
2019/08/14  00:28:00  BASE  3.99252  278  5.02152  270  -3.7  100   -3.7  0     0     997.7    NA       0.0000   9999     300   0     0    
2019/08/14  00:29:00  BASE  4.02192  281  4.80984  277  -3.7  100   -3.7  0     0     997.7    NA       0.0000   9999     390   0     0    
2019/08/14  00:30:00  BASE  4.10424  283  4.80984  277  -3.8  100   -3.8  0     0     997.7    NA       0.0000   9999     430   0     0    
2019/08/14  00:31:00  BASE  3.65736  282  4.80984  277  -3.8  100   -3.8  0     0     997.7    NA       0.0000   9999     490   0     0    
2019/08/14  00:32:00  BASE  3.19872  282  4.80984  277  -3.8  100   -3.8  0     0     997.8    NA       0.0000   9999     590   0     0    
2019/08/14  00:33:00  BASE  3.39864  281  4.80984  277  -3.8  100   -3.8  0     0     997.8    NA       0.0000   9999     590   1310  0    
2019/08/14  00:34:00  BASE  3.99252  279  5.2626   288  -3.8  100   -3.8  0     0     997.8    NA       0.0000   9999     590   0     0    
2019/08/14  00:35:00  BASE  4.15128  277  5.2626   288  -3.8  100   -3.8  0     0     997.8    NA       0.0000   9999     750   1210  0    
2019/08/14  00:36:00  BASE  3.80436  274  5.2626   288  -3.8  100   -3.8  0     0     997.9    NA       0.0000   9999     750   0     0    
2019/08/14  00:37:00  BASE  3.39276  273  5.2626   288  -3.8  100   -3.8  0     0     997.9    NA       0.0000   9999     620   0     0    
2019/08/14  00:38:00  BASE  3.15168  282  5.2626   288  -3.8  100   -3.8  0     0     997.9    NA       0.0000   9999     560   0     0    
2019/08/14  00:39:00  BASE  3.2634   290  5.2626   288  -3.8  100   -3.8  0     0     997.9    NA       0.0000   9999     460   0     0    
2019/08/14  00:40:00  BASE  3.26928  292  5.2626   288  -3.8  100   -3.8  0     0     997.8    NA       0.0000   9999     520   0     0    
2019/08/14  00:41:00  BASE  3.19872  291  5.2626   288  -3.8  100   -3.8  0     0     997.8    NA       0.0000   9999     620   0     0    
2019/08/14  00:42:00  BASE  3.36924  286  5.2626   288  -3.8  100   -3.8  0     0     997.8    NA       0.0000   9999     560   0     0    
2019/08/14  00:43:00  BASE  3.0282   290  5.2626   288  -3.8  100   -3.8  0     0     997.8    NA       0.0000   9999     590   0     0    
2019/08/14  00:44:00  BASE  2.6754   296  4.47468  273  -3.7  100   -3.7  0     0     997.8    NA       0.0000   9999     660   0     0    
2019/08/14  00:45:00  BASE  2.89884  292  4.53936  285  -3.7  100   -3.7  0     0     997.8    NA       0.0000   9999     690   0     0    
2019/08/14  00:46:00  BASE  3.30456  280  4.53936  285  -3.7  100   -3.7  0     0     997.9    NA       0.0000   9999     750   0     0    
2019/08/14  00:47:00  BASE  3.58092  275  4.53936  285  -3.8  100   -3.8  0     0     997.8    NA       0.0000   9999     720   0     0    
2019/08/14  00:48:00  BASE  3.71028  281  4.65696  284  -3.8  100   -3.8  0     0     997.8    NA       0.0000   9999     750   0     0    
2019/08/14  00:49:00  BASE  4.08072  280  4.68636  286  -3.8  100   -3.8  0     0     997.8    NA       0.0000   9999     750   0     0    
2019/08/14  00:50:00  BASE  4.02192  273  4.68636  286  -3.8  100   -3.8  0     0     997.8    NA       0.0000   9999     750   0     0    
2019/08/14  00:51:00  BASE  3.27516  275  4.68636  286  -3.8  100   -3.8  0     0     997.8    NA       0.0000   9999     790   0     0    
2019/08/14  00:52:00  BASE  2.86944  286  4.68636  286  -3.8  100   -3.8  0     0     997.8    NA       0.0000   9999     750   0     0    
2019/08/14  00:53:00  BASE  2.98704  289  4.68636  286  -3.8  100   -3.8  0     0     997.8    NA       0.0000   9999     750   0     0    
2019/08/14  00:54:00  BASE  3.08112  284  4.68636  286  -3.8  100   -3.8  0     0     997.7    NA       0.0000   9999     850   1380  0    
2019/08/14  00:55:00  BASE  3.1752   283  4.68636  286  -3.7  100   -3.7  0     0     997.7    NA       0.0000   9999     750   0     0    
2019/08/14  00:56:00  BASE  3.29868  283  4.68636  286  -3.7  100   -3.7  0     0     997.7    NA       0.0000   9999     750   1410  0    
2019/08/14  00:57:00  BASE  2.95176  280  4.68636  286  -3.7  100   -3.7  0     0     997.8    NA       0.0000   9999     1150  0     0    
2019/08/14  00:58:00  BASE  2.95764  280  4.68636  286  -3.7  100   -3.7  0     0     997.7    NA       0.0000   9999     720   0     0    
2019/08/14  00:59:00  BASE  3.6456   280  4.59816  274  -3.7  100   -3.7  0     0     997.7    NA       0.0000   9999     1020  0     0    
2019/08/14  01:00:00  BASE  3.72204  278  4.59816  274  -3.7  100   -3.7  0     0     997.7    NA       0.0000   9999     820   0     0    
2019/08/14  01:01:00  BASE  3.34572  278  4.59816  274  -3.7  100   -3.7  0     0     997.7    NA       0.0000   9999     620   0     0    
2019/08/14  01:02:00  BASE  3.32808  281  4.59816  274  -3.7  100   -3.7  0     0     997.7    NA       0.0000   9999     590   0     0    
2019/08/14  01:03:00  BASE  3.52212  280  4.59816  274  -3.7  100   -3.7  0     0     997.7    NA       0.0000   9999     390   0     0    
2019/08/14  01:04:00  BASE  3.6162   279  4.59816  274  -3.8  100   -3.8  0     0     997.7    NA       0.0000   9999     460   0     0    
2019/08/14  01:05:00  BASE  3.72792  277  4.68636  259  -3.8  100   -3.8  0     0     997.7    NA       0.0000   9999     430   0     0    
2019/08/14  01:06:00  BASE  3.66324  272  4.68636  259  -3.8  100   -3.8  0     0     997.7    NA       0.0000   9999     390   0     0    
2019/08/14  01:07:00  BASE  3.12228  270  4.68636  259  -3.8  100   -3.8  0     0     997.7    NA       0.0000   9999     520   0     0    
2019/08/14  01:08:00  BASE  2.71068  279  4.68636  259  -3.8  100   -3.8  0     0     997.7    NA       0.0000   9999     430   0     0    
2019/08/14  01:09:00  BASE  2.96352  293  4.68636  259  -3.8  100   -3.8  0     0     997.7    NA       0.0000   9999     360   0     0    
2019/08/14  01:10:00  BASE  3.13404  303  4.68636  259  -3.8  100   -3.8  0     0     997.7    NA       0.0000   9999     230   0     0    
2019/08/14  01:11:00  BASE  3.10464  302  4.68636  259  -3.8  100   -3.8  0     0     997.7    NA       0.0000   9999     0     0     0    
2019/08/14  01:12:00  BASE  3.01644  297  4.68636  259  -3.8  100   -3.8  0     0     997.7    NA       0.0000   9999     0     0     0    
2019/08/14  01:13:00  BASE  3.06348  294  4.68636  259  -3.8  100   -3.8  0     0     997.7    NA       0.0000   9999     0     0     0    
2019/08/14  01:14:00  BASE  3.15168  288  4.68636  259  -3.7  100   -3.7  0     0     997.7    NA       0.0000   9999     0     0     0    
2019/08/14  01:15:00  BASE  2.85768  288  4.2336   267  -3.7  100   -3.7  0     0     997.7    NA       0.0000   8000     0     0     0    
2019/08/14  01:16:00  BASE  2.83416  290  3.65736  294  -3.7  100   -3.7  0     0     997.7    NA       0.0000   8000     0     0     0    
2019/08/14  01:17:00  BASE  2.85768  290  3.65736  294  -3.7  100   -3.7  0     0     997.7    NA       0.0000   9000     0     0     0    
2019/08/14  01:18:00  BASE  2.54016  292  3.65736  294  -3.7  100   -3.7  0     0     997.7    NA       0.0000   8000     0     0     0    
2019/08/14  01:19:00  BASE  2.48724  293  3.65736  294  -3.7  100   -3.7  0     0     997.7    NA       0.0000   7000     0     0     0    
2019/08/14  01:20:00  BASE  2.50488  292  3.65736  294  -3.7  100   -3.7  0     0     997.7    NA       0.0000   BR       6000  0     0    
2019/08/14  01:21:00  BASE  2.2932   294  3.59856  289  -3.6  100   -3.6  0     0     997.7    NA       0.0000   BR       5000  0     0    
2019/08/14  01:22:00  BASE  2.11092  299  3.59856  289  -3.6  100   -3.6  0     0     997.7    NA       0.0000   BR       3900  0     0    
2019/08/14  01:23:00  BASE  2.03448  302  3.26928  293  -3.6  100   -3.6  0     0     997.7    NA       0.0000   -SN      BR    3300  0    
2019/08/14  01:24:00  BASE  2.11092  298  3.234    288  -3.6  100   -3.6  0     0     997.7    NA       0.0000   -SN      BR    3100  0    
2019/08/14  01:25:00  BASE  2.25204  293  3.234    288  -3.6  100   -3.6  0     0     997.7    NA       0.0000   -SN      BR    2800  0    
2019/08/14  01:26:00  BASE  2.46372  289  3.2046   283  -3.6  100   -3.6  0     0     997.7    NA       0.0000   -SN      BR    3000  0    
2019/08/14  01:27:00  BASE  2.43432  283  3.02232  288  -3.6  100   -3.6  0     0     997.7    NA       0.0000   -SN      BR    3700  0    
2019/08/14  01:28:00  BASE  2.42256  276  3.02232  288  -3.6  100   -3.6  0     0     997.7    NA       0.0000   -SN      BR    4900  0    
2019/08/14  01:29:00  BASE  3.2046   270  4.59816  261  -3.6  100   -3.6  0     0     997.7    NA       0.0000   -SN      BR    5000  0    
2019/08/14  01:30:00  BASE  4.4982   263  6.05052  267  -3.6  100   -3.6  0     0     997.6    NA       0.0000   -SN      BR    7000  0    
2019/08/14  01:31:00  BASE  5.34492  258  6.2916   264  -3.6  100   -3.6  0     0     997.7    NA       0.0000   -SN      BR    9999  0    
2019/08/14  01:32:00  BASE  5.34492  254  6.2916   264  -3.7  100   -3.7  0     0     997.6    NA       0.0000   -SN      BR    9999  230  
2019/08/14  01:33:00  BASE  4.87452  254  6.2916   264  -3.7  100   -3.7  0     0     997.7    NA       0.0000   -SN      BR    9999  390  
2019/08/14  01:34:00  BASE  4.68636  255  6.2916   264  -3.8  100   -3.8  0     0     997.6    NA       0.0000   -SN      BR    9999  430  
2019/08/14  01:35:00  BASE  4.48056  256  6.2916   264  -3.8  100   -3.8  0     0     997.6    NA       0.0000   -SN      BR    9999  390  
2019/08/14  01:36:00  BASE  4.40412  258  6.2916   264  -3.9  100   -3.9  0     0     997.6    NA       0.0000   -SN      BR    9999  330  
2019/08/14  01:37:00  BASE  5.03328  258  6.2916   264  -3.9  100   -3.9  0     0     997.6    NA       0.0000   -SN      BR    9999  230  
2019/08/14  01:38:00  BASE  5.27436  259  6.2916   264  -3.9  100   -3.9  0     0     997.6    NA       0.0000   -SN      9999  0     0    
2019/08/14  01:39:00  BASE  5.0568   255  6.2916   264  -3.9  100   -3.9  0     0     997.5    NA       0.0000   -SN      9999  0     0    
2019/08/14  01:40:00  BASE  4.4688   253  6.2916   264  -3.9  100   -3.9  0     0     997.5    NA       0.0000   9999     0     0     0    
2019/08/14  01:41:00  BASE  3.85728  258  5.92704  254  -3.9  100   -3.9  0     0     997.5    NA       0.0000   9999     0     0     0    
2019/08/14  01:42:00  BASE  3.78084  269  5.92704  254  -3.9  100   -3.9  0     0     997.4    NA       0.0000   9999     0     0     0    
2019/08/14  01:43:00  BASE  3.63384  277  5.92704  254  -3.9  100   -3.9  0     0     997.4    NA       0.0000   9999     0     0     0    
2019/08/14  01:44:00  BASE  3.62796  272  5.92704  254  -3.9  100   -3.9  0     0     997.4    NA       0.0000   9999     230   0     0    
2019/08/14  01:45:00  BASE  3.69852  266  5.92704  254  -3.9  100   -3.9  0     0     997.4    NA       0.0000   9999     0     0     0    
2019/08/14  01:46:00  BASE  3.83964  270  5.92704  254  -3.9  100   -3.9  0     0     997.5    NA       0.0000   9999     0     0     0    
2019/08/14  01:47:00  BASE  3.97488  269  5.65656  249  -3.9  100   -3.9  0     0     997.5    NA       0.0000   9999     0     0     0    
2019/08/14  01:48:00  BASE  3.82788  267  5.65656  249  -3.9  100   -3.9  0     0     997.6    NA       0.0000   9999     260   0     0    
2019/08/14  01:49:00  BASE  3.8514   267  4.86864  267  -3.9  100   -3.9  0     0     997.6    NA       0.0000   9999     430   0     0    
2019/08/14  01:50:00  BASE  3.43392  266  4.86864  267  -3.9  100   -3.9  0     0     997.6    NA       0.0000   9999     490   0     0    
2019/08/14  01:51:00  BASE  3.087    267  4.86864  267  -3.9  100   -3.9  0     0     997.6    NA       0.0000   9999     520   0     0    
2019/08/14  01:52:00  BASE  3.528    264  4.86864  267  -3.9  100   -3.9  0     0     997.6    NA       0.0000   9999     660   1080  0    
2019/08/14  01:53:00  BASE  3.94548  257  4.86864  267  -3.9  100   -3.9  0     0     997.6    NA       0.0000   9999     560   0     0    
2019/08/14  01:54:00  BASE  3.92784  254  4.86864  267  -3.9  100   -3.9  0     0     997.6    NA       0.0000   9999     230   0     0    
2019/08/14  01:55:00  BASE  4.11012  253  5.145    248  -4.0  100   -4.0  0     0     997.5    NA       0.0000   9999     300   0     0    
2019/08/14  01:56:00  BASE  4.44528  253  5.145    248  -4.0  100   -4.0  0     0     997.5    NA       0.0000   9999     520   0     0    
2019/08/14  01:57:00  BASE  4.34532  257  5.145    248  -4.0  100   -4.0  0     0     997.5    NA       0.0000   9999     620   0     0    
2019/08/14  01:58:00  BASE  4.78632  256  5.65656  256  -4.1  100   -4.1  0     0     997.4    NA       0.0000   9999     690   0     0    
2019/08/14  01:59:00  BASE  4.9392   253  5.65656  256  -4.1  100   -4.1  0     0     997.5    NA       0.0000   9999     520   0     0    
2019/08/14  02:00:00  BASE  4.704    256  5.65656  256  -4.1  100   -4.1  0     0     997.4    NA       0.0000   9999     430   0     0    
2019/08/14  02:01:00  BASE  4.45704  255  5.65656  256  -4.1  100   -4.1  0     0     997.4    NA       0.0000   9999     390   0     0    
2019/08/14  02:02:00  BASE  4.03956  253  5.65656  256  -4.1  100   -4.1  0     0     997.4    NA       0.0000   9999     360   0     0    
2019/08/14  02:03:00  BASE  3.75732  252  5.65656  256  -4.1  100   -4.1  0     0     997.4    NA       0.0000   9999     360   0     0    
2019/08/14  02:04:00  BASE  3.59268  251  5.65656  256  -4.1  100   -4.1  0     0     997.4    NA       0.0000   9999     620   0     0    
2019/08/14  02:05:00  BASE  4.12776  250  5.65656  256  -4.1  100   -4.1  0     0     997.4    NA       0.0000   9999     660   0     0    
2019/08/14  02:06:00  BASE  5.00976  251  5.86824  245  -4.1  100   -4.1  0     0     997.3    NA       0.0000   9999     590   0     0    
2019/08/14  02:07:00  BASE  5.42136  249  6.02112  251  -4.1  100   -4.1  0     0     997.3    NA       0.0000   9999     490   0     0    
2019/08/14  02:08:00  BASE  4.75104  248  6.02112  251  -4.1  100   -4.1  0     0     997.4    NA       0.0000   9999     430   0     0    
2019/08/14  02:09:00  BASE  4.21596  248  6.02112  251  -4.1  100   -4.1  0     0     997.4    NA       0.0000   9999     390   0     0    
2019/08/14  02:10:00  BASE  4.22184  249  6.02112  251  -4.1  100   -4.1  0     0     997.4    NA       0.0000   9999     300   0     0    
2019/08/14  02:11:00  BASE  4.24536  251  6.02112  251  -4.1  100   -4.1  0     0     997.4    NA       0.0000   9999     360   0     0    
2019/08/14  02:12:00  BASE  4.51584  253  6.02112  251  -4.1  100   -4.1  0     0     997.3    NA       0.0000   9999     360   0     0    
2019/08/14  02:13:00  BASE  4.4982   256  6.02112  251  -4.1  100   -4.1  0     0     997.3    NA       0.0000   9999     430   0     0    
2019/08/14  02:14:00  BASE  4.35708  260  6.02112  251  -4.1  100   -4.1  0     0     997.3    NA       0.0000   9999     430   0     0    
2019/08/14  02:15:00  BASE  4.80984  260  6.13872  253  -4.0  100   -4.0  0     0     997.2    NA       0.0000   9999     430   0     0    
2019/08/14  02:16:00  BASE  5.30964  256  6.13872  253  -4.0  100   -4.0  0     0     997.2    NA       0.0000   9999     360   0     0    
2019/08/14  02:17:00  BASE  5.15088  253  6.13872  253  -4.0  100   -4.0  0     0     997.2    NA       0.0000   9999     460   0     0    
2019/08/14  02:18:00  BASE  4.7922   255  6.13872  253  -4.0  100   -4.0  0     0     997.2    NA       0.0000   9999     490   0     0    
2019/08/14  02:19:00  BASE  4.57464  261  6.13872  253  -3.9  100   -4.0  0     0     997.2    NA       0.0000   9999     520   0     0    
2019/08/14  02:20:00  BASE  4.72752  265  6.13872  253  -3.9  100   -3.9  0     0     997.2    NA       0.0000   9999     560   0     0    
2019/08/14  02:21:00  BASE  5.48604  261  7.2618   253  -3.9  100   -3.9  0     0     997.2    NA       0.0000   9999     430   0     0    
2019/08/14  02:22:00  BASE  6.19164  256  7.2618   246  -3.9  100   -3.9  0     0     997.2    NA       0.0000   9999     590   0     0    
2019/08/14  02:23:00  BASE  6.15636  257  7.2618   246  -3.9  100   -3.9  0     0     997.2    NA       0.0000   9999     560   0     0    
2019/08/14  02:24:00  BASE  5.89764  259  7.2618   246  -3.9  100   -3.9  0     0     997.2    NA       0.0000   9999     560   0     0    
2019/08/14  02:25:00  BASE  5.70948  257  7.2618   246  -3.9  100   -3.9  0     0     997.3    NA       0.0000   9999     590   0     0    
2019/08/14  02:26:00  BASE  5.83884  254  7.2618   246  -3.9  100   -3.9  0     0     997.4    NA       0.0000   9999     560   0     0    
2019/08/14  02:27:00  BASE  5.88588  253  7.2618   246  -3.9  100   -3.9  0     0     997.4    NA       0.0000   9999     490   0     0    
2019/08/14  02:28:00  BASE  6.09168  253  7.47348  251  -3.9  100   -3.9  0     0     997.4    NA       0.0000   9999     460   0     0    
2019/08/14  02:29:00  BASE  6.1446   251  7.47348  251  -3.9  100   -3.9  0     0     997.4    NA       0.0000   9999     520   0     0    
2019/08/14  02:30:00  BASE  6.47976  248  8.25552  244  -3.9  100   -3.9  0     0     997.5    NA       0.0000   9999     560   0     0    
2019/08/14  02:31:00  BASE  6.87372  246  8.25552  244  -3.9  100   -3.9  0     0     997.5    NA       0.0000   9999     430   0     0    
2019/08/14  02:32:00  BASE  6.59148  244  8.25552  244  -3.9  100   -3.9  0     0     997.6    NA       0.0000   9999     430   0     0    
2019/08/14  02:33:00  BASE  6.63852  246  8.25552  244  -3.9  100   -3.9  0     0     997.6    NA       0.0000   9999     390   0     0    
2019/08/14  02:34:00  BASE  6.4386   247  8.25552  244  -4.0  100   -4.0  0     0     997.6    NA       0.0000   9999     430   0     0    
2019/08/14  02:35:00  BASE  6.321    249  8.25552  244  -4.0  100   -4.0  0     0     997.6    NA       0.0000   9999     390   0     0    
2019/08/14  02:36:00  BASE  6.62676  252  8.25552  244  -4.0  100   -4.0  0     0     997.6    NA       0.0000   9999     300   0     0    
2019/08/14  02:37:00  BASE  6.84432  250  8.25552  244  -4.0  100   -4.0  0     0     997.6    NA       0.0000   9999     0     0     0    
2019/08/14  02:38:00  BASE  6.69144  249  8.25552  244  -4.0  100   -4.0  0     0     997.6    NA       0.0000   9999     0     0     0    
2019/08/14  02:39:00  BASE  6.16224  251  8.25552  244  -4.0  100   -4.0  0     0     997.6    NA       0.0000   9999     260   0     0    
2019/08/14  02:40:00  BASE  5.733    252  7.77336  245  -4.0  100   -4.0  0     0     997.5    NA       0.0000   9999     260   0     0    
2019/08/14  02:41:00  BASE  5.95056  255  7.77336  245  -4.0  100   -4.0  0     0     997.5    NA       0.0000   9999     300   0     0    
2019/08/14  02:42:00  BASE  6.45036  256  7.71456  248  -4.0  100   -4.0  0     0     997.4    NA       0.0000   9999     330   0     0    
2019/08/14  02:43:00  BASE  6.86784  255  7.86744  248  -4.0  100   -4.0  0     0     997.4    NA       0.0000   9999     330   0     0    
2019/08/14  02:44:00  BASE  6.79728  250  7.98504  244  -4.0  100   -4.0  0     0     997.5    NA       0.0000   9999     300   0     0    
2019/08/14  02:45:00  BASE  6.41508  248  7.98504  244  -4.0  100   -4.0  0     0     997.5    NA       0.0000   9999     360   0     0    
2019/08/14  02:46:00  BASE  6.00936  249  7.98504  244  -4.0  100   -4.0  0     0     997.4    NA       0.0000   9999     430   0     0    
2019/08/14  02:47:00  BASE  5.66244  245  7.98504  244  -4.0  100   -4.0  0     0     997.4    NA       0.0000   9999     390   0     0    
2019/08/14  02:48:00  BASE  6.027    243  7.98504  244  -4.0  100   -4.0  0     0     997.3    NA       0.0000   9999     390   0     0    
2019/08/14  02:49:00  BASE  6.88548  246  8.07912  245  -4.0  100   -4.0  0     0     997.3    NA       0.0000   9999     330   0     0    
2019/08/14  02:50:00  BASE  7.07952  246  8.07912  245  -4.0  100   -4.0  0     0     997.3    NA       0.0000   9999     520   0     0    
2019/08/14  02:51:00  BASE  7.03836  249  8.07912  245  -4.0  100   -4.0  0     0     997.3    NA       0.0000   9999     490   0     0    
2019/08/14  02:52:00  BASE  7.32648  252  8.22612  255  -4.0  100   -4.0  0     0     997.2    NA       0.0000   9999     430   0     0    
2019/08/14  02:53:00  BASE  7.48524  251  8.22612  252  -4.0  100   -4.0  0     0     997.2    NA       0.0000   9999     430   0     0    
2019/08/14  02:54:00  BASE  7.46172  249  8.22612  252  -4.0  100   -4.0  0     0     997.2    NA       0.0000   9999     460   0     0    
2019/08/14  02:55:00  BASE  7.52052  248  8.83176  249  -4.0  100   -4.0  0     0     997.2    NA       0.0000   9999     520   0     0    
2019/08/14  02:56:00  BASE  7.72632  247  9.07284  249  -4.0  100   -4.0  0     0     997.3    NA       0.0000   9999     430   0     0    
2019/08/14  02:57:00  BASE  7.1148   244  9.07284  249  -4.0  100   -4.0  0     0     997.3    NA       0.0000   9999     620   0     0    
2019/08/14  02:58:00  BASE  6.15636  243  9.07284  249  -4.0  100   -4.0  0     0     997.3    NA       0.0000   9999     690   0     0    
2019/08/14  02:59:00  BASE  5.78592  244  9.07284  249  -4.0  100   -4.0  0     0     997.4    NA       0.0000   9999     720   0     0    
2019/08/14  03:00:00  BASE  5.9388   244  9.07284  249  -3.9  100   -3.9  0     0     997.4    NA       0.0000   9999     790   0     0    
2019/08/14  03:01:00  BASE  6.84432  242  9.07284  249  -3.9  100   -3.9  0     0     997.4    NA       0.0000   9999     590   0     0    
2019/08/14  03:02:00  BASE  7.00896  242  9.07284  249  -3.9  100   -3.9  0     0     997.5    NA       0.0000   9999     520   0     0    
2019/08/14  03:03:00  BASE  6.81492  246  9.07284  249  -3.9  100   -3.9  0     0     997.5    NA       0.0000   9999     660   0     0    
2019/08/14  03:04:00  BASE  6.9384   248  9.07284  249  -3.9  100   -3.9  0     0     997.5    NA       0.0000   9999     620   0     0    
2019/08/14  03:05:00  BASE  6.60912  250  9.07284  249  -3.9  100   -3.9  0     0     997.5    NA       0.0000   9999     520   0     0    
2019/08/14  03:06:00  BASE  6.38568  251  8.59068  244  -3.9  100   -3.9  0     0     997.5    NA       0.0000   9999     520   0     0    
2019/08/14  03:07:00  BASE  6.00348  251  8.59068  244  -3.9  100   -3.9  0     0     997.6    NA       0.0000   9999     430   0     0    
2019/08/14  03:08:00  BASE  6.25044  256  8.59068  244  -3.9  100   -3.9  0     0     997.5    NA       0.0000   9999     230   0     0    
2019/08/14  03:09:00  BASE  6.5856   259  8.59068  244  -3.9  100   -3.9  0     0     997.5    NA       0.0000   9999     0     0     0    
2019/08/14  03:10:00  BASE  6.52092  257  8.59068  244  -3.9  100   -3.9  0     0     997.5    NA       0.0000   9999     200   0     0    
2019/08/14  03:11:00  BASE  6.31512  256  7.98504  250  -3.9  100   -3.9  0     0     997.5    NA       0.0000   9999     330   0     0    
2019/08/14  03:12:00  BASE  5.733    258  7.98504  250  -4.0  100   -4.0  0     0     997.5    NA       0.0000   9999     330   0     0    
2019/08/14  03:13:00  BASE  5.60952  257  7.68516  247  -4.0  100   -4.0  0     0     997.5    NA       0.0000   9999     300   0     0    
2019/08/14  03:14:00  BASE  5.86824  255  7.35     252  -4.0  100   -4.0  0     0     997.4    NA       0.0000   9999     0     0     0    
2019/08/14  03:15:00  BASE  6.02112  255  7.2618   251  -4.0  100   -4.0  0     0     997.4    NA       0.0000   9999     260   0     0    
2019/08/14  03:16:00  BASE  5.43312  257  7.2618   251  -4.0  100   -4.0  0     0     997.5    NA       0.0000   9999     330   1310  0    
2019/08/14  03:17:00  BASE  4.69812  261  7.2618   251  -4.1  100   -4.1  0     0     997.5    NA       0.0000   9999     330   0     0    
2019/08/14  03:18:00  BASE  5.02152  265  7.2618   251  -4.1  100   -4.1  0     0     997.4    NA       0.0000   9999     300   0     0    
2019/08/14  03:19:00  BASE  5.73888  263  7.2618   251  -4.1  100   -4.1  0     0     997.4    NA       0.0000   9999     230   0     0    
2019/08/14  03:20:00  BASE  6.04464  259  7.68516  255  -4.1  100   -4.1  0     0     997.4    NA       0.0000   9999     300   1210  0    
2019/08/14  03:21:00  BASE  6.06816  260  7.68516  255  -4.2  100   -4.2  0     0     997.4    NA       0.0000   9999     230   1210  0    
2019/08/14  03:22:00  BASE  6.00348  260  7.68516  255  -4.2  100   -4.2  0     0     997.4    NA       0.0000   9999     230   1310  0    
2019/08/14  03:23:00  BASE  6.32688  260  7.68516  255  -4.3  100   -4.3  0     0     997.4    NA       0.0000   9999     300   1440  0    
2019/08/14  03:24:00  BASE  6.2622   263  7.68516  255  -4.3  100   -4.3  0     0     997.4    NA       0.0000   9999     260   0     0    
2019/08/14  03:25:00  BASE  5.72124  264  7.68516  255  -4.3  100   -4.3  0     0     997.4    NA       0.0000   9999     230   0     0    
2019/08/14  03:26:00  BASE  5.06856  264  7.68516  255  -4.4  100   -4.4  0     0     997.3    NA       0.0000   9999     0     0     0    
2019/08/14  03:27:00  BASE  4.59816  264  7.68516  255  -4.4  100   -4.4  0     0     997.3    NA       0.0000   9999     0     0     0    
2019/08/14  03:28:00  BASE  5.07444  261  7.68516  255  -4.4  100   -4.4  0     0     997.3    NA       0.0000   9999     0     0     0    
2019/08/14  03:29:00  BASE  5.72124  256  7.68516  255  -4.4  100   -4.4  0     0     997.3    NA       0.0000   9999     0     0     0    
2019/08/14  03:30:00  BASE  6.3798   255  7.35     262  -4.4  100   -4.4  0     0     997.2    NA       0.0000   9999     0     0     0    
2019/08/14  03:31:00  BASE  6.21516  259  7.35     262  -4.5  100   -4.5  0     0     997.3    NA       0.0000   9999     0     0     0    
2019/08/14  03:32:00  BASE  5.72712  263  7.35     262  -4.5  100   -4.5  0     0     997.3    NA       0.0000   8000     0     0     0    
2019/08/14  03:33:00  BASE  5.95056  263  7.2324   256  -4.6  100   -4.6  0     0     997.2    NA       0.0000   8000     0     0     0    
2019/08/14  03:34:00  BASE  5.76828  261  7.2324   256  -4.6  100   -4.6  0     0     997.3    NA       0.0000   7000     0     0     0    
2019/08/14  03:35:00  BASE  5.59188  259  7.2324   256  -4.6  100   -4.6  0     0     997.3    NA       0.0000   BR       7000  0     0    
2019/08/14  03:36:00  BASE  5.83296  259  7.2324   256  -4.6  100   -4.6  0     0     997.3    NA       0.0000   BR       7000  0     0    
2019/08/14  03:37:00  BASE  5.9682   259  7.2324   256  -4.6  100   -4.6  0     0     997.3    NA       0.0000   BR       9000  0     0    
2019/08/14  03:38:00  BASE  6.09756  257  7.2324   256  -4.6  100   -4.6  0     0     997.2    NA       0.0000   BR       9999  0     0    
2019/08/14  03:39:00  BASE  6.00348  256  7.2324   256  -4.6  100   -4.6  0     0     997.2    NA       0.0000   BR       9999  0     0    
2019/08/14  03:40:00  BASE  5.95644  256  7.02072  263  -4.7  100   -4.7  0     0     997.2    NA       0.0000   BR       9999  0     0    
2019/08/14  03:41:00  BASE  5.92116  256  7.02072  263  -4.7  100   -4.7  0     0     997.2    NA       0.0000   BR       9999  0     0    
2019/08/14  03:42:00  BASE  5.89764  256  6.80316  256  -4.8  100   -4.8  0     0     997.2    NA       0.0000   BR       9999  1120  0    
2019/08/14  03:43:00  BASE  5.69772  257  6.80316  256  -4.8  100   -4.8  0     0     997.2    NA       0.0000   BR       9999  0     0    
2019/08/14  03:44:00  BASE  5.52132  258  6.80316  256  -4.8  100   -4.8  0     0     997.2    NA       0.0000   9999     0     0     0    
2019/08/14  03:45:00  BASE  5.69772  259  6.80316  256  -4.8  100   -4.8  0     0     997.2    NA       0.0000   9999     200   1050  0    
2019/08/14  03:46:00  BASE  5.39196  260  6.65616  262  -4.8  100   -4.8  0     0     997.2    NA       0.0000   9999     0     0     0    
2019/08/14  03:47:00  BASE  4.69224  261  6.65616  262  -4.8  100   -4.8  0     0     997.2    NA       0.0000   9999     0     0     0    
2019/08/14  03:48:00  BASE  4.62168  262  6.65616  262  -4.8  100   -4.8  0     0     997.2    NA       0.0000   9999     0     0     0    
2019/08/14  03:49:00  BASE  5.03916  265  6.65616  262  -4.8  100   -4.8  0     0     997.2    NA       0.0000   9999     300   1080  0    
2019/08/14  03:50:00  BASE  5.22144  267  6.62676  259  -4.8  100   -4.8  0     0     997.2    NA       0.0000   9999     0     0     0    
2019/08/14  03:51:01  BASE  5.3508   264  6.62676  259  -4.8  100   -4.8  0     0     997.2    NA       0.0000   9999     1250  0     0    
2019/08/14  03:52:01  BASE  5.12736  262  6.3798   266  -4.9  100   -4.9  0     0     997.3    NA       0.0000   9999     1180  0     0    
2019/08/14  03:53:01  BASE  4.7628   260  6.3798   266  -4.9  100   -4.9  0     0     997.3    NA       0.0000   9999     1280  0     0    
2019/08/14  03:54:01  BASE  4.84512  256  6.3798   266  -4.9  100   -4.9  0     0     997.3    NA       0.0000   9999     230   1310  0    
2019/08/14  03:55:01  BASE  4.78632  255  6.3798   266  -4.9  100   -4.9  0     0     997.3    NA       0.0000   9999     1310  0     0    
2019/08/14  03:56:01  BASE  5.145    259  6.3798   266  -5.0  100   -5.0  0     0     997.3    NA       0.0000   9999     300   1280  0    
2019/08/14  03:57:01  BASE  5.54484  259  6.3798   266  -5.0  100   -5.0  0     0     997.3    NA       0.0000   9999     330   1280  0    
2019/08/14  03:58:01  BASE  5.10384  259  6.3798   266  -5.0  100   -5.0  0     0     997.3    NA       0.0000   9999     1310  0     0    
2019/08/14  03:59:01  BASE  4.24536  269  6.3798   266  -5.1  100   -5.1  0     0     997.3    NA       0.0000   8000     0     0     0    
2019/08/14  04:00:01  BASE  3.53976  274  6.2622   255  -5.1  100   -5.1  0     0     997.3    NA       0.0000   8000     0     0     0    
2019/08/14  04:01:01  BASE  3.675    267  6.2622   255  -5.1  100   -5.1  0     0     997.3    NA       0.0000   9000     0     0     0    
2019/08/14  04:03:01  BASE  3.86904  265  6.2622   255  -5.1  100   -5.1  0     0     997.3    NA       0.0000   9999     0     0     0    
2019/08/14  04:04:01  BASE  3.96312  268  6.2622   255  -5.1  100   -5.1  0     0     997.3    NA       0.0000   9000     1380  0     0    
2019/08/14  04:05:01  BASE  4.03368  271  6.2622   255  -5.1  100   -5.1  0     0     997.3    NA       0.0000   7000     0     0     0    
2019/08/14  04:06:01  BASE  3.92196  272  6.2622   255  -5.1  100   -5.1  0     0     997.3    NA       0.0000   BR       8000  0     0    
2019/08/14  04:07:01  BASE  3.91608  268  6.2622   255  -5.2  100   -5.2  0     0     997.3    NA       0.0000   BR       9999  200   1310 
2019/08/14  04:08:01  BASE  3.81024  269  5.86824  261  -5.2  100   -5.2  0     0     997.3    NA       0.0000   BR       9999  330   1280 
2019/08/14  04:09:01  BASE  3.59856  269  5.05092  286  -5.2  100   -5.2  0     0     997.3    NA       0.0000   BR       9999  330   1210 
2019/08/14  04:10:01  BASE  3.76908  266  5.145    276  -5.3  100   -5.3  0     0     997.3    NA       0.0000   9999     330   1020  0    
2019/08/14  04:11:01  BASE  3.90432  270  5.145    276  -5.3  100   -5.3  0     0     997.4    NA       0.0000   9999     0     0     0    
2019/08/14  04:12:01  BASE  4.16304  272  5.2626   274  -5.3  100   -5.3  0     0     997.3    NA       0.0000   9999     0     0     0    
2019/08/14  04:13:01  BASE  4.59816  274  5.53308  277  -5.4  100   -5.4  0     0     997.3    NA       0.0000   9999     230   0     0    
2019/08/14  04:14:01  BASE  4.38648  276  5.53308  277  -5.4  100   -5.4  0     0     997.3    NA       0.0000   9999     300   0     0    
2019/08/14  04:15:00  BASE  4.26888  282  5.53308  277  -5.4  100   -5.4  0     0     997.2    NA       0.0000   9999     390   0     0    
2019/08/14  04:16:00  BASE  4.31004  287  5.53308  277  -5.5  100   -5.5  0     0     997.2    NA       0.0000   9999     360   0     0    
2019/08/14  04:17:00  BASE  3.9396   280  5.53308  277  -5.5  100   -5.5  0     0     997.2    NA       0.0000   9999     430   6590  0    
2019/08/14  04:18:01  BASE  3.7632   275  5.53308  277  -5.5  100   -5.5  0     0     997.2    NA       0.0000   9999     390   0     0    
2019/08/14  04:19:00  BASE  3.82788  278  5.53308  277  -5.5  100   -5.5  0     0     997.2    NA       0.0000   9999     430   6300  0    
2019/08/14  04:20:00  BASE  3.75732  277  5.53308  277  -5.5  100   -5.5  0     0     997.2    NA       0.0000   9999     520   6230  0    
2019/08/14  04:21:00  BASE  3.39864  279  5.53308  277  -5.5  100   -5.5  0     0     997.2    NA       0.0000   9999     850   6270  0    
2019/08/14  04:22:01  BASE  3.31632  285  5.53308  277  -5.5  100   -5.5  0     0     997.2    NA       0.0000   9999     560   6230  0    
2019/08/14  04:23:00  BASE  3.36336  283  4.78044  290  -5.5  100   -5.5  0     0     997.2    NA       0.0000   9999     460   6200  0    
2019/08/14  04:24:00  BASE  3.25164  276  4.78044  290  -5.5  100   -5.5  0     0     997.2    NA       0.0000   9999     660   6140  0    
2019/08/14  04:25:00  BASE  3.29868  274  4.56876  291  -5.5  100   -5.5  0     0     997.2    NA       0.0000   9999     360   6170  0    
2019/08/14  04:26:00  BASE  3.6162   278  4.50996  276  -5.5  100   -5.5  0     0     997.2    NA       0.0000   9999     390   6170  0    
2019/08/14  04:27:00  BASE  3.8808   281  4.50996  276  -5.5  100   -5.5  0     0     997.2    NA       0.0000   9999     430   6100  0    
2019/08/14  04:28:00  BASE  3.66324  280  4.50996  276  -5.6  100   -5.6  0     0     997.2    NA       0.0000   9999     360   6000  0    
2019/08/14  04:29:00  BASE  3.58092  285  4.50996  276  -5.6  100   -5.6  0     0     997.2    NA       0.0000   9999     330   0     0    
2019/08/14  04:30:00  BASE  3.45156  288  4.50996  276  -5.6  100   -5.6  0     0     997.3    NA       0.0000   9999     430   0     0    
2019/08/14  04:31:00  BASE  3.675    281  4.80984  276  -5.6  100   -5.6  0     0     997.3    NA       0.0000   9999     300   0     0    
2019/08/14  04:32:00  BASE  4.08072  274  4.80984  276  -5.6  100   -5.6  0     0     997.4    NA       0.0000   9999     300   0     0    
2019/08/14  04:33:00  BASE  3.7632   274  4.80984  276  -5.6  100   -5.6  0     0     997.5    NA       0.0000   9999     260   0     0    
2019/08/14  04:34:00  BASE  3.7632   277  4.80984  276  -5.6  100   -5.6  0     0     997.5    NA       0.0000   9999     330   0     0    
2019/08/14  04:35:00  BASE  4.12776  282  5.02152  273  -5.6  100   -5.6  0     0     997.5    NA       0.0000   9999     360   0     0    
2019/08/14  04:36:01  BASE  4.33944  285  5.47428  276  -5.6  100   -5.6  0     0     997.5    NA       0.0000   9999     390   0     0    
2019/08/14  04:37:00  BASE  4.33944  280  5.47428  276  -5.6  100   -5.6  0     0     997.5    NA       0.0000   9999     430   0     0    
2019/08/14  04:38:00  BASE  4.2042   279  5.47428  276  -5.6  100   -5.6  0     0     997.5    NA       0.0000   9999     490   0     0    
2019/08/14  04:39:00  BASE  4.19244  281  5.47428  276  -5.6  100   -5.6  0     0     997.5    NA       0.0000   9999     520   0     0    
2019/08/14  04:40:00  BASE  4.33356  280  5.47428  276  -5.6  100   -5.6  0     0     997.6    NA       0.0000   9999     520   0     0    
2019/08/14  04:41:00  BASE  4.31004  280  5.47428  276  -5.6  100   -5.6  0     0     997.6    NA       0.0000   9999     520   0     0    
2019/08/14  04:42:00  BASE  4.10424  273  5.47428  276  -5.6  100   -5.6  0     0     997.6    NA       0.0000   9999     460   0     0    
2019/08/14  04:43:00  BASE  4.02192  271  5.47428  276  -5.6  100   -5.6  0     0     997.6    NA       0.0000   9999     430   0     0    
2019/08/14  04:44:00  BASE  4.38648  277  5.47428  276  -5.7  100   -5.7  0     0     997.6    NA       0.0000   9999     430   0     0    
2019/08/14  04:45:00  BASE  4.704    278  5.47428  276  -5.7  100   -5.7  0     0     997.6    NA       0.0000   9999     460   0     0    
2019/08/14  04:46:01  BASE  4.65108  279  5.38608  291  -5.7  100   -5.7  0     0     997.5    NA       0.0000   9999     520   1610  0    
2019/08/14  04:47:00  BASE  4.82748  283  5.38608  291  -5.8  100   -5.8  0     0     997.5    NA       0.0000   9999     490   5450  0    
2019/08/14  04:48:00  BASE  4.4982   282  5.38608  291  -5.8  100   -5.8  0     0     997.6    NA       0.0000   9999     490   5380  0    
2019/08/14  04:49:00  BASE  4.03368  281  5.38608  291  -5.8  100   -5.8  0     0     997.6    NA       0.0000   9999     520   1310  0    
2019/08/14  04:50:00  BASE  3.66324  281  5.38608  291  -5.8  100   -5.8  0     0     997.6    NA       0.0000   9999     560   1310  0    
2019/08/14  04:51:00  BASE  3.25752  284  5.38608  291  -5.8  100   -5.8  0     0     997.6    NA       0.0000   9999     460   0     0    
2019/08/14  04:52:00  BASE  3.56328  287  5.38608  291  -5.8  100   -5.8  0     0     997.6    NA       0.0000   9999     390   0     0    
2019/08/14  04:53:00  BASE  3.72792  293  5.38608  291  -5.7  100   -5.7  0     0     997.6    NA       0.0000   9999     330   0     0    
2019/08/14  04:54:00  BASE  3.4692   298  5.292    276  -5.7  100   -5.7  0     0     997.5    NA       0.0000   9999     330   0     0    
2019/08/14  04:55:00  BASE  3.56328  300  5.2626   279  -5.7  100   -5.7  0     0     997.5    NA       0.0000   9999     330   0     0    
2019/08/14  04:56:00  BASE  3.66912  297  5.2332   281  -5.7  100   -5.7  0     0     997.5    NA       0.0000   9999     300   0     0    
2019/08/14  04:57:00  BASE  3.45744  287  4.99212  274  -5.7  100   -5.7  0     0     997.5    NA       0.0000   9999     330   0     0    
2019/08/14  04:58:00  BASE  3.4398   278  4.99212  274  -5.7  100   -5.7  0     0     997.5    NA       0.0000   9999     390   0     0    
2019/08/14  04:59:00  BASE  3.53976  281  4.35708  274  -5.7  100   -5.7  0     0     997.5    NA       0.0000   9999     390   0     0    
2019/08/14  05:00:00  BASE  3.42216  290  4.35708  274  -5.7  100   -5.7  0     0     997.5    NA       0.0000   9999     300   0     0    
2019/08/14  05:01:00  BASE  3.27516  293  4.35708  274  -5.7  100   -5.7  0     0     997.6    NA       0.0000   9999     330   0     0    
2019/08/14  05:02:00  BASE  3.1458   288  4.35708  274  -5.7  100   -5.7  0     0     997.6    NA       0.0000   9999     430   0     0    
2019/08/14  05:03:00  BASE  2.9106   287  4.35708  274  -5.7  100   -5.7  0     0     997.6    NA       0.0000   9999     490   0     0    
2019/08/14  05:04:00  BASE  3.22812  291  4.41588  287  -5.7  100   -5.7  0     0     997.6    NA       0.0000   9999     430   0     0    
2019/08/14  05:05:00  BASE  3.675    291  4.41588  287  -5.7  100   -5.7  0     0     997.6    NA       0.0000   9999     390   0     0    
2019/08/14  05:06:00  BASE  3.39864  290  4.41588  287  -5.7  100   -5.7  0     0     997.7    NA       0.0000   9999     360   0     0    
2019/08/14  05:07:00  BASE  3.381    293  4.41588  287  -5.7  100   -5.7  0     0     997.6    NA       0.0000   9999     430   0     0    
2019/08/14  05:08:00  BASE  3.969    293  4.99212  296  -5.7  100   -5.7  0     0     997.6    NA       0.0000   9999     360   0     0    
2019/08/14  05:09:00  BASE  4.3806   292  4.99212  296  -5.7  100   -5.7  0     0     997.6    NA       0.0000   9999     390   0     0    
2019/08/14  05:10:01  BASE  3.969    291  4.99212  296  -5.8  100   -5.8  0     0     997.7    NA       0.0000   9999     390   0     0    
2019/08/14  05:11:00  BASE  3.6456   290  4.99212  296  -5.8  100   -5.8  0     0     997.7    NA       0.0000   9999     430   0     0    
2019/08/14  05:12:00  BASE  3.92784  289  4.99212  296  -5.8  100   -5.8  0     0     997.7    NA       0.0000   9999     430   0     0    
2019/08/14  05:13:00  BASE  4.31592  291  4.99212  296  -5.8  100   -5.8  0     0     997.6    NA       0.0000   9999     360   0     0    
2019/08/14  05:14:00  BASE  4.42764  296  4.99212  296  -5.8  100   -5.8  0     0     997.6    NA       0.0000   9999     360   0     0    
2019/08/14  05:15:01  BASE  4.22772  295  4.99212  296  -5.8  100   -5.8  0     0     997.6    NA       0.0000   9999     360   0     0    
2019/08/14  05:16:00  BASE  4.43352  293  5.05092  289  -5.7  100   -5.7  0     0     997.5    NA       0.0000   9999     460   0     0    
2019/08/14  05:17:00  BASE  4.33944  289  5.05092  289  -5.7  100   -5.7  0     0     997.6    NA       0.0000   9999     360   0     0    
2019/08/14  05:18:00  BASE  3.75144  288  5.05092  289  -5.7  100   -5.7  0     0     997.6    NA       0.0000   9999     490   0     0    
2019/08/14  05:19:00  BASE  3.5868   288  5.05092  289  -5.7  100   -5.7  0     0     997.6    NA       0.0000   9999     490   0     0    
2019/08/14  05:20:01  BASE  3.78672  286  5.05092  289  -5.6  100   -5.6  0     0     997.6    NA       0.0000   9999     520   0     0    
2019/08/14  05:21:00  BASE  3.97488  287  5.05092  289  -5.6  100   -5.6  0     0     997.5    NA       0.0000   9999     560   0     0    
2019/08/14  05:22:00  BASE  3.94548  287  5.05092  289  -5.6  100   -5.6  0     0     997.5    NA       0.0000   9999     560   0     0    
2019/08/14  05:23:00  BASE  3.95136  287  5.05092  289  -5.6  100   -5.6  0     0     997.5    NA       0.0000   9999     460   0     0    
2019/08/14  05:24:00  BASE  4.16892  292  5.05092  289  -5.6  100   -5.6  0     0     997.5    NA       0.0000   9999     430   0     0    
2019/08/14  05:25:00  BASE  4.25712  293  5.05092  289  -5.7  100   -5.7  0     0     997.6    NA       0.0000   9999     430   0     0    
2019/08/14  05:26:00  BASE  4.01016  289  4.86864  288  -5.7  100   -5.7  0     0     997.6    NA       0.0000   9999     460   0     0    
2019/08/14  05:27:00  BASE  3.63972  284  4.86864  288  -5.7  100   -5.7  0     0     997.6    NA       0.0000   9999     460   0     0    
2019/08/14  05:28:00  BASE  3.59268  281  4.86864  288  -5.7  100   -5.7  0     0     997.6    NA       0.0000   9999     820   0     0    
2019/08/14  05:29:00  BASE  3.78084  279  4.86864  288  -5.7  100   -5.7  0     0     997.6    NA       0.0000   9999     720   0     0    
2019/08/14  05:30:00  BASE  3.80436  278  4.86864  288  -5.7  100   -5.7  0     0     997.6    NA       0.0000   9999     690   0     0    
2019/08/14  05:31:00  BASE  3.7044   282  4.86864  288  -5.8  100   -5.8  0     0     997.5    NA       0.0000   9999     690   0     0    
2019/08/14  05:32:00  BASE  3.78672  289  4.86864  288  -5.8  100   -5.8  0     0     997.5    NA       0.0000   9999     690   0     0    
2019/08/14  05:33:00  BASE  3.86904  292  4.86864  288  -5.8  100   -5.8  0     0     997.5    NA       0.0000   9999     660   0     0    
2019/08/14  05:34:00  BASE  3.75144  292  4.86864  288  -5.8  100   -5.8  0     0     997.5    NA       0.0000   9999     690   0     0    
2019/08/14  05:35:00  BASE  3.71616  293  4.32768  270  -5.8  100   -5.8  0     0     997.5    NA       0.0000   9999     690   0     0    
2019/08/14  05:36:00  BASE  3.53388  295  4.32768  270  -5.8  100   -5.8  0     0     997.5    NA       0.0000   9999     660   0     0    
2019/08/14  05:37:00  BASE  3.36336  298  4.32768  270  -5.8  100   -5.8  0     0     997.4    NA       0.0000   9999     690   0     0    
2019/08/14  05:38:00  BASE  3.22224  299  4.29828  296  -5.8  100   -5.8  0     0     997.3    NA       0.0000   9999     620   0     0    
2019/08/14  05:39:00  BASE  2.94588  301  4.29828  296  -5.8  100   -5.8  0     0     997.3    NA       0.0000   9999     690   0     0    
2019/08/14  05:40:00  BASE  2.91648  307  4.29828  296  -5.8  100   -5.8  0     0     997.3    NA       0.0000   9999     720   0     0    
2019/08/14  05:41:00  BASE  2.98704  310  4.29828  296  -5.8  100   -5.8  0     0     997.3    NA       0.0000   9999     690   0     0    
2019/08/14  05:42:00  BASE  2.89296  305  4.2042   292  -5.8  100   -5.8  0     0     997.4    NA       0.0000   9999     660   5020  0    
2019/08/14  05:43:00  BASE  3.09288  302  4.05132  290  -5.8  100   -5.8  0     0     997.4    NA       0.0000   9999     620   0     0    
2019/08/14  05:44:00  BASE  3.65736  304  4.50996  294  -5.8  100   -5.8  0     0     997.5    NA       0.0000   9999     660   0     0    
2019/08/14  05:45:00  BASE  4.03368  297  4.50996  294  -5.8  100   -5.8  0     0     997.5    NA       0.0000   9999     620   0     0    
2019/08/14  05:46:00  BASE  3.96312  294  4.50996  294  -5.8  100   -5.8  0     0     997.5    NA       0.0000   9999     620   0     0    
2019/08/14  05:47:00  BASE  3.78672  303  4.50996  294  -5.8  100   -5.8  0     0     997.5    NA       0.0000   9999     620   0     0    
2019/08/14  05:48:00  BASE  3.822    313  4.50996  294  -5.8  100   -5.8  0     0     997.5    NA       0.0000   9999     620   0     0    
2019/08/14  05:49:00  BASE  3.85728  315  4.50996  294  -5.8  100   -5.8  0     0     997.4    NA       0.0000   9999     660   0     0    
2019/08/14  05:50:00  BASE  3.7632   315  4.50996  294  -5.7  100   -5.7  0     0     997.4    NA       0.0000   9999     620   0     0    
2019/08/14  05:51:00  BASE  3.71028  305  4.50996  294  -5.7  100   -5.7  0     0     997.4    NA       0.0000   9999     620   0     0    
2019/08/14  05:52:00  BASE  3.92196  295  4.50996  292  -5.7  100   -5.7  0     0     997.3    NA       0.0000   9999     590   0     0    
2019/08/14  05:53:00  BASE  4.33944  295  4.83924  292  -5.7  100   -5.7  0     0     997.3    NA       0.0000   9999     620   0     0    
2019/08/14  05:54:00  BASE  4.46292  294  5.05092  296  -5.7  100   -5.7  0     0     997.3    NA       0.0000   -SN      9999  660   0    
2019/08/14  05:55:00  BASE  3.91608  300  5.05092  296  -5.7  100   -5.7  0     0     997.3    NA       0.0000   -SN      9999  620   0    
2019/08/14  05:56:00  BASE  3.56328  302  5.05092  296  -5.6  100   -5.6  0     0     997.3    NA       0.0000   -SN      9999  750   0    
2019/08/14  05:57:00  BASE  4.31592  296  5.56836  294  -5.6  100   -5.6  0     0     997.2    NA       0.0000   -SN      9999  750   0    
2019/08/14  05:58:00  BASE  5.00976  295  5.99172  292  -5.7  100   -5.7  0     0     997.2    NA       0.0000   -SN      9999  750   0    
2019/08/14  05:59:00  BASE  4.77456  294  5.99172  292  -5.7  100   -5.7  0     0     997.2    NA       0.0000   -SN      9999  790   0    
2019/08/14  06:00:00  BASE  4.4982   293  5.99172  292  -5.7  100   -5.7  0     0     997.1    NA       0.0000   -SN      9999  820   0    
2019/08/14  06:01:00  BASE  5.00976  291  5.99172  292  -5.7  100   -5.7  0     0     997.1    NA       0.0000   -SN      9999  820   4560 
2019/08/14  06:02:00  BASE  5.18028  286  5.99172  292  -5.7  100   -5.7  0     0     997.1    NA       0.0000   -SN      9999  890   4460 
2019/08/14  06:03:00  BASE  4.79808  283  5.99172  292  -5.7  100   -5.7  0     0     997.1    NA       0.0000   9999     890   4530  0    
2019/08/14  06:04:00  BASE  4.36884  286  5.99172  292  -5.7  100   -5.7  0     0     997.2    NA       0.0000   9999     820   4590  0    
2019/08/14  06:05:00  BASE  4.66872  290  5.99172  292  -5.7  100   -5.7  0     0     997.1    NA       0.0000   9999     790   4660  0    
2019/08/14  06:06:00  BASE  5.292    293  5.99172  292  -5.7  100   -5.7  0     0     997.2    NA       0.0000   9999     790   4660  0    
2019/08/14  06:07:00  BASE  5.2626   296  5.99172  292  -5.7  100   -5.7  0     0     997.2    NA       0.0000   9999     790   4630  0    
2019/08/14  06:08:00  BASE  5.0862   293  5.92704  280  -5.8  100   -5.8  0     0     997.2    NA       0.0000   9999     790   0     0    
2019/08/14  06:09:00  BASE  4.35708  288  5.92704  280  -5.8  100   -5.8  0     0     997.2    NA       0.0000   9999     790   0     0    
2019/08/14  06:10:00  BASE  4.31004  288  5.92704  280  -5.8  100   -5.8  0     0     997.2    NA       0.0000   9999     820   0     0    
2019/08/14  06:11:00  BASE  4.90392  289  5.92704  280  -5.8  100   -5.8  0     0     997.2    NA       0.0000   9999     820   0     0    
2019/08/14  06:12:00  BASE  4.70988  289  5.92704  280  -5.8  100   -5.8  0     0     997.2    NA       0.0000   9999     790   0     0    
2019/08/14  06:13:00  BASE  4.80984  289  5.95644  285  -5.8  100   -5.8  0     0     997.2    NA       0.0000   9999     790   0     0    
2019/08/14  06:14:00  BASE  5.25672  287  6.05052  294  -5.8  100   -5.8  0     0     997.2    NA       0.0000   9999     820   4660  0    
2019/08/14  06:15:00  BASE  4.96272  286  6.05052  294  -5.8  100   -5.8  0     0     997.2    NA       0.0000   9999     850   4690  0    
2019/08/14  06:16:00  BASE  4.47468  287  6.05052  294  -5.8  100   -5.8  0     0     997.2    NA       0.0000   9999     980   4660  0    
2019/08/14  06:17:00  BASE  3.94548  290  6.05052  294  -5.8  100   -5.8  0     0     997.2    NA       0.0000   9999     920   4530  0    
2019/08/14  06:18:00  BASE  3.66912  293  6.05052  294  -5.8  100   -5.8  0     0     997.1    NA       0.0000   9999     850   4490  0    
2019/08/14  06:19:00  BASE  4.16892  286  6.05052  294  -5.8  100   -5.8  0     0     997.1    NA       0.0000   9999     890   4430  0    
2019/08/14  06:20:00  BASE  4.75104  280  6.05052  294  -5.8  100   -5.8  0     0     997.1    NA       0.0000   9999     890   4360  0    
2019/08/14  06:21:00  BASE  4.25712  278  6.05052  294  -5.8  100   -5.8  0     0     997.1    NA       0.0000   9999     920   4430  0    
2019/08/14  06:22:00  BASE  3.7044   279  6.05052  294  -5.8  100   -5.8  0     0     997.1    NA       0.0000   9999     950   4530  0    
2019/08/14  06:23:00  BASE  4.52172  283  6.2328   280  -5.8  100   -5.8  0     0     997.0    NA       0.0000   9999     920   4560  0    
2019/08/14  06:24:00  BASE  5.25672  285  6.2328   280  -5.8  100   -5.8  0     0     996.9    NA       0.0000   9999     920   0     0    
2019/08/14  06:25:00  BASE  4.90392  282  6.2328   280  -5.9  100   -5.9  0     0     997.0    NA       0.0000   9999     920   4400  0    
2019/08/14  06:26:00  BASE  4.33944  281  6.2328   280  -5.8  100   -5.8  0     0     997.0    NA       0.0000   9999     890   4430  0    
2019/08/14  06:27:00  BASE  4.46292  287  6.2328   280  -5.8  100   -5.8  0     0     997.0    NA       0.0000   9999     850   4400  0    
2019/08/14  06:28:00  BASE  4.72164  292  6.2328   280  -5.8  100   -5.8  0     0     997.0    NA       0.0000   9999     820   4360  0    
2019/08/14  06:29:00  BASE  4.91568  296  6.2328   280  -5.8  100   -5.8  0     0     996.9    NA       0.0000   9999     790   4360  0    
2019/08/14  06:30:00  BASE  5.38608  299  6.2328   280  -5.8  100   -5.8  0     0     996.9    NA       0.0000   9999     790   4360  0    
2019/08/14  06:31:00  BASE  5.51544  295  6.2328   280  -5.9  100   -5.9  0     0     996.9    NA       0.0000   9999     790   0     0    
2019/08/14  06:32:00  BASE  4.75692  293  6.2328   280  -5.9  100   -5.9  0     0     997.1    NA       0.0000   9999     790   0     0    
2019/08/14  06:33:00  BASE  4.47468  293  6.10932  284  -5.9  100   -5.9  0     0     997.0    NA       0.0000   9999     750   4230  0    
2019/08/14  06:34:00  BASE  4.94508  292  6.10932  284  -5.9  100   -5.9  0     0     997.1    NA       0.0000   9999     820   4170  0    
2019/08/14  06:35:00  BASE  4.76868  291  6.10932  284  -5.9  100   -5.9  0     0     997.1    NA       0.0000   9999     820   4270  0    
2019/08/14  06:36:01  BASE  4.82748  288  6.10932  284  -5.9  100   -5.9  0     0     997.1    NA       0.0000   9999     850   4270  0    
2019/08/14  06:37:01  BASE  4.89216  290  6.10932  284  -5.9  100   -5.9  0     0     997.1    NA       0.0000   9999     850   4040  0    
2019/08/14  06:38:01  BASE  4.71576  289  6.10932  284  -5.9  100   -5.9  0     0     997.1    NA       0.0000   9999     820   4040  0    
2019/08/14  06:39:01  BASE  4.66284  285  6.10932  284  -6.0  100   -6.0  0     0     997.1    NA       0.0000   9999     850   4170  0    
2019/08/14  06:40:00  BASE  4.23948  283  6.10932  284  -6.0  100   -6.0  0     0     997.1    NA       0.0000   9999     4130  0     0    
2019/08/14  06:41:01  BASE  3.53388  281  6.05052  283  -6.0  100   -6.0  0     0     997.2    NA       0.0000   9999     920   4130  0    
2019/08/14  06:42:01  BASE  3.21048  277  6.05052  283  -5.9  100   -5.9  0     0     997.2    NA       0.0000   9999     920   4070  0    
2019/08/14  06:43:01  BASE  3.69264  275  6.05052  283  -5.9  100   -5.9  0     0     997.2    NA       0.0000   9999     950   3870  0    
2019/08/14  06:44:00  BASE  4.0572   273  6.05052  283  -5.9  100   -5.9  0     0     997.2    NA       0.0000   9999     980   4070  0    
2019/08/14  06:45:00  BASE  4.40412  273  6.05052  283  -5.9  100   -5.9  0     0     997.2    NA       0.0000   9999     950   4070  0    
2019/08/14  06:46:00  BASE  4.66284  276  6.02112  273  -5.9  100   -5.9  0     0     997.2    NA       0.0000   9999     980   4000  0    
2019/08/14  06:47:00  BASE  4.74516  278  6.02112  273  -5.9  100   -5.9  0     0     997.2    NA       0.0000   9999     3870  0     0    
2019/08/14  06:48:00  BASE  4.28064  281  6.02112  273  -5.9  100   -5.9  0     0     997.1    NA       0.0000   9999     3810  0     0    
2019/08/14  06:49:00  BASE  3.65148  285  6.02112  273  -5.9  100   -5.9  0     0     997.1    NA       0.0000   9999     3740  0     0    
2019/08/14  06:50:00  BASE  4.1454   286  6.02112  273  -5.9  100   -5.9  0     0     997.1    NA       0.0000   9999     1050  3770  0    
2019/08/14  06:51:00  BASE  4.68048  285  6.02112  273  -5.9  100   -5.9  0     0     997.1    NA       0.0000   9999     3740  0     0    
2019/08/14  06:52:00  BASE  4.73928  284  6.02112  273  -5.9  100   -5.9  0     0     997.0    NA       0.0000   9999     3710  0     0    
2019/08/14  06:53:00  BASE  4.77456  283  6.05052  280  -5.9  100   -5.9  0     0     997.0    NA       0.0000   9999     3740  0     0    
2019/08/14  06:54:00  BASE  4.86864  284  6.07992  273  -5.9  100   -5.9  0     0     997.0    NA       0.0000   9999     3610  0     0    
2019/08/14  06:55:00  BASE  4.704    286  6.07992  273  -5.9  100   -5.9  0     0     997.0    NA       0.0000   9999     1120  3580  0    
2019/08/14  06:56:00  BASE  5.22732  286  6.62676  287  -6.0  100   -6.0  0     0     997.0    NA       0.0000   9999     3510  0     0    
2019/08/14  06:57:00  BASE  5.89764  282  6.92664  285  -6.0  100   -6.0  0     0     997.0    NA       0.0000   9999     3540  0     0    
2019/08/14  06:58:01  BASE  5.86824  283  6.92664  285  -6.0  100   -6.0  0     0     997.0    NA       0.0000   9999     1080  3480  0    
2019/08/14  06:59:00  BASE  5.60364  279  6.92664  285  -6.0  100   -6.0  0     0     997.0    NA       0.0000   9999     1080  3510  0    
2019/08/14  07:00:00  BASE  5.2626   273  6.92664  285  -6.0  100   -6.0  0     0     997.0    NA       0.0000   9999     3510  0     0    
2019/08/14  07:01:00  BASE  5.45664  272  6.92664  285  -6.0  100   -6.0  0     0     997.0    NA       0.0000   9999     3480  0     0    
2019/08/14  07:02:00  BASE  5.80944  277  6.92664  285  -6.1  100   -6.1  0     0     996.9    NA       0.0000   9999     3380  0     0    
2019/08/14  07:03:00  BASE  5.80944  279  6.92664  285  -6.1  100   -6.1  0     0     996.9    NA       0.0000   9999     3350  0     0    
2019/08/14  07:04:00  BASE  5.48016  280  6.92664  285  -6.1  100   -6.1  0     0     996.9    NA       0.0000   9999     3350  0     0    
2019/08/14  07:05:00  BASE  5.37432  283  6.92664  275  -6.1  100   -6.1  0     0     996.9    NA       0.0000   9999     3280  0     0    
2019/08/14  07:06:00  BASE  5.22144  279  6.92664  275  -6.1  100   -6.1  0     0     996.9    NA       0.0000   9999     3450  0     0    
2019/08/14  07:07:00  BASE  4.93332  271  6.92664  275  -6.1  100   -6.1  0     0     996.8    NA       0.0000   9999     3350  0     0    
2019/08/14  07:08:00  BASE  5.28612  269  6.92664  275  -6.1  100   -6.1  0     0     996.8    NA       0.0000   9999     3310  3900  0    
2019/08/14  07:09:00  BASE  5.50368  271  6.92664  275  -6.1  100   -6.1  0     0     996.8    NA       0.0000   9999     3580  0     0    
2019/08/14  07:10:00  BASE  5.24496  273  6.92664  275  -6.1  100   -6.1  0     0     996.8    NA       0.0000   9999     3480  0     0    
2019/08/14  07:11:00  BASE  5.01564  272  6.92664  275  -6.1  100   -6.1  0     0     996.7    NA       0.0000   9999     3540  0     0    
2019/08/14  07:12:00  BASE  5.15676  269  6.92664  275  -6.2  100   -6.2  0     0     996.7    NA       0.0000   9999     3310  0     0    
2019/08/14  07:13:01  BASE  5.33316  271  6.92664  275  -6.2  100   -6.2  0     0     996.7    NA       0.0000   9999     3310  0     0    
2019/08/14  07:14:01  BASE  5.32728  270  6.92664  275  -6.2  100   -6.2  0     0     996.7    NA       0.0000   9999     3480  0     0    
2019/08/14  07:15:01  BASE  5.74476  266  6.86784  252  -6.2  100   -6.2  0     0     996.7    NA       0.0000   9999     3380  0     0    
2019/08/14  07:16:01  BASE  5.72712  263  6.86784  252  -6.2  100   -6.2  0     0     996.7    NA       0.0000   9999     3380  0     0    
2019/08/14  07:17:01  BASE  4.62756  264  6.86784  252  -6.2  100   -6.2  0     0     996.8    NA       0.0000   9999     3350  0     0    
2019/08/14  07:18:01  BASE  4.39236  265  6.86784  252  -6.1  100   -6.1  0     0     996.8    NA       0.0000   9999     3350  0     0    
2019/08/14  07:19:01  BASE  4.56876  267  6.86784  252  -6.1  100   -6.1  0     0     996.8    NA       0.0000   9999     3310  0     0    
2019/08/14  07:20:01  BASE  4.39236  263  6.86784  252  -6.1  100   -6.1  0     0     996.8    NA       0.0000   9999     3280  0     0    
2019/08/14  07:21:01  BASE  4.85688  263  6.86784  252  -6.1  100   -6.1  0     0     996.8    NA       0.0000   9999     3280  0     0    
2019/08/14  07:22:01  BASE  5.63892  266  7.3206   271  -6.0  100   -6.0  0     0     996.8    NA       0.0000   9999     3310  0     0    
2019/08/14  07:23:01  BASE  5.92704  265  7.3206   271  -6.0  100   -6.0  0     0     996.8    NA       0.0000   9999     3310  0     0    
2019/08/14  07:24:01  BASE  5.439    266  7.3206   271  -6.0  100   -6.0  0     0     996.8    NA       0.0000   9999     3310  0     0    
2019/08/14  07:25:01  BASE  5.10384  269  7.3206   271  -6.0  100   -6.0  0     0     996.8    NA       0.0000   9999     3280  0     0    
2019/08/14  07:26:01  BASE  4.80984  267  7.3206   271  -6.0  100   -6.0  0     0     996.8    NA       0.0000   9999     3280  0     0    
2019/08/14  07:27:01  BASE  4.49232  266  7.3206   271  -6.0  100   -6.0  0     0     996.8    NA       0.0000   9999     3280  0     0    
2019/08/14  07:28:01  BASE  4.704    268  7.3206   271  -6.0  100   -6.0  0     0     996.8    NA       0.0000   9999     3250  0     0    
2019/08/14  07:29:01  BASE  4.92744  267  7.3206   271  -6.0  100   -6.0  0     0     996.8    NA       0.0000   9999     3250  0     0    
2019/08/14  07:30:01  BASE  5.27436  268  7.3206   271  -6.0  100   -6.0  0     0     996.7    NA       0.0000   9999     3220  0     0    
2019/08/14  07:31:01  BASE  5.75064  265  7.3206   271  -6.0  100   -6.0  0     0     996.8    NA       0.0000   9999     3150  0     0    
2019/08/14  07:32:01  BASE  5.73888  261  7.19712  266  -6.0  100   -6.0  0     0     996.8    NA       0.0000   9999     3150  0     0    
2019/08/14  07:33:01  BASE  5.90352  258  7.2912   256  -6.0  100   -6.0  0     0     996.8    NA       0.0000   9999     3120  0     0    
2019/08/14  07:34:01  BASE  6.2622   256  7.3794   255  -6.0  100   -6.0  0     0     996.7    NA       0.0000   9999     3120  0     0    
2019/08/14  07:35:01  BASE  6.24456  256  7.3794   255  -6.0  100   -6.0  0     0     996.8    NA       0.0000   9999     3120  0     0    
2019/08/14  07:36:01  BASE  5.53896  257  7.3794   255  -6.0  100   -6.0  0     0     996.7    NA       0.0000   9999     3120  0     0    
2019/08/14  07:37:01  BASE  4.50408  261  7.3794   255  -6.0  100   -6.0  0     0     996.7    NA       0.0000   9999     3120  0     0    
2019/08/14  07:38:01  BASE  4.28652  264  7.3794   255  -5.9  100   -5.9  0     0     996.7    NA       0.0000   9999     3080  0     0    
2019/08/14  07:39:01  BASE  5.31552  262  7.3794   255  -5.9  100   -5.9  0     0     996.7    NA       0.0000   9999     3080  0     0    
2019/08/14  07:40:01  BASE  5.78592  261  7.3794   255  -5.9  100   -5.9  0     0     996.8    NA       0.0000   9999     3080  0     0    
2019/08/14  07:41:01  BASE  4.83924  262  7.3794   255  -5.9  100   -5.9  0     0     996.8    NA       0.0000   9999     3050  0     0    
2019/08/14  07:42:01  BASE  4.49232  263  7.3794   255  -5.9  100   -5.9  0     0     996.8    NA       0.0000   9999     3050  0     0    
2019/08/14  07:43:01  BASE  4.7922   264  7.3794   255  -5.8  100   -5.8  0     0     996.8    NA       0.0000   9999     3080  0     0    
2019/08/14  07:44:01  BASE  4.88628  265  7.05012  257  -5.8  100   -5.8  0     0     996.8    NA       0.0000   9999     3020  0     0    
2019/08/14  07:45:01  BASE  4.66284  268  7.05012  257  -5.8  100   -5.8  0     0     996.7    NA       0.0000   9999     2990  0     0    
2019/08/14  07:46:01  BASE  4.32768  270  7.05012  257  -5.8  100   -5.8  0     0     996.7    NA       0.0000   9999     2990  0     0    
2019/08/14  07:47:01  BASE  4.48056  267  7.05012  257  -5.8  100   -5.8  0     0     996.7    NA       0.0000   9999     3020  3510  0    
2019/08/14  07:48:01  BASE  5.145    267  7.05012  257  -5.8  100   -5.8  0     0     996.6    NA       0.0000   9999     3450  0     0    
2019/08/14  07:49:01  BASE  5.26848  266  6.53268  256  -5.8  100   -5.8  0     0     996.6    NA       0.0000   9999     3450  0     0    
2019/08/14  07:50:01  BASE  4.6746   264  6.3798   269  -5.8  100   -5.8  0     0     996.6    NA       0.0000   9999     3450  0     0    
2019/08/14  07:51:01  BASE  4.35708  267  6.3798   269  -5.8  100   -5.8  0     0     996.6    NA       0.0000   9999     3410  0     0    
2019/08/14  07:52:01  BASE  4.59816  270  6.3798   269  -5.8  100   -5.8  0     0     996.6    NA       0.0000   9999     3380  0     0    
2019/08/14  07:53:01  BASE  4.8216   271  6.2328   264  -5.8  100   -5.8  0     0     996.6    NA       0.0000   9999     3410  0     0    
2019/08/14  07:54:01  BASE  4.48644  273  6.2328   264  -5.8  100   -5.8  0     0     996.6    NA       0.0000   9999     3280  0     0    
2019/08/14  07:55:01  BASE  4.39236  276  6.2328   264  -5.7  100   -5.7  0     0     996.6    NA       0.0000   9999     3310  0     0    
2019/08/14  07:56:01  BASE  4.86276  276  6.2328   264  -5.7  100   -5.7  0     0     996.5    NA       0.0000   9999     3450  0     0    
2019/08/14  07:57:01  BASE  5.09208  272  6.44448  261  -5.7  100   -5.7  0     0     996.6    NA       0.0000   9999     3410  0     0    
2019/08/14  07:58:01  BASE  4.66284  268  6.44448  261  -5.7  100   -5.7  0     0     996.6    NA       0.0000   9999     3410  0     0    
2019/08/14  07:59:01  BASE  4.72752  272  6.44448  261  -5.7  100   -5.7  0     0     996.5    NA       0.0000   9999     3480  0     0    
2019/08/14  08:00:01  BASE  4.98036  275  6.44448  261  -5.7  100   -5.7  0     0     996.6    NA       0.0000   9999     3510  0     0    
2019/08/14  08:01:01  BASE  4.68636  275  6.44448  261  -5.7  100   -5.7  0     0     996.6    NA       0.0000   9999     3540  0     0    
2019/08/14  08:02:01  BASE  4.39236  272  6.44448  261  -5.7  100   -5.7  0     0     996.6    NA       0.0000   9999     3540  0     0    
2019/08/14  08:03:01  BASE  4.48644  269  6.44448  261  -5.7  100   -5.7  0     0     996.6    NA       0.0000   9999     3640  0     0    
2019/08/14  08:04:01  BASE  4.30416  265  6.44448  261  -5.7  100   -5.7  0     0     996.6    NA       0.0000   9999     3610  0     0    
2019/08/14  08:05:01  BASE  4.09248  259  6.44448  261  -5.7  100   -5.7  0     0     996.6    NA       0.0000   9999     3580  0     0    
2019/08/14  08:06:01  BASE  4.31592  257  6.44448  261  -5.7  100   -5.7  0     0     996.6    NA       0.0000   9999     3610  0     0    
2019/08/14  08:07:01  BASE  4.25712  255  6.321    251  -5.7  100   -5.7  0     0     996.5    NA       0.0000   9999     3610  0     0    
2019/08/14  08:08:01  BASE  4.41     255  6.321    251  -5.6  100   -5.6  0     0     996.5    NA       0.0000   9999     3610  0     0    
2019/08/14  08:09:01  BASE  4.19832  253  6.321    251  -5.6  100   -5.6  0     0     996.5    NA       0.0000   9999     3580  0     0    
2019/08/14  08:10:01  BASE  3.7044   249  6.321    251  -5.7  100   -5.7  0     0     996.5    NA       0.0000   9999     3580  0     0    
2019/08/14  08:11:01  BASE  3.50448  248  6.321    251  -5.7  100   -5.7  0     0     996.5    NA       0.0000   9999     850   3580  0    
2019/08/14  08:12:01  BASE  2.68128  253  6.321    251  -5.7  100   -5.7  0     0     996.6    NA       0.0000   9999     820   3580  0    
2019/08/14  08:13:01  BASE  2.29908  258  5.74476  254  -5.7  100   -5.7  0     0     996.6    NA       0.0000   9999     850   0     0    
2019/08/14  08:14:01  BASE  1.8228   267  5.74476  254  -5.7  100   -5.7  0     0     996.6    NA       0.0000   9999     820   0     0    
2019/08/14  08:15:01  BASE  0.52332  277  5.74476  254  -5.7  100   -5.7  0     0     996.5    NA       0.0000   9999     890   3080  0    
2019/08/14  08:16:01  BASE  0        291  5.74476  254  -5.6  100   -5.6  0     0     996.5    NA       0.0000   9999     820   0     0    
2019/08/14  08:17:01  BASE  0.02352  19   5.74476  254  -5.6  100   -5.6  0     0     996.5    NA       0.0000   9999     850   0     0    
2019/08/14  08:18:01  BASE  0.4998   86   4.35708  251  -5.6  100   -5.6  0     0     996.5    NA       0.0000   9999     850   0     0    
2019/08/14  08:19:01  BASE  0.93492  81   4.1454   252  -5.6  100   -5.6  0     0     996.4    NA       0.0000   9999     850   0     0    
2019/08/14  08:20:01  BASE  1.09956  66   3.78084  245  -5.6  100   -5.6  0     0     996.4    NA       0.0000   9999     820   0     0    
2019/08/14  08:21:01  BASE  1.18776  42   3.1458   252  -5.6  100   -5.6  0     0     996.4    NA       0.0000   9999     850   0     0    
2019/08/14  08:22:01  BASE  0.92316  6    3.1458   252  -5.6  100   -5.6  0     0     996.4    NA       0.0000   9999     790   0     0    
2019/08/14  08:23:01  BASE  0.78204  314  1.75224  48   -5.6  100   -5.6  0     0     996.4    NA       0.0000   9999     820   0     0    
2019/08/14  08:24:01  BASE  0.71148  274  1.75224  48   -5.6  100   -5.6  0     0     996.5    NA       0.0000   9999     820   0     0    
2019/08/14  08:25:01  BASE  0.97608  275  1.81692  276  -5.6  100   -5.6  0     0     996.5    NA       0.0000   9999     790   0     0    
2019/08/14  08:26:01  BASE  1.75224  266  2.42256  261  -5.6  100   -5.6  0     0     996.5    NA       0.0000   9999     850   0     0    
2019/08/14  08:27:01  BASE  2.04036  261  2.42256  261  -5.6  100   -5.6  0     0     996.5    NA       0.0000   9999     790   0     0    
2019/08/14  08:28:01  BASE  1.911    268  2.42256  261  -5.6  100   -5.6  0     0     996.4    NA       0.0000   9999     790   0     0    
2019/08/14  08:29:01  BASE  1.71696  267  2.42256  261  -5.6  100   -5.6  0     0     996.4    NA       0.0000   9999     820   0     0    
2019/08/14  08:30:01  BASE  1.35828  271  2.42256  261  -5.6  100   -5.6  0     0     996.4    NA       0.0000   9999     790   0     0    
2019/08/14  08:31:01  BASE  1.3524   295  2.42256  261  -5.6  100   -5.6  0     0     996.4    NA       0.0000   9999     750   0     0    
2019/08/14  08:32:01  BASE  1.57584  297  2.42256  261  -5.6  100   -5.6  0     0     996.5    NA       0.0000   9999     790   0     0    
2019/08/14  08:33:01  BASE  1.43472  281  2.42256  261  -5.6  100   -5.6  0     0     996.5    NA       0.0000   9999     660   0     0    
2019/08/14  08:34:01  BASE  1.47     274  2.42256  261  -5.6  100   -5.6  0     0     996.5    NA       0.0000   8000     390   0     0    
2019/08/14  08:35:01  BASE  1.8228   272  2.42256  261  -5.6  100   -5.6  0     0     996.5    NA       0.0000   -SN      7000  360   0    
2019/08/14  08:36:01  BASE  2.16972  279  2.78124  281  -5.5  100   -5.5  0     0     996.5    NA       0.0000   -SN      6000  360   0    
2019/08/14  08:37:01  BASE  2.205    281  2.78124  281  -5.5  100   -5.5  0     0     996.5    NA       0.0000   -SN      7000  360   0    
2019/08/14  08:38:01  BASE  2.19324  276  2.78124  281  -5.5  100   -5.5  0     0     996.6    NA       0.0000   -SN      BR    5000  330  
2019/08/14  08:39:01  BASE  2.42844  267  2.90472  254  -5.5  100   -5.5  0     0     996.7    NA       0.0000   -SN      BR    4200  360  
2019/08/14  08:40:01  BASE  2.2344   261  2.90472  254  -5.5  100   -5.5  0     0     996.7    NA       0.0000   -SN      BR    6000  360  
2019/08/14  08:41:01  BASE  2.47548  259  3.1752   259  -5.5  100   -5.5  0     0     996.7    NA       0.0000   -SN      BR    7000  360  
2019/08/14  08:42:01  BASE  2.75772  258  3.1752   259  -5.5  100   -5.5  0     0     996.7    NA       0.0000   -SN      BR    8000  390  
2019/08/14  08:43:01  BASE  2.72832  253  3.48096  242  -5.5  100   -5.5  0     0     996.8    NA       0.0000   -SN      BR    9999  390  
2019/08/14  08:44:01  BASE  2.69892  249  3.48096  242  -5.5  100   -5.5  0     0     996.8    NA       0.0000   -SN      BR    9999  390  
2019/08/14  08:45:01  BASE  2.66364  250  3.48096  242  -5.5  100   -5.5  0     0     996.8    NA       0.0000   -SN      BR    7000  720  
2019/08/14  08:46:01  BASE  2.95176  251  3.48096  242  -5.5  100   -5.5  0     0     996.8    NA       0.0000   -SN      BR    8000  430  
2019/08/14  08:47:01  BASE  3.24576  257  3.75144  259  -5.5  100   -5.5  0     0     996.8    NA       0.0000   -SN      BR    8000  430  
2019/08/14  08:48:01  BASE  3.28104  262  3.75144  259  -5.5  100   -5.5  0     0     996.9    NA       0.0000   -SN      BR    6000  390  
2019/08/14  08:49:01  BASE  3.08112  263  3.75144  259  -5.5  100   -5.5  0     0     997.0    NA       0.0000   -SN      BR    6000  390  
2019/08/14  08:50:01  BASE  3.1164   262  3.86904  254  -5.5  100   -5.5  0     0     997.0    NA       0.0000   -SN      BR    6000  390  
2019/08/14  08:51:01  BASE  3.11052  256  3.86904  254  -5.5  100   -5.5  0     0     997.0    NA       0.0000   -SN      BR    5000  360  
2019/08/14  08:52:01  BASE  3.0282   251  3.86904  254  -5.5  100   -5.5  0     0     997.0    NA       0.0000   -SN      BR    5000  330  
2019/08/14  08:53:01  BASE  3.30456  252  3.93372  250  -5.4  100   -5.4  0     0     997.0    NA       0.0000   -SN      BR    4900  330  
2019/08/14  08:54:01  BASE  3.19872  251  3.93372  250  -5.4  100   -5.4  0     0     997.0    NA       0.0000   -SN      BR    4800  300  
2019/08/14  08:55:01  BASE  2.86944  251  3.93372  250  -5.4  100   -5.4  0     0     997.0    NA       0.0000   -SN      BR    4300  300  
2019/08/14  08:56:01  BASE  2.84004  257  3.93372  250  -5.4  100   -5.4  0     0     997.1    NA       0.0000   -SN      BR    3600  300  
2019/08/14  08:57:01  BASE  2.87532  256  3.93372  250  -5.4  100   -5.4  0     0     997.1    NA       0.0000   -SN      BR    3600  330  
2019/08/14  08:58:01  BASE  2.86356  245  3.93372  250  -5.4  100   -5.4  0     0     997.1    NA       0.0000   -SN      BR    3700  300  
2019/08/14  08:59:01  BASE  2.8518   238  3.93372  250  -5.4  100   -5.4  0     0     997.1    NA       0.0000   -SN      BR    3700  300  
2019/08/14  09:00:01  BASE  2.80476  236  3.93372  250  -5.4  100   -5.4  0     0     997.1    NA       0.0000   -SN      BR    3000  300  
2019/08/14  09:01:01  BASE  2.79888  234  3.93372  250  -5.4  100   -5.4  0     0     997.1    NA       0.0000   -SN      BR    2700  300  
2019/08/14  09:02:01  BASE  3.0576   237  3.93372  250  -5.4  100   -5.4  0     0     997.0    NA       0.0000   -SN      BR    2700  300  
2019/08/14  09:03:01  BASE  3.19284  240  3.90432  242  -5.4  100   -5.4  0     0     997.1    NA       0.0000   -SN      BR    2800  300  
2019/08/14  09:04:01  BASE  2.85768  242  3.90432  242  -5.4  100   -5.4  0     0     997.0    NA       0.0000   -SN      BR    3300  300  
2019/08/14  09:05:01  BASE  2.34024  244  3.90432  242  -5.4  100   -5.4  0     0     997.0    NA       0.0000   -SN      BR    2800  300  
2019/08/14  09:06:01  BASE  2.22264  243  3.90432  242  -5.4  100   -5.4  0     0     997.0    NA       0.0000   -SN      BR    2900  330  
2019/08/14  09:07:01  BASE  2.44608  238  3.90432  242  -5.4  100   -5.4  0     0     997.0    NA       0.0000   -SN      BR    3200  330  
2019/08/14  09:08:01  BASE  2.33436  235  3.90432  242  -5.4  100   -5.4  0     0     997.0    NA       0.0000   -SN      BR    3200  330  
2019/08/14  09:09:01  BASE  2.04036  241  3.90432  242  -5.4  100   -5.4  0     0     996.9    NA       0.0000   -SN      BR    3500  330  
2019/08/14  09:10:01  BASE  1.89924  251  3.90432  242  -5.4  100   -5.4  0     0     996.8    NA       0.0000   -SN      BR    3700  330  
2019/08/14  09:11:01  BASE  1.8228   253  3.90432  242  -5.4  100   -5.4  0     0     996.8    NA       0.0000   -SN      BR    4100  360  
2019/08/14  09:12:01  BASE  1.82868  250  3.75144  231  -5.4  100   -5.4  0     0     996.9    NA       0.0000   -SN      BR    5000  360  
2019/08/14  09:13:01  BASE  1.81692  248  2.96352  233  -5.4  100   -5.4  0     0     997.0    NA       0.0000   -SN      BR    6000  390  
2019/08/14  09:14:01  BASE  1.86984  246  2.96352  233  -5.4  100   -5.4  0     0     997.0    NA       0.0000   -SN      BR    8000  790  
2019/08/14  09:15:01  BASE  1.87572  255  2.96352  233  -5.4  100   -5.4  0     0     997.0    NA       0.0000   -SN      BR    9999  820  
2019/08/14  09:16:01  BASE  1.84044  263  2.96352  233  -5.4  100   -5.4  0     0     997.0    NA       0.0000   -SN      BR    9999  890  
2019/08/14  09:17:01  BASE  2.07564  257  2.69304  234  -5.4  100   -5.4  0     0     997.0    NA       0.0000   -SN      BR    9999  950  
2019/08/14  09:18:01  BASE  2.29908  253  2.63424  254  -5.4  100   -5.4  0     0     997.0    NA       0.0000   -SN      BR    9999  890  
2019/08/14  09:19:01  BASE  2.31084  256  2.63424  254  -5.4  100   -5.4  0     0     997.0    NA       0.0000   -SN      BR    9999  1250 
2019/08/14  09:20:01  BASE  2.2932   262  2.63424  254  -5.4  100   -5.4  0     0     997.0    NA       0.0000   -SN      BR    9999  1150 
2019/08/14  09:21:01  BASE  2.1462   261  2.63424  254  -5.4  100   -5.4  0     0     997.0    NA       0.0000   -SN      BR    9999  1120 
2019/08/14  09:22:01  BASE  2.05212  258  2.63424  254  -5.4  100   -5.4  0     0     997.0    NA       0.0000   -SN      9999  790   0    
2019/08/14  09:23:01  BASE  1.80516  267  2.63424  254  -5.4  100   -5.4  0     0     997.0    NA       0.0000   -SN      9999  820   0    
2019/08/14  09:24:01  BASE  1.7052   278  2.63424  254  -5.3  100   -5.3  0     0     997.0    NA       0.0000   -SN      9999  820   0    
2019/08/14  09:25:01  BASE  2.18148  281  2.93412  279  -5.3  100   -5.3  0     0     997.0    NA       0.0000   -SN      9999  790   0    
2019/08/14  09:26:01  BASE  2.41668  277  2.93412  279  -5.3  100   -5.3  0     0     997.0    NA       0.0000   -SN      9999  820   0    
2019/08/14  09:27:01  BASE  2.36964  276  2.93412  279  -5.3  100   -5.3  0     0     997.0    NA       0.0000   -SN      9999  790   0    
2019/08/14  09:28:01  BASE  2.28144  277  2.93412  279  -5.3  100   -5.3  0     0     996.9    NA       0.0000   -SN      9999  820   0    
2019/08/14  09:29:01  BASE  2.45196  277  3.02232  275  -5.3  100   -5.3  0     0     996.8    NA       0.0000   -SN      9999  850   1310 
2019/08/14  09:30:01  BASE  2.60484  278  3.02232  275  -5.3  100   -5.3  0     0     996.8    NA       0.0000   -SN      9999  980   1710 
2019/08/14  09:31:01  BASE  2.36376  280  3.02232  275  -5.3  100   -5.3  0     0     996.7    NA       0.0000   -SN      9999  1020  0    
2019/08/14  09:32:01  BASE  2.46372  281  3.1164   287  -5.3  100   -5.3  0     0     996.6    NA       0.0000   -SN      9999  790   0    
2019/08/14  09:33:01  BASE  2.43432  279  3.1164   287  -5.3  100   -5.3  0     0     996.6    NA       0.0000   -SN      9999  660   2000 
2019/08/14  09:34:01  BASE  2.24616  285  3.1164   287  -5.3  100   -5.3  0     0     996.6    NA       0.0000   -SN      9999  430   0    
2019/08/14  09:35:01  BASE  2.42844  299  3.1164   287  -5.3  100   -5.3  0     0     996.6    NA       0.0000   -SN      9999  390   0    
2019/08/14  09:36:01  BASE  2.54604  307  3.1164   287  -5.3  100   -5.3  0     0     996.6    NA       0.0000   -SN      9999  850   0    
2019/08/14  09:37:01  BASE  2.44608  309  3.1164   287  -5.3  100   -5.3  0     0     996.6    NA       0.0000   -SN      9999  820   0    
2019/08/14  09:38:01  BASE  2.45784  301  3.1164   287  -5.2  100   -5.2  0     0     996.5    NA       0.0000   -SN      9999  390   0    
2019/08/14  09:39:01  BASE  2.65776  293  3.1458   299  -5.2  100   -5.2  0     0     996.5    NA       0.0000   -SN      9999  390   0    
2019/08/14  09:40:01  BASE  2.6754   294  3.1458   299  -5.2  100   -5.2  0     0     996.5    NA       0.0000   -SN      9999  980   0    
2019/08/14  09:41:01  BASE  2.49312  302  3.29868  303  -5.2  100   -5.2  0     0     996.4    NA       0.0000   -SN      9999  920   0    
2019/08/14  09:42:01  BASE  2.77536  301  3.35748  295  -5.2  100   -5.2  0     0     996.4    NA       0.0000   -SN      9999  1050  0    
2019/08/14  09:43:01  BASE  2.98704  297  3.35748  295  -5.2  100   -5.2  0     0     996.4    NA       0.0000   -SN      9999  1020  0    
2019/08/14  09:44:01  BASE  2.97528  304  3.35748  295  -5.2  100   -5.2  0     0     996.3    NA       0.0000   -SN      9999  980   0    
2019/08/14  09:45:01  BASE  3.00468  312  3.35748  295  -5.2  100   -5.2  0     0     996.3    NA       0.0000   -SN      9999  950   0    
2019/08/14  09:46:01  BASE  2.85768  309  3.35748  295  -5.2  100   -5.2  0     0     996.3    NA       0.0000   -SN      9999  980   0    
2019/08/14  09:47:01  BASE  2.7636   310  3.35748  295  -5.2  100   -5.2  0     0     996.3    NA       0.0000   -SN      9999  920   0    
2019/08/14  09:48:01  BASE  2.89884  311  3.35748  295  -5.2  100   -5.2  0     0     996.3    NA       0.0000   -SN      9999  950   0    
2019/08/14  09:49:01  BASE  3.10464  310  3.35748  295  -5.2  100   -5.2  0     0     996.3    NA       0.0000   -SN      9999  890   0    
2019/08/14  09:50:01  BASE  3.1458   309  3.35748  295  -5.2  100   -5.2  0     0     996.3    NA       0.0000   -SN      9999  4170  0    
2019/08/14  09:51:01  BASE  3.28692  303  3.65736  302  -5.2  100   -5.2  0     0     996.3    NA       0.0000   9999     920   4300  0    
2019/08/14  09:52:01  BASE  3.28104  303  3.65736  302  -5.2  100   -5.2  0     0     996.3    NA       0.0000   9999     4330  5380  0    
2019/08/14  09:53:01  BASE  3.21636  307  3.65736  302  -5.2  100   -5.2  0     0     996.3    NA       0.0000   9999     1050  1640  0    
2019/08/14  09:54:01  BASE  3.26928  311  3.65736  302  -5.2  100   -5.2  0     0     996.3    NA       0.0000   9999     1080  4530  0    
2019/08/14  09:55:01  BASE  3.28104  311  3.65736  302  -5.2  100   -5.2  0     0     996.3    NA       0.0000   9999     1080  4530  0    
2019/08/14  09:56:01  BASE  3.42216  306  3.78084  302  -5.2  100   -5.2  0     0     996.2    NA       0.0000   9999     1020  0     0    
2019/08/14  09:57:01  BASE  3.4986   305  3.78084  302  -5.2  100   -5.2  0     0     996.1    NA       0.0000   9999     1050  5180  0    
2019/08/14  09:58:01  BASE  3.37512  309  3.78084  302  -5.2  100   -5.2  0     0     996.1    NA       0.0000   9999     920   5220  0    
2019/08/14  09:59:01  BASE  3.18108  310  3.78084  302  -5.2  100   -5.2  0     0     996.1    NA       0.0000   9999     980   0     0    
2019/08/14  10:00:01  BASE  3.2046   309  3.78084  302  -5.2  100   -5.2  0     0     996.0    NA       0.0000   9999     950   0     0    
2019/08/14  10:01:01  BASE  3.29868  310  3.78084  302  -5.2  100   -5.2  0     0     996.0    NA       0.0000   9999     890   0     0    
2019/08/14  10:02:01  BASE  3.39276  317  4.2042   328  -5.2  100   -5.2  0     0     996.0    NA       0.0000   9999     820   0     0    
2019/08/14  10:03:01  BASE  3.81024  324  4.35708  324  -5.2  100   -5.2  0     0     996.0    NA       0.0000   -SN      9999  820   0    
2019/08/14  10:04:01  BASE  4.0278   325  4.35708  324  -5.1  100   -5.1  0     0     996.0    NA       0.0000   -SN      9999  850   0    
2019/08/14  10:05:01  BASE  3.71616  327  4.35708  324  -5.1  100   -5.1  0     0     996.0    NA       0.0000   -SN      9999  1150  4360 
2019/08/14  10:06:01  BASE  3.55152  330  4.35708  324  -5.1  100   -5.1  0     0     996.0    NA       0.0000   -SN      9999  1080  4300 
2019/08/14  10:07:01  BASE  3.90432  327  4.35708  322  -5.2  100   -5.2  0     0     996.0    NA       0.0000   -SN      9999  4400  0    
2019/08/14  10:08:01  BASE  4.09836  326  4.35708  322  -5.2  100   -5.2  0     0     996.0    NA       0.0000   -SN      9999  820   4690 
2019/08/14  10:09:01  BASE  3.81024  330  4.35708  322  -5.2  100   -5.2  0     0     996.0    NA       0.0000   -SN      9999  850   4590 
2019/08/14  10:10:01  BASE  3.58092  330  4.35708  322  -5.2  100   -5.2  0     0     996.0    NA       0.0000   -SN      9999  1310  4530 
2019/08/14  10:11:01  BASE  3.45156  326  4.35708  322  -5.2  100   -5.2  0     0     996.0    NA       0.0000   -SN      9999  1210  4460 
2019/08/14  10:12:01  BASE  3.55152  324  4.35708  322  -5.1  100   -5.1  0     0     996.0    NA       0.0000   9999     1020  4300  0    
2019/08/14  10:13:01  BASE  3.81024  324  4.35708  322  -5.1  100   -5.1  0     0     996.0    NA       0.0000   9999     850   4630  0    
2019/08/14  10:14:01  BASE  3.75144  328  4.35708  322  -5.1  100   -5.1  0     0     995.9    NA       0.0000   9999     790   4760  0    
2019/08/14  10:15:01  BASE  3.72204  334  4.35708  322  -5.1  100   -5.1  0     0     995.9    NA       0.0000   9999     890   4430  0    
2019/08/14  10:16:01  BASE  3.92196  337  4.35708  322  -5.1  100   -5.1  0     0     995.9    NA       0.0000   9999     4100  0     0    
2019/08/14  10:17:01  BASE  4.00428  335  4.29828  327  -5.1  100   -5.1  0     0     995.8    NA       0.0000   9999     1120  4040  0    
2019/08/14  10:18:01  BASE  3.6162   335  4.263    332  -5.1  100   -5.1  0     0     995.9    NA       0.0000   9999     980   3870  0    
2019/08/14  10:19:01  BASE  3.30456  340  4.263    332  -5.1  100   -5.1  0     0     995.9    NA       0.0000   9999     1080  4690  0    
2019/08/14  10:20:00  BASE  3.37512  339  4.263    332  -5.1  100   -5.1  0     0     995.9    NA       0.0000   9999     1050  4690  0    
2019/08/14  10:21:00  BASE  3.48096  334  4.263    332  -5.1  100   -5.1  0     0     995.9    NA       0.0000   9999     1120  4690  0    
2019/08/14  10:22:01  BASE  3.53976  333  4.263    332  -5.1  100   -5.1  0     0     995.9    NA       0.0000   9999     1120  4590  0    
2019/08/14  10:23:00  BASE  3.35748  335  4.263    332  -5.1  100   -5.1  0     0     996.0    NA       0.0000   9999     4560  0     0    
2019/08/14  10:24:01  BASE  3.16932  335  4.263    332  -5.1  100   -5.1  0     0     996.0    NA       0.0000   9999     1050  4530  0    
2019/08/14  10:25:01  BASE  3.35748  337  4.263    332  -5.1  100   -5.1  0     0     996.0    NA       0.0000   9999     1050  4400  0    
2019/08/14  10:26:01  BASE  3.39276  340  4.263    332  -5.1  100   -5.1  0     0     996.0    NA       0.0000   9999     890   4200  0    
2019/08/14  10:27:01  BASE  3.19872  346  3.83964  337  -5.1  100   -5.1  0     0     995.9    NA       0.0000   9999     1180  4130  0    
2019/08/14  10:28:01  BASE  3.06936  351  3.83964  337  -5.1  100   -5.1  0     0     995.9    NA       0.0000   9999     980   4040  0    
2019/08/14  10:29:01  BASE  2.93412  352  3.83964  337  -5.1  100   -5.1  0     0     995.9    NA       0.0000   9999     1050  3940  0    
2019/08/14  10:30:01  BASE  2.88708  355  3.83964  337  -5.1  100   -5.1  0     0     995.8    NA       0.0000   9999     920   0     0    
2019/08/14  10:31:01  BASE  2.88708  0    3.81024  339  -5.1  100   -5.1  0     0     995.8    NA       0.0000   9999     890   0     0    
2019/08/14  10:32:01  BASE  2.98704  4    3.81024  339  -5.2  100   -5.2  0     0     995.8    NA       0.0000   9999     850   0     0    
2019/08/14  10:33:01  BASE  3.4104   7    3.96312  10   -5.2  100   -5.2  0     0     995.7    NA       0.0000   9999     850   3740  0    
2019/08/14  10:34:01  BASE  3.81024  9    4.1454   10   -5.2  100   -5.2  0     0     995.6    NA       0.0000   9999     820   0     0    
2019/08/14  10:35:01  BASE  3.8514   12   4.1454   10   -5.2  100   -5.2  0     0     995.5    NA       0.0000   9999     750   0     0    
2019/08/14  10:36:01  BASE  3.92196  13   4.1748   15   -5.2  100   -5.2  0     0     995.5    NA       0.0000   9999     790   0     0    
2019/08/14  10:37:00  BASE  4.19244  12   4.62756  10   -5.2  100   -5.2  0     0     995.5    NA       0.0000   9999     750   0     0    
2019/08/14  10:38:01  BASE  4.15716  12   4.62756  10   -5.2  100   -5.2  0     0     995.5    NA       0.0000   9999     890   0     0    
2019/08/14  10:39:01  BASE  3.9396   13   4.62756  10   -5.2  100   -5.2  0     0     995.5    NA       0.0000   9999     820   0     0    
2019/08/14  10:40:01  BASE  3.84552  12   4.62756  10   -5.2  100   -5.2  0     0     995.5    NA       0.0000   9999     790   0     0    
2019/08/14  10:41:00  BASE  3.90432  12   4.62756  10   -5.2  100   -5.2  0     0     995.5    NA       0.0000   9999     750   0     0    
2019/08/14  10:42:00  BASE  3.98664  12   4.62756  10   -5.2  100   -5.2  0     0     995.5    NA       0.0000   9999     890   0     0    
2019/08/14  10:43:00  BASE  3.86904  8    4.62756  10   -5.2  100   -5.2  0     0     995.5    NA       0.0000   9999     820   1350  0    
2019/08/14  10:44:01  BASE  3.7926   6    4.62756  10   -5.1  100   -5.1  0     0     995.5    NA       0.0000   9999     720   0     0    
2019/08/14  10:45:00  BASE  3.80436  6    4.62756  10   -5.1  100   -5.1  0     0     995.5    NA       0.0000   9999     850   0     0    
2019/08/14  10:46:00  BASE  3.86316  2    4.62756  10   -5.1  100   -5.1  0     0     995.5    NA       0.0000   9999     890   3480  0    
2019/08/14  10:47:00  BASE  3.83964  0    4.32768  11   -5.1  100   -5.1  0     0     995.5    NA       0.0000   9999     850   1570  0    
2019/08/14  10:48:00  BASE  3.78672  4    4.32768  11   -5.1  100   -5.1  0     0     995.5    NA       0.0000   9999     950   0     0    
2019/08/14  10:49:00  BASE  3.91608  8    4.53936  6    -5.1  100   -5.1  0     0     995.4    NA       0.0000   9999     850   0     0    
2019/08/14  10:50:00  BASE  4.13952  10   4.53936  3    -5.1  100   -5.1  0     0     995.4    NA       0.0000   9999     790   0     0    
2019/08/14  10:51:00  BASE  4.1748   9    4.53936  3    -5.1  100   -5.1  0     0     995.4    NA       0.0000   9999     660   0     0    
2019/08/14  10:52:00  BASE  4.03956  6    4.53936  3    -5.1  100   -5.1  0     0     995.5    NA       0.0000   9999     850   0     0    
2019/08/14  10:53:00  BASE  3.89844  4    4.53936  3    -5.1  100   -5.1  0     0     995.5    NA       0.0000   9999     890   0     0    
2019/08/14  10:54:00  BASE  3.92784  4    4.59816  352  -5.1  100   -5.1  0     0     995.5    NA       0.0000   9999     820   0     0    
2019/08/14  10:55:00  BASE  4.16304  1    4.59816  1    -5.0  100   -5.0  0     0     995.5    NA       0.0000   9999     790   0     0    
2019/08/14  10:56:00  BASE  4.37472  359  4.86864  360  -5.0  100   -5.0  0     0     995.5    NA       0.0000   9999     820   0     0    
2019/08/14  10:57:00  BASE  4.47468  357  4.93332  351  -5.0  100   -5.0  0     0     995.4    NA       0.0000   9999     820   0     0    
2019/08/14  10:58:00  BASE  4.36884  357  4.93332  351  -5.0  100   -5.0  0     0     995.4    NA       0.0000   9999     750   0     0    
2019/08/14  10:59:00  BASE  4.39236  359  5.08032  3    -5.0  100   -5.0  0     0     995.4    NA       0.0000   9999     790   0     0    
2019/08/14  11:00:00  BASE  4.56876  0    5.08032  3    -5.0  100   -5.0  0     0     995.3    NA       0.0000   9999     720   0     0    
2019/08/14  11:01:00  BASE  4.59816  360  5.08032  3    -5.0  100   -5.0  0     0     995.3    NA       0.0000   9999     720   0     0    
2019/08/14  11:02:00  BASE  4.35708  0    5.08032  3    -5.0  100   -5.0  0     0     995.3    NA       0.0000   9999     720   3450  0    
2019/08/14  11:03:00  BASE  4.06896  3    5.08032  3    -5.1  100   -5.1  0     0     995.2    NA       0.0000   9999     820   3350  0    
2019/08/14  11:04:00  BASE  4.26888  4    5.08032  1    -5.1  100   -5.1  0     0     995.2    NA       0.0000   9999     750   3380  0    
2019/08/14  11:05:00  BASE  4.44528  3    5.08032  1    -5.1  100   -5.1  0     0     995.2    NA       0.0000   9999     750   0     0    
2019/08/14  11:06:00  BASE  4.40412  356  5.08032  1    -5.1  100   -5.1  0     0     995.2    NA       0.0000   9999     1080  3310  0    
2019/08/14  11:07:00  BASE  4.42176  352  5.08032  1    -5.1  100   -5.1  0     0     995.3    NA       0.0000   9999     560   3380  0    
2019/08/14  11:08:00  BASE  4.21008  351  5.08032  1    -5.0  100   -5.0  0     0     995.3    NA       0.0000   9999     520   3350  0    
2019/08/14  11:09:00  BASE  4.15128  349  5.08032  1    -5.0  100   -5.0  0     0     995.2    NA       0.0000   9999     490   3350  0    
2019/08/14  11:10:00  BASE  4.18656  346  5.08032  1    -5.0  100   -5.0  0     0     995.3    NA       0.0000   9999     390   1870  0    
2019/08/14  11:11:00  BASE  4.2042   343  5.08032  1    -4.9  100   -4.9  0     0     995.3    NA       0.0000   9999     1840  3380  0    
2019/08/14  11:12:00  BASE  4.26888  341  5.08032  1    -4.9  100   -4.9  0     0     995.3    NA       0.0000   9999     1510  3410  0    
2019/08/14  11:13:00  BASE  3.84552  340  5.08032  1    -4.9  100   -4.9  0     0     995.4    NA       0.0000   9999     1480  3380  0    
2019/08/14  11:14:00  BASE  3.53976  338  4.89804  360  -4.9  100   -4.9  0     0     995.4    NA       0.0000   9999     1410  0     0    
2019/08/14  11:15:00  BASE  3.68088  336  4.80984  343  -4.9  100   -4.9  0     0     995.4    NA       0.0000   9999     1280  0     0    
2019/08/14  11:16:00  BASE  3.75732  338  4.80984  343  -4.9  100   -4.9  0     0     995.4    NA       0.0000   9999     1280  0     0    
2019/08/14  11:17:00  BASE  3.68676  336  4.80984  343  -4.9  100   -4.9  0     0     995.4    NA       0.0000   9999     1050  0     0    
2019/08/14  11:18:00  BASE  3.56916  336  4.80984  343  -4.9  100   -4.9  0     0     995.4    NA       0.0000   9999     980   0     0    
2019/08/14  11:19:00  BASE  3.60444  336  4.80984  343  -4.9  100   -4.9  0     0     995.4    NA       0.0000   9999     920   0     0    
2019/08/14  11:20:00  BASE  3.86316  335  4.80984  343  -4.9  100   -4.9  0     0     995.4    NA       0.0000   9999     850   0     0    
2019/08/14  11:21:00  BASE  3.9102   334  4.80984  343  -4.9  100   -4.9  0     0     995.4    NA       0.0000   9999     790   0     0    
2019/08/14  11:22:00  BASE  3.83964  332  4.32768  337  -4.8  100   -4.8  0     0     995.4    NA       0.0000   9999     850   0     0    
2019/08/14  11:23:00  BASE  4.02192  335  4.80984  339  -4.8  100   -4.8  0     0     995.4    NA       0.0000   9999     850   0     0    
2019/08/14  11:24:00  BASE  4.34532  338  4.80984  338  -4.8  100   -4.8  0     0     995.3    NA       0.0000   9999     720   0     0    
2019/08/14  11:25:01  BASE  4.43352  337  4.83924  337  -4.8  100   -4.8  0     0     995.3    NA       0.0000   9999     850   0     0    
2019/08/14  11:26:00  BASE  4.41     337  5.10972  331  -4.8  100   -4.8  0     0     995.3    NA       0.0000   9999     790   0     0    
2019/08/14  11:27:00  BASE  4.69224  338  5.2038   339  -4.8  100   -4.8  0     0     995.2    NA       0.0000   9999     620   0     0    
2019/08/14  11:28:00  BASE  4.70988  338  5.2038   339  -4.8  100   -4.8  0     0     995.2    NA       0.0000   9999     620   0     0    
2019/08/14  11:29:00  BASE  4.62168  337  5.2038   342  -4.8  100   -4.8  0     0     995.1    NA       0.0000   9999     750   0     0    
2019/08/14  11:30:00  BASE  4.47468  339  5.2038   342  -4.8  100   -4.8  0     0     995.0    NA       0.0000   9999     750   0     0    
2019/08/14  11:31:00  BASE  4.24536  343  5.2038   342  -4.8  100   -4.8  0     0     995.0    NA       0.0000   9999     750   0     0    
2019/08/14  11:32:00  BASE  4.7922   347  6.321    347  -4.8  100   -4.8  0     0     994.8    NA       0.0000   9999     720   0     0    
2019/08/14  11:33:00  BASE  5.56836  344  6.321    347  -4.8  100   -4.8  0     0     994.7    NA       0.0000   9999     720   0     0    
2019/08/14  11:34:00  BASE  5.63304  339  6.321    347  -4.8  100   -4.8  0     0     994.7    NA       0.0000   9999     690   0     0    
2019/08/14  11:35:00  BASE  5.32728  338  6.321    347  -4.7  100   -4.7  0     0     994.8    NA       0.0000   9999     690   0     0    
2019/08/14  11:36:01  BASE  5.00976  340  6.321    347  -4.7  100   -4.7  0     0     994.8    NA       0.0000   9999     750   2890  0    
2019/08/14  11:37:00  BASE  5.0568   341  6.321    347  -4.7  100   -4.7  0     0     994.8    NA       0.0000   9999     790   2790  0    
2019/08/14  11:38:01  BASE  5.08032  343  6.321    347  -4.7  100   -4.7  0     0     994.9    NA       0.0000   9999     820   2760  0    
2019/08/14  11:39:00  BASE  5.24496  342  6.321    347  -4.7  100   -4.7  0     0     994.9    NA       0.0000   9999     750   2850  0    
2019/08/14  11:40:00  BASE  5.56248  336  6.321    347  -4.7  100   -4.7  0     0     994.9    NA       0.0000   9999     690   0     0    
2019/08/14  11:41:00  BASE  5.292    337  6.321    347  -4.7  100   -4.7  0     0     994.9    NA       0.0000   9999     590   0     0    
2019/08/14  11:42:01  BASE  5.27436  342  6.07992  337  -4.7  100   -4.7  0     0     994.9    NA       0.0000   9999     620   0     0    
2019/08/14  11:43:00  BASE  5.42136  346  6.02112  348  -4.7  100   -4.7  0     0     994.9    NA       0.0000   9999     690   2760  0    
2019/08/14  11:44:01  BASE  5.24496  348  6.02112  348  -4.7  100   -4.7  0     0     994.9    NA       0.0000   9999     1050  2690  0    
2019/08/14  11:45:00  BASE  4.8216   345  6.02112  348  -4.7  100   -4.7  0     0     995.0    NA       0.0000   9999     720   1510  0    
2019/08/14  11:46:00  BASE  4.56876  345  6.02112  348  -4.7  100   -4.7  0     0     995.0    NA       0.0000   9999     690   2820  0    
2019/08/14  11:47:00  BASE  4.63344  348  6.02112  348  -4.7  100   -4.7  0     0     995.0    NA       0.0000   9999     720   0     0    
2019/08/14  11:48:01  BASE  4.57464  351  6.02112  348  -4.7  100   -4.7  0     0     995.0    NA       0.0000   9999     750   1440  0    
2019/08/14  11:49:00  BASE  4.8216   351  6.02112  348  -4.7  100   -4.7  0     0     994.9    NA       0.0000   9999     720   1350  0    
2019/08/14  11:50:00  BASE  5.18616  350  6.02112  348  -4.7  100   -4.7  0     0     994.9    NA       0.0000   9999     980   2330  0    
2019/08/14  11:51:00  BASE  4.97448  350  6.02112  348  -4.7  100   -4.7  0     0     994.9    NA       0.0000   9999     430   2490  0    
2019/08/14  11:52:00  BASE  4.95096  347  5.95644  346  -4.7  100   -4.7  0     0     994.9    NA       0.0000   9999     390   0     0    
2019/08/14  11:53:00  BASE  5.25672  347  5.95644  346  -4.7  100   -4.7  0     0     994.9    NA       0.0000   9999     360   2360  0    
2019/08/14  11:54:01  BASE  5.04504  345  5.95644  346  -4.7  100   -4.7  0     0     994.9    NA       0.0000   9999     330   2300  0    
2019/08/14  11:55:00  BASE  4.68636  346  5.95644  346  -4.6  100   -4.6  0     0     994.9    NA       0.0000   9999     330   0     0    
2019/08/14  11:56:00  BASE  4.49232  352  5.95644  346  -4.6  100   -4.6  0     0     994.9    NA       0.0000   -SN      9999  330   2330 
2019/08/14  11:57:00  BASE  4.51584  353  5.95644  346  -4.6  100   -4.6  0     0     994.9    NA       0.0000   -SN      9999  330   2300 
2019/08/14  11:58:01  BASE  4.53936  349  5.95644  346  -4.7  100   -4.7  0     0     994.8    NA       0.0000   -SN      9999  330   0    
2019/08/14  11:59:00  BASE  4.25124  349  5.83884  348  -4.7  100   -4.7  0     0     994.8    NA       0.0000   -SN      9999  360   0    
2019/08/14  12:00:00  BASE  4.1454   351  5.71536  338  -4.7  100   -4.7  0     0     994.8    NA       0.0000   -SN      9999  360   0    
2019/08/14  12:01:00  BASE  4.28064  349  5.71536  338  -4.7  100   -4.7  0     0     994.7    NA       0.0000   -SN      9999  390   0    
2019/08/14  12:02:00  BASE  4.33944  348  5.71536  338  -4.7  100   -4.7  0     0     994.7    NA       0.0000   -SN      9999  360   0    
2019/08/14  12:03:00  BASE  4.37472  348  5.47428  346  -4.7  100   -4.7  0     0     994.7    NA       0.0000   -SN      9999  390   0    
2019/08/14  12:04:00  BASE  4.18068  348  5.47428  346  -4.7  100   -4.7  1     0     994.7    NA       0.0000   -SN      9999  0     0    
2019/08/14  12:05:00  BASE  3.87492  348  5.47428  346  -4.7  100   -4.7  0     0     994.7    NA       0.0000   -SN      9999  430   0    
2019/08/14  12:06:00  BASE  3.92196  345  5.47428  346  -4.7  100   -4.7  1     0     994.7    NA       0.0000   -SN      9999  390   0    
2019/08/14  12:07:00  BASE  4.09836  342  4.86864  346  -4.7  100   -4.7  1     0     994.7    NA       0.0000   -SN      9999  360   2360 
2019/08/14  12:08:00  BASE  4.18656  342  4.86864  346  -4.7  100   -4.7  1     0     994.7    NA       0.0000   -SN      9999  360   0    
2019/08/14  12:09:00  BASE  4.6746   343  5.3214   345  -4.6  100   -4.6  1     0     994.6    NA       0.0000   -SN      9999  360   0    
2019/08/14  12:10:00  BASE  5.15676  345  5.47428  346  -4.6  100   -4.6  1     0     994.6    NA       0.0000   -SN      9999  360   0    
2019/08/14  12:11:00  BASE  5.21556  343  5.99172  345  -4.6  100   -4.6  1     0     994.6    NA       0.0000   -SN      9999  360   0    
2019/08/14  12:12:00  BASE  5.32728  343  5.99172  345  -4.6  100   -4.6  1     0     994.5    NA       0.0000   -SN      9999  390   0    
2019/08/14  12:13:00  BASE  5.32728  346  5.99172  345  -4.6  100   -4.6  1     0     994.5    NA       0.0000   -SN      9999  390   0    
2019/08/14  12:14:00  BASE  5.47428  346  6.13872  343  -4.5  100   -4.5  1     0     994.4    NA       0.0000   -SN      9999  390   0    
2019/08/14  12:15:00  BASE  5.39784  346  6.13872  343  -4.5  100   -4.5  1     0     994.5    NA       0.0000   -SN      9999  390   10370
2019/08/14  12:16:00  BASE  5.21556  348  6.13872  343  -4.5  100   -4.5  1     0     994.4    NA       0.0000   -SN      9999  390   10530
2019/08/14  12:17:00  BASE  5.2038   348  6.13872  343  -4.5  100   -4.5  1     0     994.4    NA       0.0000   -SN      9999  390   0    
2019/08/14  12:18:00  BASE  5.2626   350  6.13872  343  -4.5  100   -4.5  1     0     994.4    NA       0.0000   -SN      9999  0     0    
2019/08/14  12:19:00  BASE  5.19204  349  6.13872  343  -4.5  100   -4.5  1     0     994.5    NA       0.0000   -SN      9999  390   0    
2019/08/14  12:20:00  BASE  4.87452  347  6.13872  343  -4.5  100   -4.5  1     0     994.5    NA       0.0000   -SN      9999  390   2430 
2019/08/14  12:21:00  BASE  4.60404  345  6.13872  343  -4.4  100   -4.4  1     0     994.5    NA       0.0000   -SN      9999  360   2170 
2019/08/14  12:22:00  BASE  4.29828  346  6.13872  343  -4.4  100   -4.4  1     0     994.5    NA       0.0000   -SN      9999  360   2030 
2019/08/14  12:23:00  BASE  4.25124  348  6.13872  343  -4.4  100   -4.4  1     0     994.5    NA       0.0000   9999     360   1970  0    
2019/08/14  12:24:00  BASE  4.33356  347  5.92704  341  -4.4  100   -4.4  1     0     994.5    NA       0.0000   9999     330   0     0    
2019/08/14  12:25:00  BASE  4.15128  346  5.92704  341  -4.4  100   -4.4  1     0     994.5    NA       0.0000   9999     330   0     0    
2019/08/14  12:26:00  BASE  3.83964  349  5.86824  352  -4.5  100   -4.5  1     0     994.5    NA       0.0000   9999     330   0     0    
2019/08/14  12:27:00  BASE  3.81612  351  5.86824  352  -4.4  100   -4.4  1     0     994.5    NA       0.0000   9999     0     0     0    
2019/08/14  12:28:00  BASE  4.03956  349  5.2038   344  -4.4  100   -4.4  2     0     994.4    NA       0.0000   -SN      9999  390   0    
2019/08/14  12:29:00  BASE  4.15128  351  5.2038   344  -4.4  100   -4.4  2     0     994.4    NA       0.0000   -SN      9999  360   0    
2019/08/14  12:30:00  BASE  4.12776  350  4.93332  341  -4.4  100   -4.4  2     0     994.4    NA       0.0000   -SN      9999  0     0    
2019/08/14  12:31:00  BASE  4.06308  350  4.68636  347  -4.3  100   -4.3  2     0     994.4    NA       0.0000   -SN      9999  0     0    
2019/08/14  12:32:00  BASE  4.01016  360  4.68636  347  -4.3  100   -4.3  3     0     994.4    NA       0.0000   -SN      9999  0     0    
2019/08/14  12:33:00  BASE  4.09248  4    4.65696  343  -4.3  100   -4.3  3     0     994.4    NA       0.0000   -SN      9999  0     0    
2019/08/14  12:34:00  BASE  4.0572   353  4.53936  350  -4.3  100   -4.3  3     0     994.4    NA       0.0000   -SN      9999  0     0    
2019/08/14  12:35:00  BASE  4.04544  350  4.53936  350  -4.3  100   -4.3  3     0     994.4    NA       0.0000   -SN      9999  0     0    
2019/08/14  12:36:00  BASE  4.05132  356  4.53936  350  -4.3  100   -4.3  4     0     994.3    NA       0.0000   -SN      9999  0     0    
2019/08/14  12:37:00  BASE  4.09836  356  4.65696  354  -4.3  100   -4.3  4     0     994.2    NA       0.0000   -SN      9999  0     0    
2019/08/14  12:38:00  BASE  4.36884  356  4.89804  7    -4.2  100   -4.2  4     0     994.2    NA       0.0000   -SN      9999  0     0    
2019/08/14  12:39:00  BASE  4.69812  357  5.05092  355  -4.2  100   -4.2  4     0     994.1    NA       0.0000   -SN      9999  0     0    
2019/08/14  12:40:00  BASE  4.87452  358  5.10972  5    -4.2  100   -4.2  5     0     994.1    NA       0.0000   -SN      9999  0     0    
2019/08/14  12:41:00  BASE  4.89216  360  5.35668  360  -4.2  100   -4.2  5     0     994.1    NA       0.0000   -SN      9999  0     0    
2019/08/14  12:42:00  BASE  5.01564  360  5.56836  1    -4.1  100   -4.1  5     0     994.0    NA       0.0000   -SN      9999  0     0    
2019/08/14  12:43:00  BASE  5.25084  358  5.74476  1    -4.1  100   -4.1  5     0     994.0    NA       0.0000   -SN      9999  360   0    
2019/08/14  12:44:01  BASE  5.2626   355  5.74476  1    -4.0  100   -4.0  6     0     994.0    NA       0.0000   -SN      9999  360   0    
2019/08/14  12:45:00  BASE  5.22144  355  6.02112  3    -4.0  100   -4.0  6     0     994.0    NA       0.0000   -SN      9999  0     0    
2019/08/14  12:46:00  BASE  5.40372  358  6.02112  3    -4.0  100   -4.0  7     0     994.0    NA       0.0000   -SN      9999  0     0    
2019/08/14  12:47:00  BASE  5.48016  358  6.02112  3    -4.0  100   -4.0  7     0     994.0    NA       0.0000   -SN      9999  360   0    
2019/08/14  12:48:00  BASE  5.5272   357  6.02112  3    -4.0  100   -4.0  8     0     993.9    NA       0.0000   -SN      9999  330   0    
2019/08/14  12:49:00  BASE  5.586    352  6.02112  352  -3.9  100   -3.9  8     0     993.9    NA       0.0000   -SN      9999  330   0    
2019/08/14  12:50:00  BASE  5.36844  350  6.02112  352  -3.9  100   -3.9  9     0     994.0    NA       0.0000   -SN      9999  0     0    
2019/08/14  12:51:00  BASE  5.3508   353  6.02112  352  -3.9  100   -3.9  9     0     993.9    NA       0.0000   -SN      9999  0     0    
2019/08/14  12:52:00  BASE  5.31552  351  6.02112  352  -3.9  100   -3.9  9     0     993.9    NA       0.0000   -SN      9999  0     0    
2019/08/14  12:53:00  BASE  5.02152  351  6.02112  352  -3.9  100   -3.9  8     0     993.9    NA       0.0000   -SN      9999  0     0    
2019/08/14  12:54:00  BASE  5.18616  352  6.13872  354  -3.9  100   -3.9  8     0     993.8    NA       0.0000   -SN      9999  0     0    
2019/08/14  12:55:00  BASE  5.4096   354  6.13872  354  -3.9  100   -3.9  8     0     993.7    NA       0.0000   -SN      9999  0     0    
2019/08/14  12:56:00  BASE  5.55072  357  6.13872  354  -3.9  100   -3.9  8     0     993.7    NA       0.0000   -SN      9999  0     0    
2019/08/14  12:57:00  BASE  5.63892  354  6.13872  354  -3.8  100   -3.8  8     0     993.7    NA       0.0000   9999     360   0     0    
2019/08/14  12:58:00  BASE  5.6154   345  6.13872  354  -3.8  100   -3.8  8     0     993.7    NA       0.0000   9999     360   0     0    
2019/08/14  12:59:00  BASE  5.59776  341  6.13872  354  -3.8  100   -3.8  9     0     993.7    NA       0.0000   9999     360   0     0    
2019/08/14  13:00:00  BASE  5.45664  342  6.13872  354  -3.8  100   -3.8  9     0     993.7    NA       0.0000   -SN      9999  0     0    
2019/08/14  13:01:00  BASE  5.28612  346  6.13872  354  -3.7  100   -3.7  9     0     993.7    NA       0.0000   9999     0     0     0    
2019/08/14  13:02:00  BASE  5.33316  348  6.13872  354  -3.7  100   -3.7  9     0     993.6    NA       0.0000   -SN      9999  0     0    
2019/08/14  13:03:00  BASE  5.36256  349  6.13872  354  -3.7  100   -3.7  10    0     993.6    NA       0.0000   -SN      9999  0     0    
2019/08/14  13:04:00  BASE  5.6154   349  6.3504   344  -3.7  100   -3.7  10    0     993.6    NA       0.0000   -SN      9999  0     0    
2019/08/14  13:05:00  BASE  5.90352  348  6.41508  346  -3.7  100   -3.7  11    0     993.6    NA       0.0000   -SN      9999  0     0    
2019/08/14  13:06:00  BASE  5.68008  347  6.41508  346  -3.6  100   -3.6  11    0     993.5    NA       0.0000   -SN      9999  300   0    
2019/08/14  13:07:00  BASE  5.58012  348  6.41508  346  -3.6  100   -3.6  12    0     993.5    NA       0.0000   -SN      9999  300   0    
2019/08/14  13:08:00  BASE  5.92116  350  6.53268  348  -3.6  100   -3.6  12    0     993.4    NA       0.0000   -SN      9999  300   0    
2019/08/14  13:09:00  BASE  6.00936  349  6.53268  348  -3.6  100   -3.6  12    0     993.4    NA       0.0000   -SN      9999  300   0    
2019/08/14  13:10:00  BASE  5.91528  345  6.65616  349  -3.6  100   -3.6  12    0     993.4    NA       0.0000   9999     330   0     0    
2019/08/14  13:11:00  BASE  6.00348  347  6.65616  349  -3.6  100   -3.6  12    0     993.4    NA       0.0000   9999     0     0     0    
2019/08/14  13:12:00  BASE  5.9094   350  6.68556  351  -3.5  100   -3.5  12    0     993.4    NA       0.0000   9999     330   0     0    
2019/08/14  13:13:00  BASE  5.88     348  6.68556  351  -3.5  100   -3.5  12    0     993.4    NA       0.0000   9999     300   0     0    
2019/08/14  13:14:00  BASE  5.73888  346  6.68556  351  -3.5  100   -3.5  12    0     993.4    NA       0.0000   9999     0     0     0    
2019/08/14  13:15:00  BASE  5.66244  344  6.68556  351  -3.5  100   -3.5  12    0     993.3    NA       0.0000   9999     300   0     0    
2019/08/14  13:16:00  BASE  6.12108  343  6.95604  343  -3.5  100   -3.5  13    0     993.3    NA       0.0000   9999     260   0     0    
2019/08/14  13:17:00  BASE  6.60324  343  7.10892  348  -3.5  100   -3.5  13    0     993.3    NA       0.0000   9999     0     0     0    
2019/08/14  13:18:00  BASE  6.5856   342  7.13832  340  -3.5  100   -3.5  14    0     993.3    NA       0.0000   -SN      9999  260   0    
2019/08/14  13:19:00  BASE  6.23868  341  7.13832  340  -3.4  100   -3.4  15    0     993.3    NA       0.0000   -SN      9999  260   0    
2019/08/14  13:20:00  BASE  6.18576  341  7.13832  340  -3.4  100   -3.4  16    0     993.3    NA       0.0000   -SN      9999  260   0    
2019/08/14  13:21:00  BASE  6.26808  342  7.13832  340  -3.4  100   -3.4  16    0     993.3    NA       0.0000   -SN      9999  260   0    
2019/08/14  13:22:00  BASE  6.19752  342  7.13832  340  -3.4  100   -3.4  15    0     993.4    NA       0.0000   -SN      9999  260   0    
2019/08/14  13:23:00  BASE  6.31512  341  7.13832  340  -3.4  100   -3.4  15    0     993.3    NA       0.0000   -SN      9999  260   0    
2019/08/14  13:24:00  BASE  6.39156  341  7.13832  340  -3.4  100   -3.4  15    0     993.4    NA       0.0000   -SN      9999  260   0    
2019/08/14  13:25:00  BASE  6.42096  344  7.13832  340  -3.4  100   -3.4  15    0     993.3    NA       0.0000   -SN      9999  260   0    
2019/08/14  13:26:00  BASE  6.56796  342  7.13832  340  -3.4  100   -3.4  14    0     993.3    NA       0.0000   -SN      9999  260   0    
2019/08/14  13:27:00  BASE  6.39744  335  7.13832  340  -3.4  100   -3.4  15    0     993.3    NA       0.0000   -SN      9999  260   0    
2019/08/14  13:28:00  BASE  6.27396  333  7.2324   340  -3.4  100   -3.4  15    0     993.3    NA       0.0000   -SN      9999  260   0    
2019/08/14  13:29:00  BASE  6.50916  334  7.50288  336  -3.3  100   -3.3  15    0     993.2    NA       0.0000   -SN      9000  260   0    
2019/08/14  13:30:00  BASE  6.97368  332  8.01444  324  -3.3  100   -3.3  15    0     993.2    NA       0.0000   -SN      BR    9000  300  
2019/08/14  13:31:00  BASE  7.48524  331  8.3202   331  -3.2  100   -3.2  15    0     993.2    NA       0.0000   -SN      BR    9000  260  
2019/08/14  13:32:00  BASE  7.66752  332  8.4084   330  -3.2  100   -3.2  15    0     993.2    NA       0.0000   -SN      BR    9000  230  
2019/08/14  13:33:00  BASE  7.7322   333  8.4084   330  -3.2  100   -3.2  15    0     993.1    NA       0.0000   -SN      BR    9000  260  
2019/08/14  13:34:00  BASE  7.82628  333  8.4378   333  -3.2  100   -3.2  15    0     993.1    NA       0.0000   -SN      BR    9000  230  
2019/08/14  13:35:00  BASE  7.47348  333  8.4378   333  -3.1  100   -3.1  15    0     993.1    NA       0.0000   -SN      BR    9000  0    
2019/08/14  13:36:00  BASE  7.00308  334  8.4378   333  -3.1  100   -3.1  15    0     993.1    NA       0.0000   -SN      BR    8000  0    
2019/08/14  13:37:00  BASE  7.30296  333  8.4378   333  -3.1  100   -3.1  16    0     993.1    NA       0.0000   -SN      BR    8000  0    
2019/08/14  13:38:00  BASE  7.74396  334  8.4378   333  -3.1  100   -3.1  16    0     993.1    NA       0.0000   -SN      BR    8000  0    
2019/08/14  13:39:00  BASE  7.5558   334  8.4378   333  -3.1  100   -3.1  16    0     993.0    NA       0.0000   -SN      BR    8000  230  
2019/08/14  13:40:00  BASE  7.12068  333  8.4378   333  -3.1  100   -3.1  16    0     993.1    NA       0.0000   -SN      BR    8000  230  
2019/08/14  13:41:00  BASE  7.24416  333  8.4378   333  -3.1  100   -3.1  16    0     993.0    NA       0.0000   -SN      BR    8000  260  
2019/08/14  13:42:00  BASE  7.50288  333  8.77296  339  -3.1  100   -3.1  16    0     993.0    NA       0.0000   -SN      BR    7000  260  
2019/08/14  13:43:00  BASE  7.69692  332  8.77296  339  -3.0  100   -3.0  16    0     992.9    NA       0.0000   -SN      BR    8000  260  
2019/08/14  13:44:00  BASE  7.68516  332  8.77296  339  -3.0  100   -3.0  16    0     993.0    NA       0.0000   -SN      BR    8000  260  
2019/08/14  13:45:00  BASE  7.1736   335  8.77296  339  -3.0  100   -3.0  17    0     993.0    NA       0.0000   -SN      BR    8000  230  
2019/08/14  13:46:00  BASE  7.35588  334  8.77296  339  -3.0  100   -3.0  17    0     992.9    NA       0.0000   -SN      BR    7000  0    
2019/08/14  13:47:00  BASE  7.66752  335  8.77296  339  -3.0  100   -3.0  17    0     992.9    NA       0.0000   -SN      BR    7000  0    
2019/08/14  13:48:00  BASE  7.31472  337  8.77296  339  -3.0  100   -3.0  18    0     992.9    NA       0.0000   -SN      BR    9000  0    
2019/08/14  13:49:00  BASE  7.00896  338  8.77296  339  -3.0  100   -3.0  18    0     992.9    NA       0.0000   -SN      BR    9000  0    
2019/08/14  13:50:00  BASE  7.0854   338  8.77296  339  -3.0  100   -3.0  18    0     992.9    NA       0.0000   -SN      BR    7000  0    
2019/08/14  13:51:00  BASE  7.2912   336  8.77296  339  -3.0  100   -3.0  19    0     992.8    NA       0.0000   -SN      BR    7000  0    
2019/08/14  13:52:00  BASE  7.40292  333  8.64948  328  -3.0  100   -3.0  20    0     992.8    NA       0.0000   -SN      BR    7000  0    
2019/08/14  13:53:00  BASE  7.16184  332  8.22612  332  -3.0  100   -3.0  21    0     992.9    NA       0.0000   -SN      BR    7000  0    
2019/08/14  13:54:00  BASE  7.09128  331  8.22612  332  -2.9  100   -2.9  22    0     992.9    NA       0.0000   -SN      BR    7000  0    
2019/08/14  13:55:00  BASE  7.44408  331  8.4084   325  -2.9  100   -2.9  24    0     992.9    NA       0.0000   -SN      BR    7000  0    
2019/08/14  13:56:00  BASE  7.6146   332  8.4084   325  -2.9  100   -2.9  27    0     992.9    NA       0.0000   -SN      BR    6000  0    
2019/08/14  13:57:00  BASE  7.7322   332  8.62008  331  -2.9  100   -2.9  30    0     992.8    NA       0.0000   -SN      BR    6000  0    
2019/08/14  13:58:00  BASE  7.5264   332  8.62008  331  -2.9  100   -2.9  32    0     992.9    NA       0.0000   -SN      BR    6000  0    
2019/08/14  13:59:00  BASE  6.92664  335  8.62008  331  -2.9  100   -2.9  35    0     992.9    NA       0.0000   -SN      BR    6000  0    
2019/08/14  14:00:00  BASE  6.468    337  8.62008  331  -2.9  100   -2.9  38    0     992.9    NA       0.0000   -SN      BR    8000  0    
2019/08/14  14:01:00  BASE  6.18576  338  8.62008  331  -2.9  100   -2.9  40    0     992.9    NA       0.0000   -SN      BR    9000  0    
2019/08/14  14:02:00  BASE  6.36804  340  8.62008  331  -2.9  100   -2.9  44    0     992.9    NA       0.0000   -SN      BR    7000  0    
2019/08/14  14:03:00  BASE  6.65028  340  8.62008  331  -2.9  100   -2.9  48    0     992.9    NA       0.0000   -SN      BR    7000  0    
2019/08/14  14:04:00  BASE  6.76788  340  8.62008  331  -2.9  100   -2.9  52    0     992.8    NA       0.0000   -SN      BR    8000  0    
2019/08/14  14:05:00  BASE  6.86196  343  8.62008  331  -3.0  100   -3.0  55    0     992.8    NA       0.0000   -SN      BR    9999  0    
2019/08/14  14:07:00  BASE  6.57384  345  8.62008  331  -3.0  100   -3.0  57    0     992.8    NA       0.0000   -SN      BR    9999  0    
2019/08/14  14:08:00  BASE  6.53268  344  7.65576  335  -3.0  100   -3.0  57    0     992.8    NA       0.0000   -SN      BR    9999  0    
2019/08/14  14:09:00  BASE  6.3798   343  7.53228  340  -3.0  100   -3.0  56    0     992.9    NA       0.0000   -SN      BR    9999  260  
2019/08/14  14:10:00  BASE  6.71496  344  7.59108  346  -3.0  100   -3.0  55    0     992.8    NA       0.0000   -SN      BR    9999  260  
2019/08/14  14:11:00  BASE  7.21476  344  7.59108  346  -3.0  100   -3.0  55    0     992.8    NA       0.0000   -SN      BR    9999  260  
2019/08/14  14:12:00  BASE  6.96192  346  7.59108  346  -3.0  100   -3.0  53    0     992.8    NA       0.0000   -SN      BR    9999  260  
2019/08/14  14:13:00  BASE  6.72084  345  7.59108  346  -2.9  100   -2.9  52    0     992.8    NA       0.0000   -SN      BR    9999  260  
2019/08/14  14:14:00  BASE  6.53856  342  7.59108  346  -2.9  100   -2.9  50    0     992.8    NA       0.0000   -SN      BR    9999  260  
2019/08/14  14:15:00  BASE  6.24456  343  7.59108  346  -2.9  100   -2.9  47    0     992.8    NA       0.0000   -SN      BR    9000  230  
2019/08/14  14:16:00  BASE  5.99172  344  7.59108  346  -2.9  100   -2.9  45    0     992.8    NA       0.0000   -SN      BR    9000  230  
2019/08/14  14:17:00  BASE  6.00348  344  7.59108  346  -2.9  100   -2.9  45    0     992.8    NA       0.0000   -SN      BR    9999  0    
2019/08/14  14:18:00  BASE  6.22104  341  7.59108  346  -2.9  100   -2.9  45    0     992.8    NA       0.0000   -SN      BR    9000  0    
2019/08/14  14:19:00  BASE  6.18576  339  7.59108  346  -2.9  100   -2.9  45    0     992.8    NA       0.0000   -SN      BR    9000  0    
2019/08/14  14:20:00  BASE  5.98584  341  7.53228  343  -2.9  100   -2.9  46    0     992.8    NA       0.0000   -SN      BR    9999  0    
2019/08/14  14:21:00  BASE  6.23868  343  7.47348  343  -2.9  100   -2.9  47    0     992.7    NA       0.0000   -SN      BR    9999  0    
2019/08/14  14:22:00  BASE  6.8208   342  7.47348  343  -2.9  100   -2.9  48    0     992.7    NA       0.0000   -SN      BR    9999  0    
2019/08/14  14:23:00  BASE  6.87372  339  7.4088   340  -2.9  100   -2.9  50    0     992.7    NA       0.0000   -SN      BR    9000  0    
2019/08/14  14:24:00  BASE  6.77964  339  7.4088   340  -2.9  100   -2.9  52    0     992.7    NA       0.0000   -SN      BR    9000  0    
2019/08/14  14:25:00  BASE  6.7326   341  7.4088   340  -2.9  100   -2.9  52    0     992.6    NA       0.0000   -SN      BR    9000  0    
2019/08/14  14:26:00  BASE  6.99132  339  8.19672  338  -2.9  100   -2.9  50    0     992.6    NA       0.0000   -SN      BR    9000  0    
2019/08/14  14:27:00  BASE  7.56756  338  8.4084   343  -2.9  100   -2.9  50    0     992.5    NA       0.0000   -SN      BR    9000  0    
2019/08/14  14:28:00  BASE  7.5264   341  8.4084   343  -2.9  100   -2.9  52    0     992.5    NA       0.0000   -SN      BR    9000  0    
2019/08/14  14:29:00  BASE  7.36764  343  8.4084   343  -2.9  100   -2.9  54    0     992.4    NA       0.0000   -SN      BR    9000  0    
2019/08/14  14:30:00  BASE  7.38528  348  8.4084   343  -2.9  100   -2.9  54    0     992.4    NA       0.0000   -SN      BR    9000  0    
2019/08/14  14:31:00  BASE  7.32648  349  8.4084   343  -2.8  100   -2.8  53    0     992.4    NA       0.0000   -SN      BR    9000  0    
2019/08/14  14:32:00  BASE  7.57344  346  8.4084   343  -2.8  100   -2.8  53    0     992.4    NA       0.0000   -SN      BR    9000  0    
2019/08/14  14:33:00  BASE  7.4382   346  8.4084   343  -2.8  100   -2.8  55    0     992.4    NA       0.0000   -SN      BR    9000  0    
2019/08/14  14:34:00  BASE  6.84432  346  8.4084   343  -2.9  100   -2.9  60    0     992.4    NA       0.0000   -SN      BR    9000  0    
2019/08/14  14:35:00  BASE  6.68556  343  8.4084   343  -2.9  100   -2.9  64    0     992.3    NA       0.0000   -SN      BR    9000  0    
2019/08/14  14:36:00  BASE  6.73848  341  8.4084   343  -2.9  100   -2.9  67    0     992.3    NA       0.0000   -SN      BR    9000  0    
2019/08/14  14:37:00  BASE  6.82668  346  8.22612  347  -2.9  100   -2.9  67    0     992.3    NA       0.0000   -SN      BR    9000  0    
2019/08/14  14:38:00  BASE  6.66204  349  8.22612  347  -2.8  100   -2.8  67    0     992.3    NA       0.0000   -SN      BR    9000  0    
2019/08/14  14:39:00  BASE  6.75612  349  8.22612  347  -2.8  100   -2.8  67    0     992.3    NA       0.0000   -SN      BR    9000  0    
2019/08/14  14:40:00  BASE  7.1148   349  8.22612  347  -2.8  100   -2.8  65    0     992.3    NA       0.0000   -SN      BR    9000  0    
2019/08/14  14:41:00  BASE  6.83844  349  8.22612  347  -2.8  100   -2.8  59    0     992.3    NA       0.0000   -SN      BR    9000  0    
2019/08/14  14:42:00  BASE  6.63852  347  7.92624  349  -2.8  100   -2.8  53    0     992.3    NA       0.0000   -SN      BR    9000  0    
2019/08/14  14:43:00  BASE  6.6444   346  7.92624  349  -2.8  100   -2.8  47    0     992.2    NA       0.0000   -SN      BR    9000  0    
2019/08/14  14:44:00  BASE  6.59148  348  7.92624  349  -2.8  100   -2.8  44    0     992.2    NA       0.0000   -SN      BR    9000  0    
2019/08/14  14:45:00  BASE  6.51504  348  7.92624  349  -2.8  100   -2.8  45    0     992.2    NA       0.0000   -SN      BR    9000  0    
2019/08/14  14:46:00  BASE  6.4386   346  7.92624  349  -2.8  100   -2.8  47    0     992.2    NA       0.0000   -SN      BR    9000  0    
2019/08/14  14:47:00  BASE  6.69144  348  7.92624  349  -2.9  100   -2.9  50    0     992.2    NA       0.0000   -SN      BR    9000  0    
2019/08/14  14:48:00  BASE  6.94428  347  7.92624  349  -2.9  100   -2.9  53    0     992.2    NA       0.0000   -SN      BR    9000  0    
2019/08/14  14:49:00  BASE  6.73848  343  7.92624  349  -2.8  100   -2.8  56    0     992.2    NA       0.0000   -SN      BR    9000  0    
2019/08/14  14:50:00  BASE  6.36216  344  7.71456  350  -2.9  100   -2.9  59    0     992.2    NA       0.0000   BR       9000  0     0    
2019/08/14  14:51:00  BASE  6.46212  347  7.53228  345  -2.8  100   -2.8  63    0     992.2    NA       0.0000   -SN      BR    9000  0    
2019/08/14  14:52:00  BASE  6.62088  349  7.53228  345  -2.8  100   -2.8  68    0     992.2    NA       0.0000   -SN      BR    9000  0    
2019/08/14  14:53:00  BASE  6.8208   352  7.74396  349  -2.8  100   -2.8  73    0     992.1    NA       0.0000   -SN      BR    9000  0    
2019/08/14  14:54:00  BASE  7.22652  348  7.80276  340  -2.8  100   -2.8  74    0     992.1    NA       0.0000   -SN      BR    9000  0    
2019/08/14  14:55:00  BASE  7.00308  344  7.80276  340  -2.8  100   -2.8  72    0     992.1    NA       0.0000   -SN      BR    9000  0    
2019/08/14  14:56:00  BASE  6.98544  344  7.83216  340  -2.8  100   -2.8  69    0     992.1    NA       0.0000   -SN      BR    9000  0    
2019/08/14  14:57:00  BASE  7.27944  342  8.01444  343  -2.8  100   -2.8  68    0     992.0    NA       0.0000   -SN      BR    9000  0    
2019/08/14  14:58:00  BASE  7.21476  341  8.04384  337  -2.8  100   -2.8  64    0     992.0    NA       0.0000   -SN      BR    9000  0    
2019/08/14  14:59:00  BASE  7.50876  340  8.3496   335  -2.8  100   -2.8  61    0     992.0    NA       0.0000   -SN      BR    9000  0    
2019/08/14  15:00:00  BASE  7.53228  337  8.3496   335  -2.8  100   -2.8  56    0     992.1    NA       0.0000   -SN      BR    8000  0    
2019/08/14  15:01:00  BASE  7.2912   338  8.4378   348  -2.7  100   -2.7  50    0     992.0    NA       0.0000   -SN      BR    7000  0    
2019/08/14  15:02:00  BASE  7.644    340  8.4378   348  -2.7  100   -2.7  45    0     991.9    NA       0.0000   -SN      BR    8000  0    
2019/08/14  15:03:00  BASE  7.84392  336  8.4378   348  -2.7  100   -2.7  44    0     992.0    NA       0.0000   -SN      BR    8000  0    
2019/08/14  15:04:00  BASE  7.50876  334  8.4378   348  -2.7  100   -2.7  46    0     992.0    NA       0.0000   -SN      BR    7000  0    
2019/08/14  15:05:00  BASE  7.46172  337  8.4378   344  -2.7  100   -2.7  49    0     992.0    NA       0.0000   -SN      BR    6000  0    
2019/08/14  15:06:00  BASE  7.94388  340  8.74356  342  -2.7  100   -2.7  51    0     991.9    NA       0.0000   -SN      BR    7000  0    
2019/08/14  15:07:00  BASE  8.06736  340  8.74356  342  -2.7  100   -2.7  51    0     991.9    NA       0.0000   -SN      BR    8000  0    
2019/08/14  15:08:00  BASE  7.70868  339  8.74356  342  -2.6  100   -2.6  51    0     992.0    NA       0.0000   -SN      BR    8000  0    
2019/08/14  15:09:00  BASE  7.791    335  9.31392  331  -2.6  100   -2.6  52    0     991.9    NA       0.0000   -SN      BR    6000  0    
2019/08/14  15:10:00  BASE  8.07912  335  9.31392  331  -2.6  100   -2.6  52    0     991.8    NA       0.0000   -SN      BR    5000  0    
2019/08/14  15:11:00  BASE  8.2908   336  9.91956  328  -2.5  100   -2.5  51    0     991.8    NA       0.0000   -SN      BR    5000  23260
2019/08/14  15:12:00  BASE  8.57304  332  9.91956  328  -2.5  100   -2.5  50    0     991.8    NA       0.2540   -SN      BR    4000  0    
2019/08/14  15:13:00  BASE  8.54364  331  9.91956  335  -2.5  100   -2.5  49    0     991.8    NA       0.0000   -SN      BR    3500  0    
2019/08/14  15:14:00  BASE  8.36724  332  9.91956  335  -2.4  100   -2.4  49    0     991.7    NA       0.0000   -SN      BR    4500  0    
2019/08/14  15:15:00  BASE  8.72004  331  10.437   328  -2.4  100   -2.4  50    0     991.7    NA       0.0000   -SN      BR    4000  0    
2019/08/14  15:16:00  BASE  9.31392  327  10.437   328  -2.4  100   -2.4  50    0     991.6    NA       0.0000   -SN      BR    3400  0    
2019/08/14  15:17:00  BASE  9.27276  326  10.437   328  -2.4  100   -2.4  51    0     991.7    NA       0.0000   -SN      BR    3100  0    
2019/08/14  15:18:00  BASE  8.72592  329  10.437   328  -2.3  100   -2.3  52    0     991.7    NA       0.0000   -SN      BR    3100  0    
2019/08/14  15:19:00  BASE  8.74356  329  10.437   328  -2.3  100   -2.3  54    0     991.7    NA       0.0000   -SN      BR    3200  0    
2019/08/14  15:20:00  BASE  9.24336  330  10.437   328  -2.3  100   -2.3  54    0     991.6    NA       0.0000   -SN      BR    3300  0    
2019/08/14  15:21:00  BASE  9.33156  330  10.437   328  -2.3  100   -2.3  55    0     991.6    NA       0.0000   -SN      BR    4600  0    
2019/08/14  15:22:00  BASE  8.82     330  10.437   328  -2.3  100   -2.3  58    0     991.6    NA       0.0000   -SN      BR    5000  0    
2019/08/14  15:23:00  BASE  8.46132  330  10.437   328  -2.3  100   -2.3  61    0     991.6    NA       0.0000   -SN      BR    4900  0    
2019/08/14  15:24:00  BASE  8.97288  331  10.437   328  -2.3  100   -2.3  66    0     991.6    NA       0.0000   -SN      BR    5000  0    
2019/08/14  15:25:00  BASE  9.48444  332  10.2547  331  -2.3  100   -2.3  70    0     991.5    NA       0.0000   -SN      BR    5000  0    
2019/08/14  15:26:01  BASE  9.702    332  10.1959  334  -2.3  100   -2.3  73    0     991.5    NA       0.0000   -SN      BR    5000  0    
2019/08/14  15:27:00  BASE  9.60204  333  10.1959  334  -2.3  100   -2.3  73    0     991.6    NA       0.0000   -SN      BR    5000  0    
2019/08/14  15:28:00  BASE  9.24336  334  10.1959  334  -2.3  100   -2.3  70    0     991.6    NA       0.0000   -SN      BR    5000  0    
2019/08/14  15:29:00  BASE  9.24336  334  10.1959  334  -2.3  100   -2.3  66    0     991.5    NA       0.0000   -SN      BR    5000  0    
2019/08/14  15:30:00  BASE  9.3786   334  10.1959  334  -2.3  100   -2.3  62    0     991.5    NA       0.0000   -SN      BR    5000  0    
2019/08/14  15:31:00  BASE  9.39624  333  10.2841  331  -2.3  100   -2.3  59    0     991.5    NA       0.0000   -SN      BR    5000  0    
2019/08/14  15:32:00  BASE  9.4668   333  10.7663  337  -2.3  100   -2.3  58    0     991.5    NA       0.0000   -SN      BR    5000  0    
2019/08/14  15:33:00  BASE  9.33744  332  10.7663  337  -2.3  100   -2.3  55    0     991.5    NA       0.0000   -SN      BR    5000  0    
2019/08/14  15:34:00  BASE  9.3198   333  10.7663  337  -2.3  100   -2.3  54    0     991.5    NA       0.0000   -SN      BR    4900  0    
2019/08/14  15:35:00  BASE  9.19632  335  10.7663  337  -2.3  100   -2.3  52    0     991.5    NA       0.0000   -SN      BR    4900  0    
2019/08/14  15:36:00  BASE  8.7906   335  10.7663  337  -2.3  100   -2.3  51    0     991.6    NA       0.0000   -SN      BR    4900  0    
2019/08/14  15:37:00  BASE  8.7612   334  10.7663  337  -2.3  100   -2.3  52    0     991.6    NA       0.0000   -SN      BR    4900  0    
2019/08/14  15:38:00  BASE  8.84352  333  10.7663  337  -2.3  100   -2.3  53    0     991.5    NA       0.0000   -SN      BR    4700  0    
2019/08/14  15:39:00  BASE  8.76708  335  10.7663  337  -2.3  100   -2.3  56    0     991.5    NA       0.0000   -SN      BR    4400  0    
2019/08/14  15:40:00  BASE  9.62556  335  11.2543  330  -2.3  100   -2.3  62    0     991.4    NA       0.0000   -SN      BR    5000  0    
2019/08/14  15:41:00  BASE  10.6487  333  12.1304  332  -2.3  100   -2.3  69    0     991.4    NA       0.0000   -SN      BR    6000  0    
2019/08/14  15:42:01  BASE  10.8074  331  12.1304  332  -2.2  100   -2.2  72    0     991.4    NA       0.0000   -SN      BR    4600  0    
2019/08/14  15:43:01  BASE  10.484   332  12.1304  332  -2.2  100   -2.2  72    0     991.4    NA       0.0000   -SN      BR    3900  0    
2019/08/14  15:44:00  BASE  10.2782  333  12.1304  332  -2.2  100   -2.2  69    0     991.4    NA       0.0000   -SN      BR    5000  0    
2019/08/14  15:45:01  BASE  9.79608  335  12.1304  332  -2.2  100   -2.2  66    0     991.4    NA       0.0000   -SN      BR    5000  0    
2019/08/14  15:46:00  BASE  8.82     337  12.1304  332  -2.2  100   -2.2  64    0     991.5    NA       0.0000   -SN      BR    5000  0    
2019/08/14  15:47:01  BASE  8.5848   336  12.1304  332  -2.2  100   -2.2  61    0     991.5    NA       0.0000   -SN      BR    5000  0    
2019/08/14  15:48:00  BASE  8.526    337  12.1304  332  -2.2  100   -2.2  61    0     991.4    NA       0.0000   -SN      BR    5000  0    
2019/08/14  15:49:01  BASE  8.83176  339  12.1304  332  -2.2  100   -2.2  62    0     991.4    NA       0.0000   -SN      BR    6000  0    
2019/08/14  15:50:01  BASE  8.92584  340  12.1304  332  -2.2  100   -2.2  66    0     991.4    NA       0.0000   -SN      BR    6000  0    
2019/08/14  15:51:01  BASE  8.83764  339  12.101   329  -2.3  100   -2.3  72    0     991.3    NA       0.0000   -SN      BR    7000  0    
2019/08/14  15:52:01  BASE  9.09636  338  11.4366  333  -2.3  100   -2.3  78    0     991.3    NA       0.0000   -SN      BR    7000  0    
2019/08/14  15:53:01  BASE  9.03168  339  11.4366  333  -2.3  100   -2.3  83    0     991.3    NA       0.0000   -SN      BR    7000  0    
2019/08/14  15:54:01  BASE  8.98464  341  10.1959  339  -2.3  100   -2.3  87    0     991.3    NA       0.0000   -SN      BR    7000  0    
2019/08/14  15:55:00  BASE  9.16104  340  10.4958  344  -2.3  100   -2.3  86    0     991.3    NA       0.0000   -SN      BR    7000  0    
2019/08/14  15:56:00  BASE  9.26688  340  10.4958  344  -2.2  100   -2.2  82    0     991.2    NA       0.0000   -SN      BR    7000  0    
2019/08/14  15:57:00  BASE  9.2904   340  10.4958  344  -2.2  100   -2.2  77    0     991.2    NA       0.0000   -SN      BR    7000  0    
2019/08/14  15:58:00  BASE  8.9376   338  10.4958  344  -2.3  100   -2.3  73    0     991.3    NA       0.0000   -SN      BR    6000  0    
2019/08/14  15:59:00  BASE  8.63184  340  10.4958  344  -2.3  100   -2.3  70    0     991.2    NA       0.0000   -SN      BR    6000  0    
2019/08/14  16:00:00  BASE  8.74356  343  10.4958  344  -2.3  100   -2.3  69    0     991.2    NA       0.0000   -SN      BR    6000  0    
2019/08/14  16:01:00  BASE  8.77296  342  10.4958  344  -2.3  100   -2.3  69    0     991.2    NA       0.0000   -SN      BR    6000  22540
2019/08/14  16:02:00  BASE  8.7906   340  10.4958  344  -2.3  100   -2.3  69    0     991.2    NA       0.0000   BR       6000  0     0    
2019/08/14  16:03:00  BASE  8.673    340  10.4958  344  -2.3  100   -2.3  69    0     991.1    NA       0.0000   BR       6000  0     0    
2019/08/14  16:04:00  BASE  8.70828  343  10.4958  344  -2.2  100   -2.2  69    0     991.1    NA       0.0000   BR       6000  0     0    
2019/08/14  16:05:00  BASE  8.5848   342  10.3135  338  -2.2  100   -2.2  67    0     991.1    NA       0.0000   BR       6000  0     0    
2019/08/14  16:06:00  BASE  8.36724  342  10.3135  338  -2.2  100   -2.2  64    0     991.1    NA       0.0000   -SN      BR    7000  0    
2019/08/14  16:07:00  BASE  8.7024   343  11.0132  348  -2.2  100   -2.2  60    0     991.0    NA       0.0000   -SN      BR    9000  0    
2019/08/14  16:08:00  BASE  9.22572  344  11.0132  348  -2.2  100   -2.2  56    0     990.9    NA       0.0000   -SN      BR    8000  0    
2019/08/14  16:09:00  BASE  9.24924  347  11.0132  348  -2.2  100   -2.2  53    0     990.9    NA       0.0000   -SN      BR    8000  0    
2019/08/14  16:10:00  BASE  9.06108  349  11.0132  348  -2.2  100   -2.2  52    0     990.9    NA       0.0000   -SN      BR    8000  0    
2019/08/14  16:11:00  BASE  8.86116  348  11.0132  348  -2.2  100   -2.2  53    0     990.9    NA       0.0000   -SN      BR    8000  0    
2019/08/14  16:12:00  BASE  8.76708  348  11.0132  348  -2.2  100   -2.2  54    0     990.8    NA       0.0000   -SN      BR    8000  0    
2019/08/14  16:13:00  BASE  8.7318   349  11.0132  348  -2.2  100   -2.2  56    0     990.8    NA       0.0000   -SN      BR    8000  0    
2019/08/14  16:14:00  BASE  8.68476  347  11.0132  348  -2.2  100   -2.2  57    0     990.8    NA       0.0000   -SN      BR    8000  0    
2019/08/14  16:15:00  BASE  8.48484  347  11.0132  348  -2.2  100   -2.2  56    0     990.8    NA       0.0000   -SN      BR    8000  0    
2019/08/14  16:16:00  BASE  8.3496   348  11.0132  348  -2.2  100   -2.2  52    0     990.8    NA       0.0000   -SN      BR    8000  0    
2019/08/14  16:17:00  BASE  9.11988  345  10.7663  345  -2.2  100   -2.2  48    0     990.7    NA       0.0000   -SN      BR    8000  0    
2019/08/14  16:18:00  BASE  9.36096  347  10.7663  345  -2.2  100   -2.2  46    0     990.7    NA       0.0000   -SN      BR    9000  0    
2019/08/14  16:19:00  BASE  8.60832  348  10.7663  345  -2.2  100   -2.2  47    0     990.7    NA       0.0000   -SN      BR    9999  0    
2019/08/14  16:20:00  BASE  8.40252  345  10.7663  345  -2.2  100   -2.2  50    0     990.7    NA       0.0000   -SN      BR    9999  0    
2019/08/14  16:21:00  BASE  8.56128  343  10.4958  338  -2.2  100   -2.2  55    0     990.7    NA       0.0000   -SN      BR    9000  0    
2019/08/14  16:22:00  BASE  8.42016  345  10.4958  338  -2.2  100   -2.2  60    0     990.7    NA       0.0000   -SN      BR    9000  0    
2019/08/14  16:23:00  BASE  8.39076  347  10.4958  338  -2.2  100   -2.2  63    0     990.6    NA       0.0000   -SN      BR    9000  0    
2019/08/14  16:24:00  BASE  8.03208  345  10.4958  338  -2.2  100   -2.2  63    0     990.7    NA       0.0000   -SN      BR    9000  0    
2019/08/14  16:25:00  BASE  8.38488  341  11.9776  331  -2.2  100   -2.2  63    0     990.5    NA       0.0000   -SN      BR    9999  0    
2019/08/14  16:26:00  BASE  9.60204  338  11.9776  331  -2.2  100   -2.2  62    0     990.4    NA       0.0000   -SN      BR    9000  0    
2019/08/14  16:27:01  BASE  9.7902   337  11.9776  331  -2.2  100   -2.2  59    0     990.4    NA       0.0000   -SN      BR    9000  0    
2019/08/14  16:28:01  BASE  9.76668  337  11.9776  331  -2.1  100   -2.1  57    0     990.5    NA       0.0000   -SN      BR    9999  0    
2019/08/14  16:29:01  BASE  10.0372  340  11.9776  331  -2.1  100   -2.1  56    0     990.4    NA       0.0000   -SN      BR    9999  0    
2019/08/14  16:30:01  BASE  9.9372   342  11.9776  331  -2.1  100   -2.1  55    0     990.4    NA       0.0000   -SN      BR    9999  0    
2019/08/14  16:31:01  BASE  9.97248  340  11.9776  331  -2.1  100   -2.1  54    0     990.4    NA       0.0000   -SN      BR    9000  0    
2019/08/14  16:32:01  BASE  9.80784  334  11.9776  331  -2.1  100   -2.1  52    0     990.5    NA       0.0000   -SN      BR    7000  0    
2019/08/14  16:33:00  BASE  9.53736  333  11.9776  331  -2.1  100   -2.1  50    0     990.4    NA       0.0000   -SN      BR    4700  0    
2019/08/14  16:34:00  BASE  9.51384  339  11.9776  331  -2.1  100   -2.1  48    0     990.4    NA       0.0000   -SN      BR    6000  0    
2019/08/14  16:35:00  BASE  9.48444  341  11.8247  335  -2.1  100   -2.1  46    0     990.4    NA       0.0000   -SN      BR    9000  0    
2019/08/14  16:36:00  BASE  9.88428  340  11.8247  335  -2.1  100   -2.1  44    0     990.4    NA       0.0000   -SN      BR    9000  0    
2019/08/14  16:37:00  BASE  10.0548  339  11.8247  334  -2.1  100   -2.1  44    0     990.4    NA       0.0000   -SN      BR    9000  0    
2019/08/14  16:38:00  BASE  9.6138   339  11.8247  334  -2.1  100   -2.1  44    0     990.4    NA       0.0000   -SN      BR    9000  0    
2019/08/14  16:39:00  BASE  9.47268  340  11.8247  334  -2.1  100   -2.1  45    0     990.4    NA       0.0000   -SN      BR    9000  0    
2019/08/14  16:40:00  BASE  9.62556  339  11.8247  334  -2.1  100   -2.1  45    0     990.3    NA       0.0000   -SN      BR    9000  0    
2019/08/14  16:41:00  BASE  9.63144  336  11.8247  334  -2.1  100   -2.1  46    0     990.3    NA       0.2540   -SN      BR    9000  0    
2019/08/14  16:42:01  BASE  9.6726   335  11.8247  334  -2.1  100   -2.1  47    0     990.4    NA       0.0000   -SN      BR    9000  0    
2019/08/14  16:43:00  BASE  9.60204  338  11.8247  334  -2.1  100   -2.1  47    0     990.3    NA       0.0000   -SN      BR    9000  0    
2019/08/14  16:44:00  BASE  9.46092  338  11.8247  334  -2.1  100   -2.1  48    0     990.3    NA       0.0000   -SN      BR    9000  0    
2019/08/14  16:45:00  BASE  10.1959  338  12.1304  341  -2.1  100   -2.1  49    0     990.2    NA       0.0000   -SN      BR    9000  0    
2019/08/14  16:46:00  BASE  10.7898  340  12.1304  341  -2.1  100   -2.1  52    0     990.2    NA       0.0000   -SN      BR    9000  0    
2019/08/14  16:47:00  BASE  10.0607  340  12.1304  341  -2.1  100   -2.1  56    0     990.2    NA       0.0000   BR       9000  0     0    
2019/08/14  16:48:00  BASE  9.32568  338  12.1304  341  -2.1  100   -2.1  61    0     990.2    NA       0.0000   BR       9000  0     0    
2019/08/14  16:49:00  BASE  9.29628  338  12.1304  341  -2.1  100   -2.1  65    0     990.1    NA       0.0000   BR       8000  0     0    
2019/08/14  16:50:00  BASE  9.59616  339  12.1304  341  -2.1  100   -2.1  67    0     990.1    NA       0.0000   BR       8000  0     0    
2019/08/14  16:51:00  BASE  10.2018  340  12.1304  341  -2.1  100   -2.1  67    0     989.9    NA       0.0000   -SN      BR    7000  0    
2019/08/14  16:52:00  BASE  10.4017  338  12.1304  341  -2.0  100   -2.0  66    0     990.0    NA       0.0000   -SN      BR    7000  0    
2019/08/14  16:53:00  BASE  10.5605  336  12.1598  335  -2.0  100   -2.0  64    0     990.0    NA       0.0000   -SN      BR    7000  0    
2019/08/14  16:54:01  BASE  10.2194  337  12.1598  335  -2.0  100   -2.0  61    0     990.1    NA       0.0000   -SN      BR    7000  0    
2019/08/14  16:55:01  BASE  9.4668   336  12.1598  335  -2.0  100   -2.0  59    0     990.1    NA       0.0000   -SN      BR    6000  0    
2019/08/14  16:56:01  BASE  9.42564  335  12.1598  335  -2.1  100   -2.1  58    0     990.0    NA       0.0000   -SN      BR    5000  0    
2019/08/14  16:57:00  BASE  9.70788  339  12.1598  335  -2.1  100   -2.1  57    0     990.0    NA       0.0000   -SN      BR    5000  23460
2019/08/14  16:58:00  BASE  9.69024  339  12.1598  335  -2.1  100   -2.1  57    0     990.0    NA       0.0000   -SN      BR    5000  0    
2019/08/14  16:59:00  BASE  9.5256   339  12.1598  335  -2.1  100   -2.1  57    0     989.9    NA       0.0000   -SN      BR    5000  0    
2019/08/14  17:00:00  BASE  9.63732  341  12.1598  335  -2.1  100   -2.1  58    0     989.9    NA       0.0000   -SN      BR    5000  0    
2019/08/14  17:01:00  BASE  9.74316  339  12.1598  335  -2.1  100   -2.1  58    0     989.9    NA       0.0000   -SN      BR    5000  0    
2019/08/14  17:02:00  BASE  9.261    338  12.1598  335  -2.1  100   -2.1  57    0     989.9    NA       0.0000   -SN      BR    5000  0    
2019/08/14  17:03:00  BASE  8.96112  340  11.1014  339  -2.1  100   -2.1  56    0     989.9    NA       0.0000   -SN      BR    5000  0    
2019/08/14  17:04:00  BASE  9.91368  340  11.1014  339  -2.1  100   -2.1  56    0     989.8    NA       0.0000   -SN      BR    5000  0    
2019/08/14  17:05:00  BASE  10.2665  341  11.2543  336  -2.1  100   -2.1  56    0     989.8    NA       0.0000   -SN      BR    5000  0    
2019/08/14  17:06:00  BASE  9.64908  340  11.2543  336  -2.1  100   -2.1  56    0     989.8    NA       0.0000   -SN      BR    5000  0    
2019/08/14  17:07:00  BASE  9.60792  337  11.2543  336  -2.1  100   -2.1  57    0     989.7    NA       0.0000   -SN      BR    5000  0    
2019/08/14  17:08:00  BASE  9.72552  337  11.2543  336  -2.1  100   -2.1  59    0     989.7    NA       0.0000   -SN      BR    5000  0    
2019/08/14  17:09:00  BASE  9.69612  339  11.2543  336  -2.1  100   -2.1  59    0     989.7    NA       0.0000   -SN      BR    5000  0    
2019/08/14  17:10:00  BASE  9.73728  339  11.2543  336  -2.1  100   -2.1  59    0     989.7    NA       0.0000   -SN      BR    5000  0    
2019/08/14  17:11:00  BASE  9.3198   340  11.2543  336  -2.1  100   -2.1  57    0     989.7    NA       0.0000   -SN      BR    5000  0    
2019/08/14  17:12:00  BASE  8.6142   340  11.2543  336  -2.1  100   -2.1  56    0     989.7    NA       0.0000   -SN      BR    5000  0    
2019/08/14  17:13:00  BASE  8.63772  336  11.2543  336  -2.1  100   -2.1  53    0     989.7    NA       0.0000   -SN      BR    5000  0    
2019/08/14  17:14:00  BASE  9.33744  335  11.2543  336  -2.1  100   -2.1  52    0     989.6    NA       0.0000   -SN      BR    5000  0    
2019/08/14  17:15:00  BASE  9.79608  340  11.1308  341  -2.0  100   -2.0  55    0     989.6    NA       0.0000   -SN      BR    6000  0    
2019/08/14  17:16:00  BASE  9.6138   338  11.1308  341  -2.0  100   -2.0  62    0     989.6    NA       0.0000   -SN      BR    7000  0    
2019/08/14  17:17:00  BASE  9.68436  336  11.1308  341  -2.0  100   -2.0  69    0     989.6    NA       0.0000   -SN      BR    4200  0    
2019/08/14  17:18:00  BASE  10.1018  338  11.1308  341  -2.0  100   -2.0  74    0     989.6    NA       0.0000   -SN      BR    6000  0    
2019/08/14  17:19:00  BASE  9.1728   339  11.1308  341  -2.0  100   -2.0  75    0     989.6    NA       0.0000   -SN      BR    7000  0    
2019/08/14  17:20:00  BASE  8.7318   340  11.1308  341  -2.0  100   -2.0  72    0     989.6    NA       0.0000   -SN      BR    7000  0    
2019/08/14  17:21:00  BASE  8.77296  338  11.1308  341  -2.0  100   -2.0  68    0     989.6    NA       0.0000   -SN      BR    7000  0    
2019/08/14  17:22:00  BASE  8.14968  335  11.1308  341  -2.0  100   -2.0  63    0     989.6    NA       0.0000   -SN      BR    5000  0    
2019/08/14  17:23:00  BASE  8.1732   333  11.1308  341  -2.0  100   -2.0  59    0     989.5    NA       0.0000   -SN      BR    4400  0    
2019/08/14  17:24:00  BASE  8.94936  334  10.978   336  -2.0  100   -2.0  57    0     989.4    NA       0.0000   -SN      BR    4600  0    
2019/08/14  17:25:00  BASE  9.51972  333  10.978   336  -2.0  100   -2.0  58    0     989.4    NA       0.0000   -SN      BR    5000  0    
2019/08/14  17:26:00  BASE  9.6138   333  10.978   336  -2.0  100   -2.0  58    0     989.4    NA       0.0000   -SN      BR    3900  0    
2019/08/14  17:27:00  BASE  9.2316   335  10.8898  331  -2.0  100   -2.0  57    0     989.4    NA       0.0000   -SN      BR    4900  0    
2019/08/14  17:28:00  BASE  9.77256  333  11.7953  332  -2.0  100   -2.0  56    0     989.2    NA       0.0000   -SN      BR    4900  0    
2019/08/14  17:29:00  BASE  10.0724  334  11.7953  332  -2.0  100   -2.0  55    0     989.3    NA       0.0000   -SN      BR    4300  0    
2019/08/14  17:30:00  BASE  9.50796  338  11.7953  332  -2.0  100   -2.0  53    0     989.2    NA       0.0000   -SN      BR    6000  0    
2019/08/14  17:31:00  BASE  9.85488  339  11.7953  332  -2.0  100   -2.0  53    0     989.2    NA       0.0000   -SN      BR    6000  0    
2019/08/14  17:32:00  BASE  9.76668  338  11.7953  332  -2.0  100   -2.0  53    0     989.2    NA       0.0000   -SN      BR    6000  0    
2019/08/14  17:33:00  BASE  10.0607  339  11.7953  332  -2.0  100   -2.0  55    0     989.1    NA       0.0000   -SN      BR    6000  0    
2019/08/14  17:34:00  BASE  10.1254  340  11.7953  332  -2.0  100   -2.0  57    0     989.2    NA       0.0000   -SN      BR    6000  0    
2019/08/14  17:35:00  BASE  9.57264  339  11.7953  332  -2.0  100   -2.0  58    0     989.2    NA       0.0000   -SN      BR    6000  0    
2019/08/14  17:36:00  BASE  9.47856  339  11.7953  332  -2.0  100   -2.0  58    0     989.2    NA       0.0000   -SN      BR    6000  0    
2019/08/14  17:37:00  BASE  9.33744  337  11.7953  332  -2.0  100   -2.0  58    0     989.2    NA       0.0000   -SN      BR    6000  0    
2019/08/14  17:38:00  BASE  9.30216  335  11.1014  340  -2.0  100   -2.0  58    0     989.2    NA       0.0000   -SN      BR    6000  0    
2019/08/14  17:39:00  BASE  8.97288  338  11.1014  340  -2.0  100   -2.0  59    0     989.2    NA       0.0000   BR       6000  0     0    
2019/08/14  17:40:00  BASE  8.56716  338  11.1014  340  -2.0  100   -2.0  63    0     989.1    NA       0.0000   BR       6000  0     0    
2019/08/14  17:41:00  BASE  9.10224  338  11.1014  340  -2.0  100   -2.0  67    0     989.1    NA       0.0000   BR       6000  0     0    
2019/08/14  17:42:00  BASE  9.65496  338  11.1014  340  -2.0  100   -2.0  67    0     989.1    NA       0.0000   -SN      BR    6000  0    
2019/08/14  17:43:00  BASE  9.54912  337  10.4958  338  -1.9  100   -1.9  65    0     989.1    NA       0.0000   -SN      BR    6000  0    
2019/08/14  17:44:00  BASE  9.22572  336  10.4958  338  -1.9  100   -1.9  63    0     989.1    NA       0.0000   -SN      BR    5000  0    
2019/08/14  17:45:00  BASE  8.9082   334  10.437   339  -1.9  100   -1.9  61    0     989.1    NA       0.0000   -SN      BR    4100  0    
2019/08/14  17:46:00  BASE  9.24924  335  10.437   339  -1.9  100   -1.9  61    0     989.0    NA       0.0000   -SN      BR    4400  0    
2019/08/14  17:47:00  BASE  9.17868  336  10.437   339  -1.9  100   -1.9  60    0     989.1    NA       0.0000   -SN      BR    4600  0    
2019/08/14  17:48:00  BASE  8.3496   335  10.437   339  -1.9  100   -1.9  58    0     989.1    NA       0.0000   -SN      BR    4500  0    
2019/08/14  17:49:00  BASE  8.39076  333  10.437   339  -1.9  100   -1.9  55    0     989.1    NA       0.0000   -SN      BR    3100  0    
2019/08/14  17:50:00  BASE  9.06108  332  10.437   339  -1.9  100   -1.9  52    0     989.0    NA       0.0000   -SN      BR    4200  0    
2019/08/14  17:51:00  BASE  9.26688  332  10.2547  339  -1.9  100   -1.9  49    0     989.0    NA       0.0000   -SN      BR    4500  0    
2019/08/14  17:52:00  BASE  9.3786   333  10.3135  332  -1.9  100   -1.9  47    0     989.0    NA       0.0000   -SN      BR    4000  0    
2019/08/14  17:53:00  BASE  9.4962   333  10.3135  332  -1.9  100   -1.9  45    0     989.0    NA       0.0000   -SN      BR    4900  0    
2019/08/14  17:54:00  BASE  9.77256  330  10.831   327  -1.9  100   -1.9  43    0     989.0    NA       0.0000   -SN      BR    4400  0    
2019/08/14  17:55:00  BASE  10.043   332  10.831   327  -1.9  100   -1.9  43    0     989.0    NA       0.0000   -SN      BR    2800  0    
2019/08/14  17:56:00  BASE  9.97836  334  10.831   326  -1.9  100   -1.9  44    0     989.0    NA       0.0000   -SN      BR    3000  0    
2019/08/14  17:57:00  BASE  9.97248  332  11.5836  330  -1.9  100   -1.9  45    0     988.9    NA       0.0000   -SN      BR    3300  0    
2019/08/14  17:58:00  BASE  9.57264  332  11.5836  330  -1.9  100   -1.9  45    0     989.0    NA       0.0000   -SN      BR    3900  0    
2019/08/14  17:59:00  BASE  9.32568  333  11.5836  330  -1.9  100   -1.9  46    0     988.9    NA       0.0000   -SN      BR    3800  0    
2019/08/14  18:00:00  BASE  9.59616  335  11.5836  330  -1.9  100   -1.9  47    0     988.8    NA       0.0000   -SN      BR    3800  0    
2019/08/14  18:01:00  BASE  9.20808  338  11.5836  330  -1.9  100   -1.9  49    0     988.9    NA       0.0000   -SN      BR    5000  0    
2019/08/14  18:02:00  BASE  8.71416  338  11.5836  330  -1.9  100   -1.9  51    0     988.9    NA       0.2540   -SN      BR    5000  0    
2019/08/14  18:03:00  BASE  8.60832  336  11.5836  330  -1.9  100   -1.9  51    0     988.8    NA       0.0000   -SN      BR    5000  0    
2019/08/14  18:04:00  BASE  8.57892  335  11.5836  330  -1.9  100   -1.9  51    0     988.8    NA       0.0000   -SN      BR    5000  0    
2019/08/14  18:05:00  BASE  9.30216  333  11.5836  330  -1.9  100   -1.9  51    0     988.7    NA       0.0000   -SN      BR    4300  0    
2019/08/14  18:06:00  BASE  9.60792  333  11.5836  330  -1.9  100   -1.9  53    0     988.7    NA       0.0000   -SN      BR    4500  0    
2019/08/14  18:07:00  BASE  9.30216  335  11.2543  330  -1.9  100   -1.9  55    0     988.7    NA       0.0000   -SN      BR    5000  0    
2019/08/14  18:08:00  BASE  9.04932  336  11.2543  330  -1.9  100   -1.9  58    0     988.7    NA       0.0000   -SN      BR    5000  0    
2019/08/14  18:09:00  BASE  8.59068  337  11.2543  330  -1.9  100   -1.9  63    0     988.7    NA       0.0000   -SN      BR    4500  0    
2019/08/14  18:10:00  BASE  8.8788   335  11.2543  330  -1.9  100   -1.9  66    0     988.6    NA       0.0000   -SN      BR    3400  0    
2019/08/14  18:11:00  BASE  9.59616  333  11.2543  330  -1.9  100   -1.9  65    0     988.6    NA       0.0000   -SN      BR    3600  0    
2019/08/14  18:12:00  BASE  9.57264  333  11.2543  330  -1.9  100   -1.9  59    0     988.6    NA       0.0000   -SN      BR    3100  0    
2019/08/14  18:13:00  BASE  9.91368  335  11.3425  332  -1.9  100   -1.9  51    0     988.5    NA       0.0000   -SN      BR    4500  0    
2019/08/14  18:14:00  BASE  9.91956  334  11.3425  332  -1.9  100   -1.9  43    0     988.6    NA       0.0000   -SN      BR    5000  0    
2019/08/14  18:15:00  BASE  9.53736  333  11.3425  332  -1.9  100   -1.9  38    0     988.5    NA       0.0000   -SN      BR    5000  0    
2019/08/14  18:16:00  BASE  9.75492  332  11.3425  332  -1.9  100   -1.9  35    0     988.5    NA       0.0000   -SN      BR    4500  0    
2019/08/14  18:17:00  BASE  9.60792  332  11.3425  332  -1.9  100   -1.9  34    0     988.5    NA       0.0000   -SN      BR    3300  0    
2019/08/14  18:18:00  BASE  9.261    333  11.3425  332  -1.9  100   -1.9  35    0     988.5    NA       0.0000   -SN      BR    3300  0    
2019/08/14  18:19:00  BASE  8.99052  334  11.3425  332  -1.9  100   -1.9  36    0     988.5    NA       0.0000   -SN      BR    3200  0    
2019/08/14  18:20:00  BASE  9.37272  334  11.3425  332  -1.9  100   -1.9  36    0     988.5    NA       0.0000   -SN      BR    4000  0    
2019/08/14  18:21:00  BASE  9.6432   334  11.3425  332  -1.9  100   -1.9  36    0     988.5    NA       0.0000   -SN      BR    4000  0    
2019/08/14  18:22:00  BASE  9.37272  332  11.3425  332  -1.9  100   -1.9  36    0     988.5    NA       0.0000   -SN      BR    3900  0    
2019/08/14  18:23:00  BASE  8.9376   330  10.6487  333  -1.9  100   -1.9  36    0     988.5    NA       0.0000   -SN      BR    3900  0    
2019/08/14  18:24:00  BASE  8.60832  331  10.6487  333  -1.9  100   -1.9  36    0     988.5    NA       0.0000   -SN      BR    3900  0    
2019/08/14  18:25:00  BASE  8.81412  334  10.5252  331  -1.9  100   -1.9  35    0     988.5    NA       0.0000   -SN      BR    3900  0    
2019/08/14  18:26:00  BASE  9.23748  333  10.5252  331  -1.9  100   -1.9  35    0     988.5    NA       0.0000   -SN      BR    3900  0    
2019/08/14  18:27:00  BASE  9.38448  332  10.5252  331  -1.9  100   -1.9  34    0     988.5    NA       0.0000   -SN      BR    3800  0    
2019/08/14  18:28:00  BASE  8.91408  331  10.5252  331  -1.8  100   -1.8  32    0     988.5    NA       0.0000   -SN      BR    3800  0    
2019/08/14  18:29:00  BASE  8.70828  331  10.4076  334  -1.8  100   -1.8  30    0     988.5    NA       0.0000   -SN      BR    3900  0    
2019/08/14  18:30:00  BASE  8.81412  331  10.1312  333  -1.8  100   -1.8  27    0     988.5    NA       0.0000   -SN      BR    4300  0    
2019/08/14  18:31:01  BASE  8.75532  330  10.1312  333  -1.8  100   -1.8  23    0     988.5    NA       0.0000   -SN      BR    4400  0    
2019/08/14  18:32:00  BASE  9.24336  332  10.437   334  -1.8  100   -1.8  21    0     988.4    NA       0.0000   -SN      BR    4400  0    
2019/08/14  18:33:00  BASE  9.54324  333  10.437   334  -1.8  100   -1.8  20    0     988.4    NA       0.0000   -SN      BR    4300  0    
2019/08/14  18:34:00  BASE  9.48444  331  10.437   334  -1.8  100   -1.8  20    0     988.4    NA       0.0000   -SN      BR    4300  0    
2019/08/14  18:35:00  BASE  9.36684  330  10.437   334  -1.8  100   -1.8  20    0     988.4    NA       0.0000   -SN      BR    4300  0    
2019/08/14  18:36:00  BASE  8.85528  332  10.437   334  -1.8  100   -1.8  21    0     988.4    NA       0.0000   -SN      BR    4300  0    
2019/08/14  18:37:00  BASE  8.78472  332  10.437   334  -1.8  100   -1.8  22    0     988.4    NA       0.0000   -SN      BR    4300  0    
2019/08/14  18:38:00  BASE  9.04932  331  10.437   334  -1.8  100   -1.8  23    0     988.4    NA       0.0000   -SN      BR    4200  0    
2019/08/14  18:39:00  BASE  8.97876  333  10.437   334  -1.8  100   -1.8  23    0     988.4    NA       0.0000   BR       4200  0     0    
2019/08/14  18:40:00  BASE  8.60832  333  10.437   334  -1.8  100   -1.8  22    0     988.3    NA       0.0000   BR       4200  0     0    
2019/08/14  18:41:00  BASE  8.53776  333  10.437   334  -1.8  100   -1.8  21    0     988.3    NA       0.0000   BR       4200  0     0    
2019/08/14  18:42:00  BASE  8.49072  333  10.1018  333  -1.8  100   -1.8  21    0     988.3    NA       0.0000   BR       4200  0     0    
2019/08/14  18:43:00  BASE  8.71416  332  10.1018  333  -1.8  100   -1.8  22    0     988.2    NA       0.0000   BR       4200  0     0    
2019/08/14  18:44:00  BASE  8.76708  332  9.98424  330  -1.8  100   -1.8  22    0     988.2    NA       0.0000   BR       4100  0     0    
2019/08/14  18:45:00  BASE  8.526    333  9.98424  330  -1.8  100   -1.8  22    0     988.2    NA       0.0000   BR       4100  0     0    
2019/08/14  18:46:00  BASE  8.379    335  9.98424  330  -1.8  100   -1.8  22    0     988.2    NA       0.0000   BR       4100  0     0    
2019/08/14  18:47:00  BASE  8.02032  336  9.98424  330  -1.8  100   -1.8  21    0     988.2    NA       0.0000   BR       4100  0     0    
2019/08/14  18:48:00  BASE  7.71456  337  9.86076  329  -1.8  100   -1.8  21    0     988.2    NA       0.2540   BR       4800  0     0    
2019/08/14  18:49:00  BASE  7.22064  338  9.86076  329  -1.8  100   -1.8  20    0     988.2    NA       0.0000   -SN      BR    9000  0    
2019/08/14  18:50:00  BASE  7.15008  337  9.86076  329  -1.8  100   -1.8  19    0     988.2    NA       0.0000   -SN      BR    8000  0    
2019/08/14  18:51:00  BASE  7.20888  338  9.80196  330  -1.8  100   -1.8  17    0     988.2    NA       0.0000   -SN      BR    7000  0    
2019/08/14  18:52:00  BASE  7.17948  337  9.80196  330  -1.8  100   -1.8  16    0     988.2    NA       0.0000   -SN      BR    8000  0    
2019/08/14  18:53:00  BASE  7.44408  336  9.80196  330  -1.8  100   -1.8  16    0     988.1    NA       0.0000   -SN      BR    8000  0    
2019/08/14  18:54:00  BASE  7.53816  336  9.4962   336  -1.7  100   -1.7  17    0     988.1    NA       0.0000   -SN      BR    8000  0    
2019/08/14  18:55:00  BASE  7.34412  335  9.4962   336  -1.7  100   -1.7  20    0     988.1    NA       0.0000   -SN      BR    6000  0    
2019/08/14  18:56:00  BASE  7.27944  335  9.4962   336  -1.7  100   -1.7  21    0     988.0    NA       0.0000   -SN      BR    7000  0    
2019/08/14  18:57:00  BASE  7.3794   335  8.86116  333  -1.7  100   -1.7  22    0     988.0    NA       0.0000   -SN      BR    6000  0    
2019/08/14  18:58:00  BASE  7.77336  333  8.98464  331  -1.7  100   -1.7  21    0     988.0    NA       0.0000   -SN      BR    9000  0    
2019/08/14  18:59:00  BASE  7.80864  333  8.98464  331  -1.7  100   -1.7  20    0     988.0    NA       0.0000   -SN      BR    9000  0    
2019/08/14  19:00:00  BASE  7.34412  334  8.98464  331  -1.7  100   -1.7  18    0     988.0    NA       0.0000   -SN      BR    9000  0    
2019/08/14  19:01:00  BASE  7.4382   333  8.98464  331  -1.7  100   -1.7  15    0     988.0    NA       0.0000   -SN      BR    9000  0    
2019/08/14  19:02:00  BASE  7.99092  331  9.07284  332  -1.7  100   -1.7  13    0     987.9    NA       0.0000   -SN      BR    8000  0    
2019/08/14  19:03:00  BASE  8.37312  332  9.07284  332  -1.7  100   -1.7  12    0     987.9    NA       0.0000   -SN      BR    8000  0    
2019/08/14  19:04:00  BASE  8.13792  333  9.07284  332  -1.7  100   -1.7  11    0     987.9    NA       0.0000   -SN      BR    8000  0    
2019/08/14  19:05:00  BASE  7.92036  333  9.07284  332  -1.7  100   -1.7  10    0     987.9    NA       0.0000   -SN      BR    8000  0    
2019/08/14  19:06:00  BASE  8.01444  329  9.07284  332  -1.7  100   -1.7  9     0     987.9    NA       0.0000   -SN      BR    8000  0    
2019/08/14  19:07:00  BASE  8.00856  329  9.07284  332  -1.7  100   -1.7  8     0     987.9    NA       0.0000   -SN      BR    8000  0    
2019/08/14  19:08:00  BASE  7.97328  330  9.07284  332  -1.7  100   -1.7  8     0     987.9    NA       0.0000   -SN      BR    8000  0    
2019/08/14  19:09:00  BASE  7.74396  330  9.07284  332  -1.7  100   -1.7  8     0     987.9    NA       0.0000   -SN      BR    8000  0    
2019/08/14  19:10:00  BASE  7.74396  329  9.07284  332  -1.7  100   -1.7  7     0     987.9    NA       0.0000   -SN      BR    6000  0    
2019/08/14  19:11:00  BASE  7.9674   329  9.07284  332  -1.7  100   -1.7  7     0     987.8    NA       0.0000   -SN      BR    4600  0    
2019/08/14  19:12:00  BASE  7.9086   330  8.98464  328  -1.7  100   -1.7  7     0     987.8    NA       0.0000   -SN      BR    5000  0    
2019/08/14  19:13:00  BASE  7.78512  330  8.98464  328  -1.7  100   -1.7  7     0     987.8    NA       0.0000   -SN      BR    5000  0    
2019/08/14  19:14:00  BASE  7.70868  329  8.98464  328  -1.7  100   -1.7  7     0     987.8    NA       0.0000   -SN      BR    5000  0    
2019/08/14  19:15:00  BASE  7.63224  329  8.92584  329  -1.7  100   -1.7  7     0     987.8    NA       0.0000   -SN      BR    4900  0    
2019/08/14  19:16:01  BASE  7.88508  329  9.10224  332  -1.7  100   -1.7  7     0     987.7    NA       0.0000   -SN      BR    4400  0    
2019/08/14  19:17:00  BASE  7.94388  332  9.10224  332  -1.7  100   -1.7  7     0     987.7    NA       0.0000   -SN      BR    4400  0    
2019/08/14  19:18:00  BASE  7.86156  333  9.10224  332  -1.7  100   -1.7  7     0     987.7    NA       0.2540   -SN      BR    5000  0    
2019/08/14  19:19:00  BASE  7.77336  332  9.10224  332  -1.7  100   -1.7  8     0     987.7    NA       0.0000   -SN      BR    5000  0    
2019/08/14  19:20:00  BASE  7.50288  331  9.10224  332  -1.7  100   -1.7  8     0     987.7    NA       0.0000   -SN      BR    5000  0    
2019/08/14  19:21:00  BASE  7.6146   332  9.10224  332  -1.7  100   -1.7  8     0     987.6    NA       0.0000   -SN      BR    5000  0    
2019/08/14  19:22:00  BASE  7.77924  332  9.10224  332  -1.7  100   -1.7  8     0     987.6    NA       0.0000   -SN      BR    5000  0    
2019/08/14  19:23:00  BASE  7.66164  331  9.10224  332  -1.8  100   -1.8  8     0     987.6    NA       0.0000   -SN      BR    4700  0    
2019/08/14  19:24:00  BASE  7.44996  332  9.10224  332  -1.8  100   -1.8  8     0     987.6    NA       0.0000   -SN      BR    4100  0    
2019/08/14  19:25:00  BASE  7.47936  332  9.10224  332  -1.8  100   -1.8  8     0     987.6    NA       0.0000   -SN      BR    5000  0    
2019/08/14  19:26:00  BASE  7.87332  333  8.83176  335  -1.8  100   -1.8  8     0     987.5    NA       0.0000   -SN      BR    5000  0    
2019/08/14  19:27:00  BASE  7.9968   334  8.83176  335  -1.8  100   -1.8  8     0     987.5    NA       0.0000   -SN      BR    6000  0    
2019/08/14  19:28:00  BASE  7.91448  333  8.83176  335  -1.8  100   -1.8  7     0     987.5    NA       0.0000   -SN      BR    6000  0    
2019/08/14  19:29:00  BASE  7.96152  334  8.83176  335  -1.8  100   -1.8  7     0     987.4    NA       0.0000   -SN      BR    6000  0    
2019/08/14  19:30:00  BASE  7.76748  333  8.83176  335  -1.8  100   -1.8  7     0     987.5    NA       0.0000   -SN      BR    6000  0    
2019/08/14  19:31:00  BASE  7.4088   334  8.83176  335  -1.8  100   -1.8  7     0     987.5    NA       0.0000   -SN      BR    5000  0    
2019/08/14  19:32:00  BASE  6.90312  335  8.83176  335  -1.8  100   -1.8  7     0     987.4    NA       0.0000   -SN      BR    5000  0    
2019/08/14  19:33:00  BASE  6.78552  336  8.83176  335  -1.8  100   -1.8  7     0     987.4    NA       0.0000   -SN      BR    4700  0    
2019/08/14  19:34:00  BASE  7.03248  334  8.83176  335  -1.8  100   -1.8  7     0     987.4    NA       0.0000   -SN      BR    5000  0    
2019/08/14  19:35:00  BASE  6.86196  334  8.83176  335  -1.8  100   -1.8  7     0     987.4    NA       0.0000   -SN      BR    5000  0    
2019/08/14  19:36:00  BASE  6.81492  333  8.59068  333  -1.8  100   -1.8  7     0     987.5    NA       0.0000   -SN      BR    4500  0    
2019/08/14  19:37:00  BASE  6.81492  334  8.59068  333  -1.8  100   -1.8  7     0     987.4    NA       0.0000   -SN      BR    5000  0    
2019/08/14  19:38:00  BASE  6.78552  336  8.25552  333  -1.8  100   -1.8  6     0     987.4    NA       0.0000   -SN      BR    5000  0    
2019/08/14  19:39:00  BASE  6.8208   336  8.04384  328  -1.8  100   -1.8  6     0     987.5    NA       0.0000   -SN      BR    5000  0    
2019/08/14  19:40:00  BASE  6.80904  336  7.98504  330  -1.8  100   -1.8  6     0     987.5    NA       0.0000   -SN      BR    5000  0    
2019/08/14  19:41:00  BASE  6.69144  336  7.80276  329  -1.8  100   -1.8  6     0     987.5    NA       0.0000   -SN      BR    7000  0    
2019/08/14  19:42:00  BASE  6.38568  337  7.80276  329  -1.8  100   -1.8  6     0     987.5    NA       0.0000   -SN      BR    7000  0    
2019/08/14  19:43:00  BASE  6.3504   336  7.80276  329  -1.8  100   -1.8  6     0     987.5    NA       0.0000   -SN      BR    6000  0    
2019/08/14  19:44:00  BASE  6.65028  337  7.80276  329  -1.8  100   -1.8  6     0     987.5    NA       0.0000   -SN      BR    6000  0    
2019/08/14  19:45:00  BASE  6.90312  335  7.80276  329  -1.8  100   -1.8  6     0     987.5    NA       0.0000   -SN      BR    6000  0    
2019/08/14  19:46:00  BASE  6.71496  333  7.80276  329  -1.8  100   -1.8  6     0     987.5    NA       0.0000   -SN      BR    6000  0    
2019/08/14  19:47:00  BASE  6.63264  335  7.80276  329  -1.8  100   -1.8  6     0     987.5    NA       0.0000   -SN      BR    6000  0    
2019/08/14  19:48:00  BASE  7.05012  334  7.59108  335  -1.8  100   -1.8  5     0     987.4    NA       0.0000   -SN      BR    6000  0    
2019/08/14  19:49:00  BASE  7.27356  333  8.50248  332  -1.8  100   -1.8  5     0     987.4    NA       0.0000   -SN      BR    5000  0    
2019/08/14  19:50:00  BASE  7.4382   334  8.50248  332  -1.8  100   -1.8  5     0     987.4    NA       0.2540   -SN      BR    5000  0    
2019/08/14  19:51:00  BASE  7.17948  336  8.50248  332  -1.8  100   -1.8  5     0     987.4    NA       0.0000   -SN      BR    5000  0    
2019/08/14  19:52:00  BASE  6.69732  336  8.50248  332  -1.8  100   -1.8  5     0     987.4    NA       0.0000   -SN      BR    5000  0    
2019/08/14  19:53:00  BASE  6.90312  335  8.50248  332  -1.8  100   -1.8  5     0     987.4    NA       0.0000   -SN      BR    5000  0    
2019/08/14  19:54:00  BASE  7.65576  333  8.64948  327  -1.8  100   -1.8  5     0     987.3    NA       0.0000   -SN      BR    5000  0    
2019/08/14  19:55:00  BASE  7.84392  333  8.64948  327  -1.8  100   -1.8  5     0     987.4    NA       0.0000   -SN      BR    5000  0    
2019/08/14  19:56:00  BASE  7.36764  334  8.64948  327  -1.8  100   -1.8  4     0     987.4    NA       0.0000   -SN      BR    5000  0    
2019/08/14  19:57:00  BASE  7.27944  333  8.64948  327  -1.8  100   -1.8  4     0     987.4    NA       0.0000   -SN      BR    5000  0    
2019/08/14  19:58:00  BASE  7.06188  335  8.64948  327  -1.8  100   -1.8  4     0     987.4    NA       0.0000   -SN      BR    5000  0    
2019/08/14  19:59:00  BASE  6.86196  335  8.64948  327  -1.8  100   -1.8  4     0     987.3    NA       0.0000   -SN      BR    5000  0    
2019/08/14  20:00:00  BASE  6.8502   336  8.64948  327  -1.8  100   -1.8  4     0     987.3    NA       0.0000   -SN      BR    5000  0    
2019/08/14  20:01:00  BASE  6.84432  339  8.64948  327  -1.8  100   -1.8  4     0     987.3    NA       0.0000   -SN      BR    4900  0    
2019/08/14  20:02:00  BASE  7.03248  337  8.64948  327  -1.8  100   -1.8  4     0     987.3    NA       0.0000   -SN      BR    4800  0    
2019/08/14  20:03:00  BASE  7.23828  335  8.64948  327  -1.8  100   -1.8  4     0     987.3    NA       0.0000   -SN      BR    4900  0    
2019/08/14  20:04:00  BASE  7.16184  336  8.13792  335  -1.8  100   -1.8  4     0     987.3    NA       0.0000   -SN      BR    4900  0    
2019/08/14  20:05:00  BASE  7.056    338  8.04384  328  -1.8  100   -1.8  3     0     987.3    NA       0.0000   -SN      BR    5000  0    
2019/08/14  20:06:00  BASE  7.04424  338  8.01444  334  -1.8  100   -1.8  3     0     987.3    NA       0.0000   -SN      BR    4900  0    
2019/08/14  20:07:00  BASE  6.87372  338  7.95564  331  -1.8  100   -1.8  3     0     987.3    NA       0.0000   -SN      BR    4900  0    
2019/08/14  20:08:00  BASE  6.90312  338  7.95564  331  -1.8  100   -1.8  3     0     987.2    NA       0.0000   -SN      BR    4900  0    
2019/08/14  20:09:00  BASE  7.03836  338  7.95564  331  -1.8  100   -1.8  3     0     987.3    NA       0.0000   -SN      BR    4800  0    
2019/08/14  20:10:00  BASE  6.9972   336  7.95564  331  -1.8  100   -1.8  3     0     987.2    NA       0.0000   -SN      BR    4800  0    
2019/08/14  20:11:00  BASE  6.762    335  7.95564  331  -1.8  100   -1.8  2     0     987.2    NA       0.0000   -SN      BR    4800  0    
2019/08/14  20:12:00  BASE  6.83844  337  7.95564  331  -1.8  100   -1.8  2     0     987.2    NA       0.0000   BR       4700  0     0    
2019/08/14  20:13:00  BASE  7.06188  339  7.89684  340  -1.8  100   -1.8  2     0     987.2    NA       0.0000   BR       4700  0     0    
2019/08/14  20:14:00  BASE  6.98544  338  7.89684  340  -1.8  100   -1.8  2     0     987.2    NA       0.0000   BR       4700  0     0    
2019/08/14  20:15:00  BASE  6.94428  339  7.89684  340  -1.8  100   -1.8  2     0     987.2    NA       0.0000   BR       4600  0     0    
2019/08/14  20:16:00  BASE  6.8502   339  7.89684  340  -1.8  100   -1.8  2     0     987.2    NA       0.0000   BR       5000  0     0    
2019/08/14  20:17:00  BASE  6.89724  339  7.71456  341  -1.8  100   -1.8  2     0     987.2    NA       0.0000   -SN      BR    9000  0    
2019/08/14  20:18:00  BASE  6.82668  340  7.71456  341  -1.8  100   -1.8  2     0     987.2    NA       0.0000   -SN      BR    9000  0    
2019/08/14  20:19:00  BASE  7.0266   339  8.07912  336  -1.8  100   -1.8  2     0     987.2    NA       0.0000   -SN      BR    9000  0    
2019/08/14  20:20:00  BASE  7.2324   338  8.07912  336  -1.8  100   -1.8  2     0     987.2    NA       0.0000   -SN      BR    9000  0    
2019/08/14  20:21:00  BASE  6.90312  337  8.07912  336  -1.8  100   -1.8  2     0     987.2    NA       0.0000   -SN      BR    9000  0    
2019/08/14  20:22:00  BASE  7.056    336  8.07912  336  -1.8  100   -1.8  2     0     987.2    NA       0.0000   -SN      BR    9000  0    
2019/08/14  20:23:00  BASE  7.35     333  8.07912  336  -1.8  100   -1.8  2     0     987.2    NA       0.0000   -SN      BR    8000  0    
2019/08/14  20:24:00  BASE  7.1736   333  8.07912  336  -1.8  100   -1.8  2     0     987.2    NA       0.0000   -SN      BR    7000  0    
2019/08/14  20:25:00  BASE  6.72672  336  8.07912  336  -1.8  100   -1.8  2     0     987.1    NA       0.0000   -SN      BR    8000  0    
2019/08/14  20:26:00  BASE  6.57384  338  8.07912  336  -1.7  100   -1.7  1     0     987.1    NA       0.0000   -SN      BR    8000  0    
2019/08/14  20:27:00  BASE  7.1148   338  8.07912  336  -1.7  100   -1.7  1     0     987.1    NA       0.0000   -SN      BR    8000  0    
2019/08/14  20:28:00  BASE  7.72044  339  8.80236  332  -1.7  100   -1.7  1     0     987.0    NA       0.0000   -SN      BR    9000  0    
2019/08/14  20:29:00  BASE  7.85568  339  8.80236  332  -1.7  100   -1.7  1     0     987.0    NA       0.0000   -SN      BR    9999  0    
2019/08/14  20:30:00  BASE  7.66752  338  8.80236  332  -1.7  100   -1.7  1     0     987.1    NA       0.0000   -SN      BR    9999  0    
2019/08/14  20:31:00  BASE  7.39704  337  8.80236  332  -1.7  100   -1.7  1     0     987.1    NA       0.0000   -SN      BR    9999  0    
2019/08/14  20:32:00  BASE  7.30296  337  8.80236  332  -1.7  100   -1.7  1     0     987.1    NA       0.0000   -SN      BR    9999  0    
2019/08/14  20:33:00  BASE  7.497    337  8.80236  332  -1.7  100   -1.7  1     0     987.0    NA       0.0000   -SN      BR    9999  0    
2019/08/14  20:34:00  BASE  7.35     338  8.80236  332  -1.7  100   -1.7  1     0     987.0    NA       0.0000   -SN      BR    9999  0    
2019/08/14  20:35:00  BASE  7.15008  339  8.80236  332  -1.7  100   -1.7  1     0     987.0    NA       0.0000   -SN      BR    9999  0    
2019/08/14  20:36:00  BASE  7.03836  338  8.80236  332  -1.7  100   -1.7  1     0     987.0    NA       0.0000   -SN      BR    9999  0    
2019/08/14  20:37:00  BASE  6.83256  336  8.80236  332  -1.7  100   -1.7  1     0     987.0    NA       0.0000   -SN      BR    9999  0    
2019/08/14  20:38:00  BASE  7.09716  336  8.53188  337  -1.7  100   -1.7  1     0     986.9    NA       0.0000   BR       9999  0     0    
2019/08/14  20:39:00  BASE  7.70868  338  8.4672   336  -1.7  100   -1.7  1     0     986.8    NA       0.0000   BR       9999  0     0    
2019/08/14  20:40:00  BASE  7.89684  338  8.53188  335  -1.7  100   -1.7  1     0     986.8    NA       0.0000   BR       9999  0     0    
2019/08/14  20:41:00  BASE  7.59108  336  8.53188  335  -1.7  100   -1.7  1     0     986.8    NA       0.0000   BR       9999  0     0    
2019/08/14  20:42:00  BASE  7.42644  336  8.53188  335  -1.7  100   -1.7  1     0     986.8    NA       0.0000   BR       8000  0     0    
2019/08/14  20:43:00  BASE  7.23828  337  8.53188  335  -1.7  100   -1.7  1     0     986.7    NA       0.0000   -SN      BR    7000  0    
2019/08/14  20:44:00  BASE  7.41468  339  8.53188  335  -1.7  100   -1.7  1     0     986.7    NA       0.2540   -SN      BR    9000  0    
2019/08/14  20:45:00  BASE  8.00268  339  8.59068  336  -1.7  100   -1.7  1     0     986.7    NA       0.0000   -SN      BR    9000  0    
2019/08/14  20:46:00  BASE  8.23788  338  8.74356  340  -1.7  100   -1.7  1     0     986.6    NA       0.0000   -SN      BR    9999  0    
2019/08/14  20:47:00  BASE  7.97328  338  8.74356  340  -1.7  100   -1.7  0     0     986.6    NA       0.0000   -SN      BR    9999  0    
2019/08/14  20:48:00  BASE  7.83804  339  8.74356  340  -1.7  100   -1.7  0     0     986.6    NA       0.0000   -SN      BR    9999  0    
2019/08/14  20:49:00  BASE  7.83216  339  8.74356  340  -1.7  100   -1.7  0     0     986.6    NA       0.0000   -SN      BR    9999  0    
2019/08/14  20:50:00  BASE  7.92036  339  8.74356  340  -1.7  100   -1.7  0     0     986.6    NA       0.0000   -SN      BR    9999  0    
2019/08/14  20:51:00  BASE  7.98504  339  8.74356  340  -1.7  100   -1.7  0     0     986.6    NA       0.0000   -SN      BR    9999  0    
2019/08/14  20:52:00  BASE  7.9968   339  8.74356  340  -1.7  100   -1.7  0     0     986.6    NA       0.0000   -SN      BR    9999  0    
2019/08/14  20:53:00  BASE  7.938    339  8.74356  340  -1.7  100   -1.7  0     0     986.6    NA       0.0000   -SN      9999  0     0    
2019/08/14  20:54:00  BASE  7.62048  339  8.74356  340  -1.7  100   -1.7  0     0     986.6    NA       0.0000   -SN      9999  0     0    
2019/08/14  20:55:00  BASE  7.44408  339  8.74356  340  -1.7  100   -1.7  0     0     986.6    NA       0.0000   -SN      9999  0     0    
2019/08/14  20:56:00  BASE  7.18536  339  8.71416  339  -1.7  100   -1.7  0     0     986.6    NA       0.0000   -SN      9999  0     0    
2019/08/14  20:57:00  BASE  6.93252  338  8.71416  339  -1.7  100   -1.7  0     0     986.5    NA       0.0000   -SN      9999  0     0    
2019/08/14  20:58:00  BASE  6.95016  337  8.71416  339  -1.7  100   -1.7  0     0     986.5    NA       0.0000   -SN      9999  0     0    
2019/08/14  20:59:00  BASE  7.37352  338  8.71416  339  -1.7  100   -1.7  0     0     986.5    NA       0.0000   -SN      9999  0     0    
2019/08/14  21:00:00  BASE  7.77336  338  8.56128  339  -1.7  100   -1.7  0     0     986.5    NA       0.0000   -SN      9999  0     0    
2019/08/14  21:01:00  BASE  7.18536  336  8.56128  339  -1.7  100   -1.7  0     0     986.5    NA       0.0000   -SN      9999  0     0    
2019/08/14  21:02:00  BASE  6.65616  336  8.4084   339  -1.7  100   -1.7  0     0     986.5    NA       0.0000   -SN      9999  0     0    
2019/08/14  21:03:00  BASE  6.86196  338  8.4084   339  -1.7  100   -1.7  0     0     986.5    NA       0.0000   -SN      9999  0     0    
2019/08/14  21:04:00  BASE  7.2912   339  8.4084   339  -1.7  100   -1.7  0     0     986.4    NA       0.0000   -SN      9999  0     0    
2019/08/14  21:05:00  BASE  7.72632  339  8.4084   339  -1.7  100   -1.7  0     0     986.4    NA       0.0000   -SN      9999  0     0    
2019/08/14  21:06:00  BASE  7.57344  338  8.4084   339  -1.7  100   -1.7  0     0     986.4    NA       0.0000   -SN      9999  0     0    
2019/08/14  21:07:00  BASE  7.00308  338  8.4084   339  -1.7  100   -1.7  0     0     986.4    NA       0.0000   -SN      9999  0     0    
2019/08/14  21:08:00  BASE  6.69732  339  8.4084   339  -1.7  100   -1.7  0     0     986.4    NA       0.0000   -SN      9999  0     0    
2019/08/14  21:09:00  BASE  6.53856  338  8.4084   339  -1.7  100   -1.7  0     0     986.4    NA       0.0000   -SN      9999  0     0    
2019/08/14  21:10:00  BASE  6.52092  338  8.10852  339  -1.7  100   -1.7  0     0     986.4    NA       0.0000   9999     0     0     0    
2019/08/14  21:11:00  BASE  6.83844  337  8.10852  339  -1.7  100   -1.7  0     0     986.4    NA       0.0000   9999     0     0     0    
2019/08/14  21:12:00  BASE  6.95604  338  8.10852  339  -1.7  100   -1.7  0     0     986.4    NA       0.0000   -SN      9999  0     0    
2019/08/14  21:13:00  BASE  7.02072  339  8.10852  339  -1.6  100   -1.6  0     0     986.3    NA       0.0000   -SN      9999  0     0    
2019/08/14  21:14:00  BASE  7.17948  336  8.10852  339  -1.6  100   -1.6  0     0     986.3    NA       0.0000   -SN      9999  0     0    
2019/08/14  21:15:00  BASE  6.97956  336  7.95564  334  -1.6  100   -1.6  0     0     986.4    NA       0.0000   -SN      9999  0     0    
2019/08/14  21:16:00  BASE  6.56208  338  7.95564  334  -1.6  100   -1.6  0     0     986.4    NA       0.0000   -SN      9999  0     0    
2019/08/14  21:17:00  BASE  6.7326   334  7.95564  334  -1.6  100   -1.6  0     0     986.3    NA       0.0000   -SN      9999  0     0    
2019/08/14  21:18:00  BASE  6.90312  331  7.95564  334  -1.6  100   -1.6  0     0     986.3    NA       0.0000   -SN      9999  0     0    
2019/08/14  21:19:00  BASE  6.4092   331  7.95564  334  -1.6  100   -1.6  0     0     986.3    NA       0.0000   -SN      9999  0     0    
2019/08/14  21:20:00  BASE  6.50916  333  7.95564  334  -1.6  100   -1.6  0     0     986.2    NA       0.0000   -SN      9999  0     0    
2019/08/14  21:27:00  BASE  6.30924  338  7.86744  329  -1.6  100   -1.6  0     0     986.0    NA       0.0000   -SN      BR    9000  330  
2019/08/14  21:28:00  BASE  6.13284  335  7.86744  329  -1.6  100   -1.6  0     0     986.0    NA       0.0000   -SN      BR    9000  330  
2019/08/14  21:29:00  BASE  6.2622   332  7.86744  329  -1.6  100   -1.6  0     0     986.0    NA       0.0000   -SN      BR    9000  300  
2019/08/14  21:30:00  BASE  6.63264  332  7.68516  330  -1.6  100   -1.6  0     0     985.9    NA       0.0000   -SN      BR    9000  300  
2019/08/14  21:31:00  BASE  6.81492  332  7.68516  330  -1.6  100   -1.6  0     0     985.9    NA       0.0000   BR       8000  260   0    
2019/08/14  21:32:00  BASE  6.2622   334  7.68516  330  -1.6  100   -1.6  0     0     985.9    NA       0.0000   BR       8000  260   0    
2019/08/14  21:33:00  BASE  5.88588  337  7.68516  330  -1.5  100   -1.5  0     0     985.9    NA       0.0000   BR       8000  260   0    
2019/08/14  21:34:00  BASE  6.39744  334  7.68516  330  -1.5  100   -1.5  0     0     985.8    NA       0.0000   BR       8000  230   0    
2019/08/14  21:36:00  BASE  6.92664  330  7.71456  333  -1.5  100   -1.5  0     0     985.8    NA       0.0000   BR       8000  0     0    
2019/08/14  21:37:00  BASE  7.27356  331  8.07912  334  -1.5  100   -1.5  0     0     985.8    NA       0.0000   BR       8000  0     0    
2019/08/14  21:38:00  BASE  7.59108  332  8.50248  329  -1.5  100   -1.5  0     0     985.7    NA       0.0000   BR       9999  0     0    
2019/08/14  21:39:00  BASE  7.80864  332  8.50248  329  -1.5  100   -1.5  0     0     985.7    NA       0.0000   BR       9999  0     0    
2019/08/14  21:40:00  BASE  7.74396  334  8.50248  329  -1.5  100   -1.5  0     0     985.7    NA       0.0000   BR       9999  0     0    
2019/08/14  21:41:00  BASE  7.39704  335  8.50248  329  -1.5  100   -1.5  0     0     985.7    NA       0.0000   BR       9999  0     0    
2019/08/14  21:42:00  BASE  6.78552  336  8.50248  329  -1.5  100   -1.5  0     0     985.7    NA       0.0000   BR       9999  0     0    
2019/08/14  21:43:00  BASE  6.60324  334  8.50248  329  -1.5  100   -1.5  0     0     985.7    NA       0.0000   BR       9999  0     0    
2019/08/14  21:44:00  BASE  6.9678   332  8.50248  329  -1.5  100   -1.5  0     0     985.7    NA       0.0000   9999     0     0     0    
2019/08/14  21:45:00  BASE  7.16772  334  8.50248  329  -1.6  100   -1.6  0     0     985.7    NA       0.0000   9999     0     0     0    
2019/08/14  21:46:00  BASE  7.02072  336  8.50248  329  -1.6  100   -1.6  0     0     985.7    NA       0.0000   9999     0     0     0    
2019/08/14  21:47:00  BASE  6.62088  336  8.50248  329  -1.6  100   -1.6  0     0     985.7    NA       0.0000   9999     0     0     0    
2019/08/14  21:48:00  BASE  6.94428  335  8.3202   328  -1.6  100   -1.6  0     0     985.6    NA       0.0000   9999     0     0     0    
2019/08/14  21:49:00  BASE  7.25004  335  8.25552  333  -1.6  100   -1.6  0     0     985.7    NA       0.0000   9999     0     0     0    
2019/08/14  21:50:00  BASE  7.44408  334  8.2908   324  -1.6  100   -1.6  0     0     985.6    NA       0.0000   -SN      9999  0     0    
2019/08/14  21:51:00  BASE  7.66752  336  8.379    338  -1.5  100   -1.5  0     0     985.6    NA       0.0000   -SN      9000  0     0    
2019/08/14  21:52:00  BASE  7.62636  338  8.379    338  -1.5  100   -1.5  0     0     985.6    NA       0.0000   -SN      9000  0     0    
2019/08/14  21:53:00  BASE  7.72044  334  8.379    338  -1.5  100   -1.5  0     0     985.6    NA       0.0000   -SN      9000  0     0    
2019/08/14  21:54:00  BASE  7.19712  335  8.379    338  -1.5  100   -1.5  0     0     985.7    NA       0.0000   -SN      9000  0     0    
2019/08/14  21:55:00  BASE  6.56796  337  8.379    338  -1.5  100   -1.5  0     0     985.7    NA       0.0000   -SN      9999  0     0    
2019/08/14  21:56:00  BASE  6.83844  335  8.379    338  -1.5  100   -1.5  0     0     985.6    NA       0.0000   -SN      BR    9999  0    
2019/08/14  21:57:00  BASE  7.1442   334  8.379    338  -1.5  100   -1.5  0     0     985.7    NA       0.0000   -SN      BR    9999  0    
2019/08/14  21:58:00  BASE  6.762    336  8.379    338  -1.5  100   -1.5  0     0     985.7    NA       0.0000   -SN      BR    9999  0    
2019/08/14  21:59:00  BASE  6.43272  338  8.379    338  -1.5  100   -1.5  0     0     985.6    NA       0.0000   -SN      BR    9999  0    
2019/08/14  22:00:00  BASE  6.47976  338  8.379    338  -1.5  100   -1.5  0     0     985.6    NA       0.0000   -SN      BR    9999  0    
2019/08/14  22:03:00  BASE  M        M    13.99    331  -1.5  100   -1.5  0     0     985.7    NA       0.0000   BR       9999  0     0    
2019/08/14  22:04:00  BASE  5.70948  343  8.22612  331  -1.5  100   -1.5  0     0     985.6    NA       0.0000   9999     0     0     0    
2019/08/14  22:05:00  BASE  5.83296  341  8.22612  331  -1.5  100   -1.5  0     0     985.6    NA       0.0000   -SN      9999  0     0    
2019/08/14  22:06:00  BASE  6.42096  338  7.71456  336  -1.6  100   -1.6  0     0     985.6    NA       0.0000   -SN      9999  0     0    
2019/08/14  22:07:00  BASE  6.56796  338  7.59108  337  -1.6  100   -1.6  0     0     985.6    NA       0.0000   -SN      9999  0     0    
2019/08/14  22:08:00  BASE  6.03876  342  7.59108  337  -1.6  100   -1.6  0     0     985.6    NA       0.0000   -SN      9999  0     0    
2019/08/14  22:09:00  BASE  5.99172  341  7.59108  337  -1.6  100   -1.6  0     0     985.6    NA       0.0000   -SN      9999  0     0    
2019/08/14  22:10:00  BASE  5.87412  336  7.3206   333  -1.5  100   -1.5  0     0     985.6    NA       0.0000   -SN      9999  0     0    
2019/08/14  22:11:00  BASE  5.56248  335  7.3206   333  -1.5  100   -1.5  0     0     985.6    NA       0.0000   -SN      9999  0     0    
2019/08/14  22:12:00  BASE  5.25672  337  7.3206   333  -1.5  100   -1.5  0     0     985.6    NA       0.0000   -SN      8000  0     0    
2019/08/14  22:13:00  BASE  5.37432  338  7.3206   333  -1.5  100   -1.5  0     0     985.5    NA       0.0000   -SN      9000  0     0    
2019/08/14  22:14:01  BASE  5.54484  338  7.3206   333  -1.5  100   -1.5  0     0     985.5    NA       0.0000   -SN      9999  0     0    
2019/08/14  22:15:01  BASE  5.439    338  7.3206   333  -1.5  100   -1.5  0     0     985.5    NA       0.0000   -SN      9999  0     0    
2019/08/14  22:16:00  BASE  5.72712  337  7.05012  336  -1.5  100   -1.5  0     0     985.4    NA       0.0000   -SN      9999  0     0    
2019/08/14  22:17:00  BASE  6.13284  337  7.3206   335  -1.5  100   -1.5  0     0     985.4    NA       0.0000   -SN      9999  0     0    
2019/08/14  22:18:00  BASE  6.50916  338  7.3206   335  -1.5  100   -1.5  0     0     985.3    NA       0.0000   -SN      9999  0     0    
2019/08/14  22:19:00  BASE  6.71496  338  7.3206   335  -1.5  100   -1.5  0     0     985.3    NA       0.0000   -SN      9999  0     0    
2019/08/14  22:20:00  BASE  6.63852  336  7.3206   338  -1.5  100   -1.5  0     0     985.3    NA       0.0000   -SN      9999  0     0    
2019/08/14  22:21:00  BASE  6.6444   337  7.3206   338  -1.5  100   -1.5  0     0     985.3    NA       0.0000   -SN      9999  0     0    
2019/08/14  22:22:00  BASE  6.57384  338  7.3206   338  -1.5  100   -1.5  0     0     985.2    NA       0.0000   -SN      9999  0     0    
2019/08/14  22:23:01  BASE  6.5268   340  7.3206   338  -1.5  100   -1.5  0     0     985.2    NA       0.0000   -SN      9999  0     0    
2019/08/14  22:24:00  BASE  6.69144  343  7.3206   338  -1.5  100   -1.5  0     0     985.2    NA       0.0000   -SN      9999  0     0    
2019/08/14  22:25:00  BASE  6.49152  343  7.3206   338  -1.5  100   -1.5  0     0     985.2    NA       0.0000   -SN      9999  0     0    
2019/08/14  22:26:00  BASE  5.95056  343  7.3206   338  -1.5  100   -1.5  0     0     985.2    NA       0.0000   -SN      9999  0     0    
2019/08/14  22:27:00  BASE  5.62716  345  7.3206   338  -1.5  100   -1.5  0     0     985.2    NA       0.0000   -SN      9999  0     0    
2019/08/14  22:28:00  BASE  5.77416  344  7.3206   338  -1.5  100   -1.5  0     0     985.1    NA       0.0000   -SN      9999  0     0    
2019/08/14  22:29:00  BASE  5.75652  342  7.3206   338  -1.5  100   -1.5  0     0     985.1    NA       0.0000   -SN      9999  0     0    
2019/08/14  22:30:00  BASE  5.90352  340  7.13832  338  -1.5  100   -1.5  0     0     985.1    NA       0.0000   -SN      9999  0     0    
2019/08/14  22:31:00  BASE  6.321    340  7.07952  339  -1.5  100   -1.5  0     0     985.1    NA       0.0000   -SN      9999  260   0    
2019/08/14  22:32:00  BASE  6.33864  342  7.07952  339  -1.5  100   -1.5  0     0     985.1    NA       0.0000   -SN      9999  300   0    
2019/08/14  22:33:00  BASE  6.2916   342  7.07952  339  -1.5  100   -1.5  0     0     985.1    NA       0.0000   -SN      9999  300   0    
2019/08/14  22:34:00  BASE  5.99172  344  6.98544  342  -1.5  100   -1.5  0     0     985.1    NA       0.0000   -SN      9999  300   0    
2019/08/14  22:35:00  BASE  5.94468  343  6.98544  342  -1.5  100   -1.5  0     0     985.0    NA       0.0000   -SN      9999  300   0    
2019/08/14  22:36:00  BASE  6.13284  342  6.98544  342  -1.5  100   -1.5  0     0     985.0    NA       0.0000   -SN      9999  300   0    
2019/08/14  22:37:00  BASE  5.97408  344  6.98544  342  -1.5  100   -1.5  0     0     985.0    NA       0.0000   -SN      9999  300   0    
2019/08/14  22:38:00  BASE  5.87412  344  6.98544  342  -1.5  100   -1.5  0     0     984.9    NA       0.0000   -SN      9999  330   0    
2019/08/14  22:39:00  BASE  6.09756  342  7.71456  348  -1.5  100   -1.5  0     0     984.9    NA       0.0000   -SN      9999  300   0    
2019/08/14  22:40:00  BASE  6.50328  343  7.71456  348  -1.5  100   -1.5  0     0     984.9    NA       0.0000   9999     300   0     0    
2019/08/14  22:41:00  BASE  6.30336  343  7.71456  348  -1.5  100   -1.5  0     0     984.9    NA       0.0000   9999     300   0     0    
2019/08/14  22:42:00  BASE  5.82708  341  7.71456  348  -1.5  100   -1.5  0     0     984.9    NA       0.0000   9999     300   0     0    
2019/08/14  22:43:00  BASE  5.53896  341  7.71456  348  -1.5  100   -1.5  0     0     984.9    NA       0.0000   9999     300   0     0    
2019/08/14  22:44:00  BASE  5.15676  342  7.71456  348  -1.5  100   -1.5  0     0     984.9    NA       0.0000   9999     300   0     0    
2019/08/14  22:45:00  BASE  4.88628  344  7.71456  348  -1.5  100   -1.5  0     0     984.8    NA       0.0000   9999     300   0     0    
2019/08/14  22:46:00  BASE  5.03916  346  7.71456  348  -1.5  100   -1.5  0     0     984.8    NA       0.0000   9999     260   0     0    
2019/08/14  22:47:00  BASE  5.5566   345  7.71456  348  -1.5  100   -1.5  0     0     984.8    NA       0.0000   9999     230   0     0    
2019/08/14  22:48:00  BASE  5.7624   343  7.71456  348  -1.5  100   -1.5  0     0     984.8    NA       0.0000   -SN      9999  0     0    
2019/08/14  22:49:00  BASE  5.58012  345  7.71456  348  -1.5  100   -1.5  0     0     984.8    NA       0.0000   -SN      9999  0     0    
2019/08/14  22:50:00  BASE  5.33316  345  6.3504   333  -1.5  100   -1.5  0     0     984.8    NA       0.0000   -SN      9999  0     0    
2019/08/14  22:51:00  BASE  5.10972  344  6.3504   333  -1.5  100   -1.5  0     0     984.8    NA       0.0000   -SN      9999  230   0    
2019/08/14  22:52:00  BASE  5.0568   345  6.10932  346  -1.5  100   -1.5  0     0     984.8    NA       0.0000   -SN      9999  230   0    
2019/08/14  22:53:00  BASE  5.01564  347  6.10932  346  -1.5  100   -1.5  0     0     984.8    NA       0.0000   -SN      9999  260   0    
2019/08/14  22:54:00  BASE  4.70988  348  6.10932  346  -1.5  100   -1.5  0     0     984.8    NA       0.0000   -SN      9999  0     0    
2019/08/14  22:55:00  BASE  4.39824  346  6.10932  346  -1.5  100   -1.5  0     0     984.8    NA       0.0000   -SN      9999  0     0    
2019/08/14  22:56:00  BASE  4.45116  345  6.10932  346  -1.5  100   -1.5  0     0     984.8    NA       0.0000   -SN      9999  0     0    
2019/08/14  22:57:00  BASE  4.65696  347  5.99172  339  -1.5  100   -1.5  0     0     984.8    NA       0.0000   -SN      9999  0     0    
2019/08/14  22:58:00  BASE  4.75104  347  5.92704  345  -1.5  100   -1.5  0     0     984.8    NA       0.0000   -SN      9999  0     0    
2019/08/14  22:59:00  BASE  5.01564  346  5.71536  345  -1.5  100   -1.5  0     0     984.8    NA       0.0000   -SN      9999  0     0    
2019/08/14  23:00:00  BASE  5.1156   348  5.71536  345  -1.5  100   -1.5  0     0     984.7    NA       0.0000   -SN      9999  0     0    
2019/08/14  23:01:00  BASE  5.24496  355  5.78004  360  -1.5  100   -1.5  0     0     984.7    NA       0.0000   -SN      9999  0     0    
2019/08/14  23:02:00  BASE  5.42724  354  6.13872  354  -1.5  100   -1.5  0     0     984.7    NA       0.0000   -SN      9999  0     0    
2019/08/14  23:03:00  BASE  5.2038   353  6.13872  354  -1.5  100   -1.5  0     0     984.7    NA       0.0000   -SN      9999  0     0    
2019/08/14  23:04:00  BASE  4.88628  358  6.13872  354  -1.5  100   -1.5  0     0     984.6    NA       0.0000   -SN      9999  0     0    
2019/08/14  23:05:00  BASE  4.66284  357  6.13872  354  -1.5  100   -1.5  0     0     984.6    NA       0.0000   -SN      9999  0     0    
2019/08/14  23:06:00  BASE  4.63932  349  6.13872  354  -1.5  100   -1.5  0     0     984.6    NA       0.0000   -SN      9999  0     0    
2019/08/14  23:07:00  BASE  4.41     351  6.13872  354  -1.5  100   -1.5  0     0     984.6    NA       0.0000   -SN      9999  0     0    
2019/08/14  23:08:00  BASE  4.06896  357  6.13872  354  -1.5  100   -1.5  0     0     984.5    NA       0.0000   -SN      9999  0     0    
2019/08/14  23:09:00  BASE  4.0866   354  6.13872  354  -1.5  100   -1.5  0     0     984.5    NA       0.0000   -SN      9999  0     0    
2019/08/14  23:10:00  BASE  4.25124  352  6.13872  354  -1.5  100   -1.5  0     0     984.5    NA       0.0000   -SN      9999  0     0    
2019/08/14  23:11:00  BASE  4.45704  353  6.13872  354  -1.5  100   -1.5  0     0     984.5    NA       0.0000   -SN      9999  0     0    
2019/08/14  23:12:00  BASE  4.63344  350  5.53308  354  -1.5  100   -1.5  0     0     984.5    NA       0.0000   -SN      9999  0     0    
2019/08/14  23:13:00  BASE  4.66872  341  5.2332   346  -1.5  100   -1.5  0     0     984.4    NA       0.0000   -SN      9999  0     0    
2019/08/14  23:14:00  BASE  4.59816  341  5.2332   346  -1.5  100   -1.5  0     0     984.4    NA       0.0000   -SN      9999  0     0    
2019/08/14  23:15:00  BASE  4.57464  350  5.2332   346  -1.5  100   -1.5  0     0     984.4    NA       0.0000   -SN      9999  0     0    
2019/08/14  23:16:00  BASE  4.65696  353  5.2332   346  -1.5  100   -1.5  0     0     984.4    NA       0.0000   -SN      9999  0     0    
2019/08/14  23:17:00  BASE  4.73928  353  5.2332   346  -1.5  100   -1.5  0     0     984.3    NA       0.0000   -SN      9999  0     0    
2019/08/14  23:18:00  BASE  4.83924  353  5.65656  360  -1.5  100   -1.5  0     0     984.3    NA       0.0000   -SN      9999  0     0    
2019/08/14  23:19:00  BASE  4.95684  349  5.65656  360  -1.5  100   -1.5  0     0     984.3    NA       0.0000   -SN      9999  0     0    
2019/08/14  23:20:00  BASE  4.87452  352  5.65656  360  -1.5  100   -1.5  0     0     984.3    NA       0.0000   -SN      9999  0     0    
2019/08/14  23:21:00  BASE  4.56288  352  5.65656  360  -1.5  100   -1.5  0     0     984.3    NA       0.0000   9999     0     0     0    
2019/08/14  23:22:00  BASE  4.34532  348  5.65656  360  -1.5  100   -1.5  0     0     984.3    NA       0.0000   9999     0     0     0    
2019/08/14  23:23:00  BASE  4.36296  347  5.65656  360  -1.5  100   -1.5  0     0     984.3    NA       0.0000   -SN      9999  0     0    
2019/08/14  23:24:00  BASE  4.40412  347  5.65656  360  -1.5  100   -1.5  0     0     984.3    NA       0.0000   -SN      9000  0     0    
2019/08/14  23:25:00  BASE  4.39236  348  5.65656  360  -1.5  100   -1.5  0     0     984.3    NA       0.0000   -SN      7000  0     0    
2019/08/14  23:26:00  BASE  4.25124  351  5.65656  360  -1.5  100   -1.5  0     0     984.2    NA       0.0000   -SN      7000  0     0    
2019/08/14  23:27:00  BASE  4.32768  350  5.65656  360  -1.5  100   -1.5  0     0     984.2    NA       0.0000   -SN      BR    6000  0    
2019/08/14  23:28:00  BASE  4.5276   346  5.35668  350  -1.5  100   -1.5  0     0     984.2    NA       0.0000   -SN      BR    5000  0    
2019/08/14  23:29:00  BASE  4.29828  346  5.35668  350  -1.5  100   -1.5  0     0     984.2    NA       0.0000   -SN      BR    4500  0    
2019/08/14  23:30:00  BASE  4.09836  346  5.292    349  -1.5  100   -1.5  0     0     984.2    NA       0.0000   -SN      BR    4000  0    
2019/08/14  23:31:00  BASE  4.15716  349  5.292    349  -1.5  100   -1.5  0     0     984.2    NA       0.0000   -SN      BR    4000  0    
2019/08/14  23:32:00  BASE  4.10424  347  5.292    349  -1.5  100   -1.5  0     0     984.2    NA       0.0000   -SN      BR    4300  0    
2019/08/14  23:33:00  BASE  4.0866   344  5.292    349  -1.5  100   -1.5  0     0     984.1    NA       0.0000   -SN      BR    4200  0    
2019/08/14  23:34:00  BASE  4.09836  342  5.292    349  -1.5  100   -1.5  0     0     984.1    NA       0.0000   -SN      BR    4600  0    
2019/08/14  23:35:00  BASE  4.42764  345  5.292    349  -1.5  100   -1.5  0     0     984.1    NA       0.0000   -SN      BR    5000  0    
2019/08/14  23:36:00  BASE  5.08032  348  5.83884  344  -1.5  100   -1.5  0     0     984.1    NA       0.0000   -SN      BR    9999  0    
2019/08/14  23:37:00  BASE  5.10384  344  5.83884  344  -1.5  100   -1.5  0     0     984.1    NA       0.0000   -SN      BR    9999  0    
2019/08/14  23:38:00  BASE  4.93332  345  5.83884  344  -1.4  100   -1.4  0     0     984.1    NA       0.0000   -SN      BR    8000  0    
2019/08/14  23:39:00  BASE  5.06268  346  5.83884  344  -1.4  100   -1.4  0     0     984.0    NA       0.0000   -SN      BR    6000  0    
2019/08/14  23:40:00  BASE  4.96272  348  5.83884  344  -1.4  100   -1.4  0     0     984.0    NA       0.0000   -SN      BR    7000  0    
2019/08/14  23:41:00  BASE  4.81572  351  5.83884  344  -1.4  100   -1.4  0     0     984.0    NA       0.0000   -SN      BR    9999  0    
2019/08/14  23:42:00  BASE  4.75104  351  5.83884  344  -1.4  100   -1.4  0     0     984.0    NA       0.0000   -SN      BR    9999  0    
2019/08/14  23:43:00  BASE  4.6746   347  5.83884  344  -1.4  100   -1.4  0     0     983.9    NA       0.0000   -SN      BR    9999  0    
2019/08/14  23:44:00  BASE  4.82748  348  5.83884  344  -1.4  100   -1.4  0     0     983.9    NA       0.0000   -SN      BR    7000  0    
2019/08/14  23:45:01  BASE  4.998    347  5.83884  344  -1.4  100   -1.4  0     0     983.9    NA       0.0000   -SN      BR    9999  0    
2019/08/14  23:46:00  BASE  5.2038   347  5.86824  349  -1.4  100   -1.4  0     0     983.9    NA       0.0000   -SN      BR    9999  0    
2019/08/14  23:47:00  BASE  5.13912  350  5.86824  349  -1.4  100   -1.4  0     0     983.9    NA       0.0000   -SN      BR    9999  0    
2019/08/14  23:48:00  BASE  4.77456  355  5.86824  349  -1.4  100   -1.4  0     0     983.9    NA       0.0000   -SN      BR    9999  0    
2019/08/14  23:49:00  BASE  4.73928  355  5.86824  349  -1.4  100   -1.4  0     0     983.8    NA       0.0000   -SN      9999  0     0    
2019/08/14  23:50:00  BASE  5.07444  352  5.86824  349  -1.4  100   -1.4  0     0     983.7    NA       0.0000   -SN      9999  0     0    
2019/08/14  23:51:00  BASE  5.3214   352  5.86824  349  -1.4  100   -1.4  0     0     983.7    NA       0.0000   -SN      9000  0     0    
2019/08/14  23:52:00  BASE  5.19204  353  5.86824  349  -1.4  100   -1.4  0     0     983.7    NA       0.0000   -SN      9999  0     0    
2019/08/14  23:53:00  BASE  5.07444  355  5.86824  349  -1.4  100   -1.4  0     0     983.7    NA       0.0000   -SN      9999  0     0    
2019/08/14  23:54:00  BASE  4.96272  349  5.86824  349  -1.4  100   -1.4  0     0     983.7    NA       0.0000   -SN      9999  0     0    
2019/08/14  23:55:00  BASE  4.78632  349  5.86824  349  -1.4  100   -1.4  0     0     983.7    NA       0.0000   -SN      9999  0     0    
2019/08/14  23:56:01  BASE  4.86276  353  5.83884  349  -1.4  100   -1.4  0     0     983.7    NA       0.0000   -SN      9999  0     0    
2019/08/14  23:57:01  BASE  5.03916  351  5.83884  349  -1.4  100   -1.4  0     0     983.7    NA       0.0000   -SN      9999  0     0    
2019/08/14  23:58:01  BASE  5.0862   351  5.83884  349  -1.4  100   -1.4  0     0     983.7    NA       0.0000   -SN      9999  0     0    
2019/08/14  23:59:01  BASE  5.10972  348  5.83884  349  -1.4  100   -1.4  0     0     983.6    NA       0.0000   -SN      9999  0     0